<?xml version="1.0" encoding="UTF-8" standalone="no" ?>
<gpx xmlns="http://www.topografix.com/GPX/1/1" xmlns:xsi="http://www.w3.org/2001/XMLSchema-instance" xsi:schemaLocation="http://www.topografix.com/GPX/1/1 http://www.topografix.com/GPX/1/1/gpx.xsd" version="1.1" creator="VisuGPX - https://www.visugpx.com">
  <metadata>
    <name>La rando de Messimy millésime 2008</name>
    <desc><![CDATA[Trace provenant d\'Utagawa]]></desc>
  </metadata>
  <trk>
    <name><![CDATA[TracÃ© actuel: 04 AOU 2012 07:52]]></name>
    <trkseg>
      <trkpt lat="45.69662" lon="4.67401">
        <ele>377</ele>
        <time>2012-08-04T05:52:37Z</time>
      </trkpt>
      <trkpt lat="45.69663" lon="4.67402">
        <ele>377</ele>
        <time>2012-08-04T05:52:52Z</time>
      </trkpt>
      <trkpt lat="45.69663" lon="4.67402">
        <ele>377</ele>
        <time>2012-08-04T05:52:53Z</time>
      </trkpt>
      <trkpt lat="45.69663" lon="4.67408">
        <ele>377</ele>
        <time>2012-08-04T05:52:56Z</time>
      </trkpt>
      <trkpt lat="45.69661" lon="4.67412">
        <ele>376</ele>
        <time>2012-08-04T05:52:58Z</time>
      </trkpt>
      <trkpt lat="45.69643" lon="4.67428">
        <ele>376</ele>
        <time>2012-08-04T05:53:05Z</time>
      </trkpt>
      <trkpt lat="45.69636" lon="4.67431">
        <ele>376</ele>
        <time>2012-08-04T05:53:07Z</time>
      </trkpt>
      <trkpt lat="45.69631" lon="4.6743">
        <ele>376</ele>
        <time>2012-08-04T05:53:08Z</time>
      </trkpt>
      <trkpt lat="45.69586" lon="4.67425">
        <ele>374</ele>
        <time>2012-08-04T05:53:17Z</time>
      </trkpt>
      <trkpt lat="45.69576" lon="4.67424">
        <ele>373</ele>
        <time>2012-08-04T05:53:19Z</time>
      </trkpt>
      <trkpt lat="45.69527" lon="4.67439">
        <ele>369</ele>
        <time>2012-08-04T05:53:29Z</time>
      </trkpt>
      <trkpt lat="45.695" lon="4.67453">
        <ele>367</ele>
        <time>2012-08-04T05:53:36Z</time>
      </trkpt>
      <trkpt lat="45.69458" lon="4.6747">
        <ele>364</ele>
        <time>2012-08-04T05:53:45Z</time>
      </trkpt>
      <trkpt lat="45.69424" lon="4.6748">
        <ele>360</ele>
        <time>2012-08-04T05:53:50Z</time>
      </trkpt>
      <trkpt lat="45.6938" lon="4.67488">
        <ele>357</ele>
        <time>2012-08-04T05:53:55Z</time>
      </trkpt>
      <trkpt lat="45.69346" lon="4.67493">
        <ele>353</ele>
        <time>2012-08-04T05:53:59Z</time>
      </trkpt>
      <trkpt lat="45.6932" lon="4.67495">
        <ele>352</ele>
        <time>2012-08-04T05:54:02Z</time>
      </trkpt>
      <trkpt lat="45.69311" lon="4.67494">
        <ele>351</ele>
        <time>2012-08-04T05:54:03Z</time>
      </trkpt>
      <trkpt lat="45.69303" lon="4.67493">
        <ele>351</ele>
        <time>2012-08-04T05:54:04Z</time>
      </trkpt>
      <trkpt lat="45.69295" lon="4.6749">
        <ele>350</ele>
        <time>2012-08-04T05:54:05Z</time>
      </trkpt>
      <trkpt lat="45.69288" lon="4.67486">
        <ele>351</ele>
        <time>2012-08-04T05:54:06Z</time>
      </trkpt>
      <trkpt lat="45.69281" lon="4.67481">
        <ele>350</ele>
        <time>2012-08-04T05:54:07Z</time>
      </trkpt>
      <trkpt lat="45.69226" lon="4.67442">
        <ele>348</ele>
        <time>2012-08-04T05:54:15Z</time>
      </trkpt>
      <trkpt lat="45.69193" lon="4.67422">
        <ele>347</ele>
        <time>2012-08-04T05:54:20Z</time>
      </trkpt>
      <trkpt lat="45.69167" lon="4.67411">
        <ele>346</ele>
        <time>2012-08-04T05:54:24Z</time>
      </trkpt>
      <trkpt lat="45.69116" lon="4.67411">
        <ele>345</ele>
        <time>2012-08-04T05:54:32Z</time>
      </trkpt>
      <trkpt lat="45.6906" lon="4.67412">
        <ele>344</ele>
        <time>2012-08-04T05:54:42Z</time>
      </trkpt>
      <trkpt lat="45.69015" lon="4.67409">
        <ele>343</ele>
        <time>2012-08-04T05:54:51Z</time>
      </trkpt>
      <trkpt lat="45.68946" lon="4.67406">
        <ele>341</ele>
        <time>2012-08-04T05:55:03Z</time>
      </trkpt>
      <trkpt lat="45.68892" lon="4.67411">
        <ele>340</ele>
        <time>2012-08-04T05:55:13Z</time>
      </trkpt>
      <trkpt lat="45.68882" lon="4.67409">
        <ele>339</ele>
        <time>2012-08-04T05:55:15Z</time>
      </trkpt>
      <trkpt lat="45.68876" lon="4.67407">
        <ele>339</ele>
        <time>2012-08-04T05:55:16Z</time>
      </trkpt>
      <trkpt lat="45.68871" lon="4.67405">
        <ele>339</ele>
        <time>2012-08-04T05:55:17Z</time>
      </trkpt>
      <trkpt lat="45.68858" lon="4.67396">
        <ele>339</ele>
        <time>2012-08-04T05:55:20Z</time>
      </trkpt>
      <trkpt lat="45.68853" lon="4.67394">
        <ele>339</ele>
        <time>2012-08-04T05:55:21Z</time>
      </trkpt>
      <trkpt lat="45.68848" lon="4.67394">
        <ele>339</ele>
        <time>2012-08-04T05:55:22Z</time>
      </trkpt>
      <trkpt lat="45.68837" lon="4.67393">
        <ele>339</ele>
        <time>2012-08-04T05:55:24Z</time>
      </trkpt>
      <trkpt lat="45.6882" lon="4.6739">
        <ele>339</ele>
        <time>2012-08-04T05:55:28Z</time>
      </trkpt>
      <trkpt lat="45.68817" lon="4.67392">
        <ele>339</ele>
        <time>2012-08-04T05:55:29Z</time>
      </trkpt>
      <trkpt lat="45.68815" lon="4.67396">
        <ele>339</ele>
        <time>2012-08-04T05:55:30Z</time>
      </trkpt>
      <trkpt lat="45.68811" lon="4.67406">
        <ele>339</ele>
        <time>2012-08-04T05:55:32Z</time>
      </trkpt>
      <trkpt lat="45.68807" lon="4.67409">
        <ele>339</ele>
        <time>2012-08-04T05:55:33Z</time>
      </trkpt>
      <trkpt lat="45.68802" lon="4.67409">
        <ele>339</ele>
        <time>2012-08-04T05:55:34Z</time>
      </trkpt>
      <trkpt lat="45.68798" lon="4.67407">
        <ele>338</ele>
        <time>2012-08-04T05:55:35Z</time>
      </trkpt>
      <trkpt lat="45.68793" lon="4.67405">
        <ele>338</ele>
        <time>2012-08-04T05:55:36Z</time>
      </trkpt>
      <trkpt lat="45.68749" lon="4.67387">
        <ele>338</ele>
        <time>2012-08-04T05:55:45Z</time>
      </trkpt>
      <trkpt lat="45.687" lon="4.67364">
        <ele>338</ele>
        <time>2012-08-04T05:55:56Z</time>
      </trkpt>
      <trkpt lat="45.68644" lon="4.67333">
        <ele>336</ele>
        <time>2012-08-04T05:56:07Z</time>
      </trkpt>
      <trkpt lat="45.6859" lon="4.67296">
        <ele>335</ele>
        <time>2012-08-04T05:56:19Z</time>
      </trkpt>
      <trkpt lat="45.68555" lon="4.67276">
        <ele>333</ele>
        <time>2012-08-04T05:56:28Z</time>
      </trkpt>
      <trkpt lat="45.68552" lon="4.67278">
        <ele>332</ele>
        <time>2012-08-04T05:56:29Z</time>
      </trkpt>
      <trkpt lat="45.68549" lon="4.67281">
        <ele>332</ele>
        <time>2012-08-04T05:56:30Z</time>
      </trkpt>
      <trkpt lat="45.68546" lon="4.67285">
        <ele>332</ele>
        <time>2012-08-04T05:56:31Z</time>
      </trkpt>
      <trkpt lat="45.68542" lon="4.6729">
        <ele>331</ele>
        <time>2012-08-04T05:56:32Z</time>
      </trkpt>
      <trkpt lat="45.68539" lon="4.67294">
        <ele>331</ele>
        <time>2012-08-04T05:56:33Z</time>
      </trkpt>
      <trkpt lat="45.68533" lon="4.67303">
        <ele>330</ele>
        <time>2012-08-04T05:56:35Z</time>
      </trkpt>
      <trkpt lat="45.68526" lon="4.67313">
        <ele>329</ele>
        <time>2012-08-04T05:56:37Z</time>
      </trkpt>
      <trkpt lat="45.68511" lon="4.67333">
        <ele>327</ele>
        <time>2012-08-04T05:56:41Z</time>
      </trkpt>
      <trkpt lat="45.68508" lon="4.67339">
        <ele>327</ele>
        <time>2012-08-04T05:56:42Z</time>
      </trkpt>
      <trkpt lat="45.68501" lon="4.67352">
        <ele>326</ele>
        <time>2012-08-04T05:56:44Z</time>
      </trkpt>
      <trkpt lat="45.68493" lon="4.67369">
        <ele>324</ele>
        <time>2012-08-04T05:56:46Z</time>
      </trkpt>
      <trkpt lat="45.68483" lon="4.67397">
        <ele>322</ele>
        <time>2012-08-04T05:56:49Z</time>
      </trkpt>
      <trkpt lat="45.68474" lon="4.67424">
        <ele>321</ele>
        <time>2012-08-04T05:56:52Z</time>
      </trkpt>
      <trkpt lat="45.68472" lon="4.67433">
        <ele>320</ele>
        <time>2012-08-04T05:56:53Z</time>
      </trkpt>
      <trkpt lat="45.68472" lon="4.67442">
        <ele>319</ele>
        <time>2012-08-04T05:56:54Z</time>
      </trkpt>
      <trkpt lat="45.68472" lon="4.67451">
        <ele>318</ele>
        <time>2012-08-04T05:56:55Z</time>
      </trkpt>
      <trkpt lat="45.68473" lon="4.67461">
        <ele>318</ele>
        <time>2012-08-04T05:56:56Z</time>
      </trkpt>
      <trkpt lat="45.6848" lon="4.675">
        <ele>315</ele>
        <time>2012-08-04T05:57:00Z</time>
      </trkpt>
      <trkpt lat="45.68483" lon="4.67509">
        <ele>314</ele>
        <time>2012-08-04T05:57:01Z</time>
      </trkpt>
      <trkpt lat="45.68487" lon="4.67516">
        <ele>314</ele>
        <time>2012-08-04T05:57:02Z</time>
      </trkpt>
      <trkpt lat="45.68494" lon="4.67531">
        <ele>314</ele>
        <time>2012-08-04T05:57:05Z</time>
      </trkpt>
      <trkpt lat="45.68493" lon="4.67536">
        <ele>313</ele>
        <time>2012-08-04T05:57:06Z</time>
      </trkpt>
      <trkpt lat="45.6849" lon="4.6754">
        <ele>313</ele>
        <time>2012-08-04T05:57:07Z</time>
      </trkpt>
      <trkpt lat="45.68487" lon="4.67544">
        <ele>313</ele>
        <time>2012-08-04T05:57:08Z</time>
      </trkpt>
      <trkpt lat="45.68483" lon="4.67549">
        <ele>313</ele>
        <time>2012-08-04T05:57:09Z</time>
      </trkpt>
      <trkpt lat="45.68473" lon="4.67565">
        <ele>312</ele>
        <time>2012-08-04T05:57:12Z</time>
      </trkpt>
      <trkpt lat="45.68471" lon="4.6757">
        <ele>312</ele>
        <time>2012-08-04T05:57:13Z</time>
      </trkpt>
      <trkpt lat="45.68471" lon="4.67576">
        <ele>312</ele>
        <time>2012-08-04T05:57:14Z</time>
      </trkpt>
      <trkpt lat="45.68472" lon="4.6758">
        <ele>312</ele>
        <time>2012-08-04T05:57:15Z</time>
      </trkpt>
      <trkpt lat="45.68474" lon="4.67583">
        <ele>312</ele>
        <time>2012-08-04T05:57:16Z</time>
      </trkpt>
      <trkpt lat="45.68482" lon="4.67604">
        <ele>314</ele>
        <time>2012-08-04T05:57:24Z</time>
      </trkpt>
      <trkpt lat="45.68488" lon="4.6763">
        <ele>315</ele>
        <time>2012-08-04T05:57:33Z</time>
      </trkpt>
      <trkpt lat="45.68486" lon="4.67654">
        <ele>317</ele>
        <time>2012-08-04T05:57:41Z</time>
      </trkpt>
      <trkpt lat="45.68473" lon="4.67681">
        <ele>318</ele>
        <time>2012-08-04T05:57:51Z</time>
      </trkpt>
      <trkpt lat="45.68455" lon="4.67701">
        <ele>320</ele>
        <time>2012-08-04T05:58:01Z</time>
      </trkpt>
      <trkpt lat="45.68438" lon="4.67709">
        <ele>321</ele>
        <time>2012-08-04T05:58:10Z</time>
      </trkpt>
      <trkpt lat="45.68423" lon="4.67714">
        <ele>322</ele>
        <time>2012-08-04T05:58:17Z</time>
      </trkpt>
      <trkpt lat="45.68398" lon="4.67723">
        <ele>324</ele>
        <time>2012-08-04T05:58:29Z</time>
      </trkpt>
      <trkpt lat="45.68375" lon="4.67731">
        <ele>324</ele>
        <time>2012-08-04T05:58:40Z</time>
      </trkpt>
      <trkpt lat="45.68356" lon="4.67738">
        <ele>325</ele>
        <time>2012-08-04T05:58:50Z</time>
      </trkpt>
      <trkpt lat="45.68354" lon="4.6774">
        <ele>325</ele>
        <time>2012-08-04T05:58:51Z</time>
      </trkpt>
      <trkpt lat="45.68352" lon="4.67741">
        <ele>326</ele>
        <time>2012-08-04T05:58:52Z</time>
      </trkpt>
      <trkpt lat="45.68349" lon="4.67741">
        <ele>326</ele>
        <time>2012-08-04T05:58:53Z</time>
      </trkpt>
      <trkpt lat="45.68347" lon="4.67742">
        <ele>326</ele>
        <time>2012-08-04T05:58:54Z</time>
      </trkpt>
      <trkpt lat="45.68325" lon="4.67749">
        <ele>327</ele>
        <time>2012-08-04T05:59:05Z</time>
      </trkpt>
      <trkpt lat="45.68301" lon="4.67757">
        <ele>329</ele>
        <time>2012-08-04T05:59:17Z</time>
      </trkpt>
      <trkpt lat="45.68277" lon="4.67765">
        <ele>331</ele>
        <time>2012-08-04T05:59:29Z</time>
      </trkpt>
      <trkpt lat="45.68257" lon="4.67772">
        <ele>333</ele>
        <time>2012-08-04T05:59:39Z</time>
      </trkpt>
      <trkpt lat="45.68237" lon="4.67778">
        <ele>335</ele>
        <time>2012-08-04T05:59:49Z</time>
      </trkpt>
      <trkpt lat="45.68234" lon="4.67778">
        <ele>336</ele>
        <time>2012-08-04T05:59:51Z</time>
      </trkpt>
      <trkpt lat="45.68232" lon="4.67777">
        <ele>336</ele>
        <time>2012-08-04T05:59:52Z</time>
      </trkpt>
      <trkpt lat="45.68232" lon="4.67774">
        <ele>336</ele>
        <time>2012-08-04T05:59:53Z</time>
      </trkpt>
      <trkpt lat="45.68231" lon="4.67771">
        <ele>336</ele>
        <time>2012-08-04T05:59:54Z</time>
      </trkpt>
      <trkpt lat="45.68231" lon="4.67768">
        <ele>336</ele>
        <time>2012-08-04T05:59:55Z</time>
      </trkpt>
      <trkpt lat="45.68231" lon="4.67764">
        <ele>336</ele>
        <time>2012-08-04T05:59:56Z</time>
      </trkpt>
      <trkpt lat="45.6823" lon="4.67761">
        <ele>336</ele>
        <time>2012-08-04T05:59:57Z</time>
      </trkpt>
      <trkpt lat="45.68229" lon="4.67732">
        <ele>335</ele>
        <time>2012-08-04T06:00:05Z</time>
      </trkpt>
      <trkpt lat="45.68222" lon="4.67717">
        <ele>336</ele>
        <time>2012-08-04T06:00:11Z</time>
      </trkpt>
      <trkpt lat="45.68212" lon="4.67718">
        <ele>337</ele>
        <time>2012-08-04T06:00:17Z</time>
      </trkpt>
      <trkpt lat="45.68199" lon="4.67724">
        <ele>339</ele>
        <time>2012-08-04T06:00:25Z</time>
      </trkpt>
      <trkpt lat="45.68186" lon="4.67728">
        <ele>339</ele>
        <time>2012-08-04T06:00:33Z</time>
      </trkpt>
      <trkpt lat="45.68173" lon="4.67732">
        <ele>341</ele>
        <time>2012-08-04T06:00:41Z</time>
      </trkpt>
      <trkpt lat="45.68161" lon="4.67735">
        <ele>343</ele>
        <time>2012-08-04T06:00:49Z</time>
      </trkpt>
      <trkpt lat="45.68149" lon="4.6774">
        <ele>346</ele>
        <time>2012-08-04T06:00:57Z</time>
      </trkpt>
      <trkpt lat="45.68139" lon="4.67743">
        <ele>347</ele>
        <time>2012-08-04T06:01:04Z</time>
      </trkpt>
      <trkpt lat="45.68128" lon="4.67748">
        <ele>349</ele>
        <time>2012-08-04T06:01:11Z</time>
      </trkpt>
      <trkpt lat="45.68114" lon="4.67744">
        <ele>350</ele>
        <time>2012-08-04T06:01:20Z</time>
      </trkpt>
      <trkpt lat="45.681" lon="4.67729">
        <ele>351</ele>
        <time>2012-08-04T06:01:30Z</time>
      </trkpt>
      <trkpt lat="45.68079" lon="4.67711">
        <ele>353</ele>
        <time>2012-08-04T06:01:43Z</time>
      </trkpt>
      <trkpt lat="45.68066" lon="4.6771">
        <ele>353</ele>
        <time>2012-08-04T06:01:51Z</time>
      </trkpt>
      <trkpt lat="45.68065" lon="4.67712">
        <ele>354</ele>
        <time>2012-08-04T06:01:52Z</time>
      </trkpt>
      <trkpt lat="45.68061" lon="4.67736">
        <ele>356</ele>
        <time>2012-08-04T06:02:01Z</time>
      </trkpt>
      <trkpt lat="45.68058" lon="4.67758">
        <ele>357</ele>
        <time>2012-08-04T06:02:10Z</time>
      </trkpt>
      <trkpt lat="45.68053" lon="4.67779">
        <ele>358</ele>
        <time>2012-08-04T06:02:19Z</time>
      </trkpt>
      <trkpt lat="45.68044" lon="4.67798">
        <ele>359</ele>
        <time>2012-08-04T06:02:27Z</time>
      </trkpt>
      <trkpt lat="45.6803" lon="4.67803">
        <ele>359</ele>
        <time>2012-08-04T06:02:34Z</time>
      </trkpt>
      <trkpt lat="45.68007" lon="4.67803">
        <ele>361</ele>
        <time>2012-08-04T06:02:45Z</time>
      </trkpt>
      <trkpt lat="45.67988" lon="4.67815">
        <ele>362</ele>
        <time>2012-08-04T06:02:55Z</time>
      </trkpt>
      <trkpt lat="45.6797" lon="4.67826">
        <ele>364</ele>
        <time>2012-08-04T06:03:05Z</time>
      </trkpt>
      <trkpt lat="45.67955" lon="4.67833">
        <ele>364</ele>
        <time>2012-08-04T06:03:12Z</time>
      </trkpt>
      <trkpt lat="45.67942" lon="4.67839">
        <ele>366</ele>
        <time>2012-08-04T06:03:20Z</time>
      </trkpt>
      <trkpt lat="45.67926" lon="4.67843">
        <ele>367</ele>
        <time>2012-08-04T06:03:29Z</time>
      </trkpt>
      <trkpt lat="45.67911" lon="4.67852">
        <ele>368</ele>
        <time>2012-08-04T06:03:38Z</time>
      </trkpt>
      <trkpt lat="45.67897" lon="4.67861">
        <ele>370</ele>
        <time>2012-08-04T06:03:46Z</time>
      </trkpt>
      <trkpt lat="45.67882" lon="4.67867">
        <ele>371</ele>
        <time>2012-08-04T06:03:54Z</time>
      </trkpt>
      <trkpt lat="45.67865" lon="4.67874">
        <ele>372</ele>
        <time>2012-08-04T06:04:02Z</time>
      </trkpt>
      <trkpt lat="45.67849" lon="4.67876">
        <ele>373</ele>
        <time>2012-08-04T06:04:09Z</time>
      </trkpt>
      <trkpt lat="45.67834" lon="4.67882">
        <ele>374</ele>
        <time>2012-08-04T06:04:17Z</time>
      </trkpt>
      <trkpt lat="45.67813" lon="4.67891">
        <ele>372</ele>
        <time>2012-08-04T06:04:25Z</time>
      </trkpt>
      <trkpt lat="45.67803" lon="4.67896">
        <ele>374</ele>
        <time>2012-08-04T06:04:31Z</time>
      </trkpt>
      <trkpt lat="45.67786" lon="4.67903">
        <ele>376</ele>
        <time>2012-08-04T06:04:41Z</time>
      </trkpt>
      <trkpt lat="45.67768" lon="4.67915">
        <ele>378</ele>
        <time>2012-08-04T06:04:52Z</time>
      </trkpt>
      <trkpt lat="45.67753" lon="4.6792">
        <ele>379</ele>
        <time>2012-08-04T06:05:00Z</time>
      </trkpt>
      <trkpt lat="45.6774" lon="4.67925">
        <ele>380</ele>
        <time>2012-08-04T06:05:08Z</time>
      </trkpt>
      <trkpt lat="45.67718" lon="4.67933">
        <ele>383</ele>
        <time>2012-08-04T06:05:20Z</time>
      </trkpt>
      <trkpt lat="45.67695" lon="4.67941">
        <ele>384</ele>
        <time>2012-08-04T06:05:32Z</time>
      </trkpt>
      <trkpt lat="45.67679" lon="4.6794">
        <ele>386</ele>
        <time>2012-08-04T06:05:41Z</time>
      </trkpt>
      <trkpt lat="45.67661" lon="4.67936">
        <ele>388</ele>
        <time>2012-08-04T06:05:50Z</time>
      </trkpt>
      <trkpt lat="45.67644" lon="4.67939">
        <ele>388</ele>
        <time>2012-08-04T06:05:59Z</time>
      </trkpt>
      <trkpt lat="45.67625" lon="4.67942">
        <ele>390</ele>
        <time>2012-08-04T06:06:08Z</time>
      </trkpt>
      <trkpt lat="45.67606" lon="4.67947">
        <ele>391</ele>
        <time>2012-08-04T06:06:17Z</time>
      </trkpt>
      <trkpt lat="45.67588" lon="4.67953">
        <ele>393</ele>
        <time>2012-08-04T06:06:26Z</time>
      </trkpt>
      <trkpt lat="45.67567" lon="4.67959">
        <ele>395</ele>
        <time>2012-08-04T06:06:36Z</time>
      </trkpt>
      <trkpt lat="45.67554" lon="4.67949">
        <ele>395</ele>
        <time>2012-08-04T06:06:43Z</time>
      </trkpt>
      <trkpt lat="45.67538" lon="4.67933">
        <ele>397</ele>
        <time>2012-08-04T06:06:52Z</time>
      </trkpt>
      <trkpt lat="45.67516" lon="4.67922">
        <ele>399</ele>
        <time>2012-08-04T06:07:03Z</time>
      </trkpt>
      <trkpt lat="45.67493" lon="4.67903">
        <ele>401</ele>
        <time>2012-08-04T06:07:15Z</time>
      </trkpt>
      <trkpt lat="45.67475" lon="4.67876">
        <ele>399</ele>
        <time>2012-08-04T06:07:22Z</time>
      </trkpt>
      <trkpt lat="45.67459" lon="4.67853">
        <ele>398</ele>
        <time>2012-08-04T06:07:27Z</time>
      </trkpt>
      <trkpt lat="45.67456" lon="4.67849">
        <ele>398</ele>
        <time>2012-08-04T06:07:28Z</time>
      </trkpt>
      <trkpt lat="45.67438" lon="4.67821">
        <ele>398</ele>
        <time>2012-08-04T06:07:35Z</time>
      </trkpt>
      <trkpt lat="45.67424" lon="4.678">
        <ele>399</ele>
        <time>2012-08-04T06:07:42Z</time>
      </trkpt>
      <trkpt lat="45.67409" lon="4.67807">
        <ele>399</ele>
        <time>2012-08-04T06:07:48Z</time>
      </trkpt>
      <trkpt lat="45.67393" lon="4.6782">
        <ele>401</ele>
        <time>2012-08-04T06:07:56Z</time>
      </trkpt>
      <trkpt lat="45.6738" lon="4.67829">
        <ele>401</ele>
        <time>2012-08-04T06:08:02Z</time>
      </trkpt>
      <trkpt lat="45.67368" lon="4.67847">
        <ele>402</ele>
        <time>2012-08-04T06:08:09Z</time>
      </trkpt>
      <trkpt lat="45.67356" lon="4.6787">
        <ele>402</ele>
        <time>2012-08-04T06:08:17Z</time>
      </trkpt>
      <trkpt lat="45.67345" lon="4.67896">
        <ele>404</ele>
        <time>2012-08-04T06:08:25Z</time>
      </trkpt>
      <trkpt lat="45.67331" lon="4.67925">
        <ele>404</ele>
        <time>2012-08-04T06:08:34Z</time>
      </trkpt>
      <trkpt lat="45.67315" lon="4.67959">
        <ele>404</ele>
        <time>2012-08-04T06:08:44Z</time>
      </trkpt>
      <trkpt lat="45.67301" lon="4.67976">
        <ele>404</ele>
        <time>2012-08-04T06:08:50Z</time>
      </trkpt>
      <trkpt lat="45.67285" lon="4.6799">
        <ele>404</ele>
        <time>2012-08-04T06:08:56Z</time>
      </trkpt>
      <trkpt lat="45.67267" lon="4.67991">
        <ele>403</ele>
        <time>2012-08-04T06:09:03Z</time>
      </trkpt>
      <trkpt lat="45.67259" lon="4.6799">
        <ele>403</ele>
        <time>2012-08-04T06:09:06Z</time>
      </trkpt>
      <trkpt lat="45.67256" lon="4.67992">
        <ele>403</ele>
        <time>2012-08-04T06:09:07Z</time>
      </trkpt>
      <trkpt lat="45.67254" lon="4.67996">
        <ele>403</ele>
        <time>2012-08-04T06:09:08Z</time>
      </trkpt>
      <trkpt lat="45.67253" lon="4.68001">
        <ele>402</ele>
        <time>2012-08-04T06:09:09Z</time>
      </trkpt>
      <trkpt lat="45.67252" lon="4.68005">
        <ele>403</ele>
        <time>2012-08-04T06:09:10Z</time>
      </trkpt>
      <trkpt lat="45.6725" lon="4.6801">
        <ele>403</ele>
        <time>2012-08-04T06:09:11Z</time>
      </trkpt>
      <trkpt lat="45.67248" lon="4.68015">
        <ele>402</ele>
        <time>2012-08-04T06:09:12Z</time>
      </trkpt>
      <trkpt lat="45.67246" lon="4.68021">
        <ele>402</ele>
        <time>2012-08-04T06:09:13Z</time>
      </trkpt>
      <trkpt lat="45.67243" lon="4.68029">
        <ele>401</ele>
        <time>2012-08-04T06:09:14Z</time>
      </trkpt>
      <trkpt lat="45.67236" lon="4.68055">
        <ele>400</ele>
        <time>2012-08-04T06:09:17Z</time>
      </trkpt>
      <trkpt lat="45.67226" lon="4.6809">
        <ele>398</ele>
        <time>2012-08-04T06:09:22Z</time>
      </trkpt>
      <trkpt lat="45.67225" lon="4.68092">
        <ele>398</ele>
        <time>2012-08-04T06:09:23Z</time>
      </trkpt>
      <trkpt lat="45.67223" lon="4.68092">
        <ele>397</ele>
        <time>2012-08-04T06:09:24Z</time>
      </trkpt>
      <trkpt lat="45.67221" lon="4.68091">
        <ele>398</ele>
        <time>2012-08-04T06:09:25Z</time>
      </trkpt>
      <trkpt lat="45.6722" lon="4.68089">
        <ele>398</ele>
        <time>2012-08-04T06:09:26Z</time>
      </trkpt>
      <trkpt lat="45.67219" lon="4.68087">
        <ele>398</ele>
        <time>2012-08-04T06:09:27Z</time>
      </trkpt>
      <trkpt lat="45.67218" lon="4.68083">
        <ele>398</ele>
        <time>2012-08-04T06:09:28Z</time>
      </trkpt>
      <trkpt lat="45.67208" lon="4.68055">
        <ele>400</ele>
        <time>2012-08-04T06:09:36Z</time>
      </trkpt>
      <trkpt lat="45.67198" lon="4.68023">
        <ele>401</ele>
        <time>2012-08-04T06:09:45Z</time>
      </trkpt>
      <trkpt lat="45.67188" lon="4.67992">
        <ele>402</ele>
        <time>2012-08-04T06:09:54Z</time>
      </trkpt>
      <trkpt lat="45.67179" lon="4.67954">
        <ele>403</ele>
        <time>2012-08-04T06:10:05Z</time>
      </trkpt>
      <trkpt lat="45.6717" lon="4.6792">
        <ele>404</ele>
        <time>2012-08-04T06:10:15Z</time>
      </trkpt>
      <trkpt lat="45.67161" lon="4.67888">
        <ele>406</ele>
        <time>2012-08-04T06:10:25Z</time>
      </trkpt>
      <trkpt lat="45.67157" lon="4.67855">
        <ele>408</ele>
        <time>2012-08-04T06:10:35Z</time>
      </trkpt>
      <trkpt lat="45.67152" lon="4.67822">
        <ele>410</ele>
        <time>2012-08-04T06:10:45Z</time>
      </trkpt>
      <trkpt lat="45.67148" lon="4.67792">
        <ele>410</ele>
        <time>2012-08-04T06:10:54Z</time>
      </trkpt>
      <trkpt lat="45.67147" lon="4.67763">
        <ele>412</ele>
        <time>2012-08-04T06:11:03Z</time>
      </trkpt>
      <trkpt lat="45.67148" lon="4.6773">
        <ele>413</ele>
        <time>2012-08-04T06:11:13Z</time>
      </trkpt>
      <trkpt lat="45.67143" lon="4.67702">
        <ele>414</ele>
        <time>2012-08-04T06:11:22Z</time>
      </trkpt>
      <trkpt lat="45.67134" lon="4.67679">
        <ele>415</ele>
        <time>2012-08-04T06:11:30Z</time>
      </trkpt>
      <trkpt lat="45.67125" lon="4.67654">
        <ele>416</ele>
        <time>2012-08-04T06:11:39Z</time>
      </trkpt>
      <trkpt lat="45.67119" lon="4.6763">
        <ele>416</ele>
        <time>2012-08-04T06:11:46Z</time>
      </trkpt>
      <trkpt lat="45.67122" lon="4.67602">
        <ele>416</ele>
        <time>2012-08-04T06:11:54Z</time>
      </trkpt>
      <trkpt lat="45.67123" lon="4.67562">
        <ele>415</ele>
        <time>2012-08-04T06:12:04Z</time>
      </trkpt>
      <trkpt lat="45.67113" lon="4.67514">
        <ele>416</ele>
        <time>2012-08-04T06:12:15Z</time>
      </trkpt>
      <trkpt lat="45.67101" lon="4.6748">
        <ele>416</ele>
        <time>2012-08-04T06:12:24Z</time>
      </trkpt>
      <trkpt lat="45.67085" lon="4.67436">
        <ele>418</ele>
        <time>2012-08-04T06:12:37Z</time>
      </trkpt>
      <trkpt lat="45.67075" lon="4.67415">
        <ele>420</ele>
        <time>2012-08-04T06:12:44Z</time>
      </trkpt>
      <trkpt lat="45.6706" lon="4.67386">
        <ele>421</ele>
        <time>2012-08-04T06:12:53Z</time>
      </trkpt>
      <trkpt lat="45.67047" lon="4.67359">
        <ele>421</ele>
        <time>2012-08-04T06:13:01Z</time>
      </trkpt>
      <trkpt lat="45.67035" lon="4.67321">
        <ele>421</ele>
        <time>2012-08-04T06:13:11Z</time>
      </trkpt>
      <trkpt lat="45.67028" lon="4.67288">
        <ele>423</ele>
        <time>2012-08-04T06:13:20Z</time>
      </trkpt>
      <trkpt lat="45.67014" lon="4.67257">
        <ele>422</ele>
        <time>2012-08-04T06:13:28Z</time>
      </trkpt>
      <trkpt lat="45.66993" lon="4.67226">
        <ele>421</ele>
        <time>2012-08-04T06:13:36Z</time>
      </trkpt>
      <trkpt lat="45.6699" lon="4.6722">
        <ele>421</ele>
        <time>2012-08-04T06:13:37Z</time>
      </trkpt>
      <trkpt lat="45.66988" lon="4.67214">
        <ele>421</ele>
        <time>2012-08-04T06:13:38Z</time>
      </trkpt>
      <trkpt lat="45.66976" lon="4.67166">
        <ele>421</ele>
        <time>2012-08-04T06:13:46Z</time>
      </trkpt>
      <trkpt lat="45.66965" lon="4.67127">
        <ele>420</ele>
        <time>2012-08-04T06:13:55Z</time>
      </trkpt>
      <trkpt lat="45.66953" lon="4.67122">
        <ele>421</ele>
        <time>2012-08-04T06:13:59Z</time>
      </trkpt>
      <trkpt lat="45.66945" lon="4.67122">
        <ele>422</ele>
        <time>2012-08-04T06:14:02Z</time>
      </trkpt>
      <trkpt lat="45.66943" lon="4.6712">
        <ele>422</ele>
        <time>2012-08-04T06:14:03Z</time>
      </trkpt>
      <trkpt lat="45.66941" lon="4.67116">
        <ele>422</ele>
        <time>2012-08-04T06:14:04Z</time>
      </trkpt>
      <trkpt lat="45.66939" lon="4.67113">
        <ele>421</ele>
        <time>2012-08-04T06:14:05Z</time>
      </trkpt>
      <trkpt lat="45.66938" lon="4.6711">
        <ele>422</ele>
        <time>2012-08-04T06:14:06Z</time>
      </trkpt>
      <trkpt lat="45.66932" lon="4.67091">
        <ele>424</ele>
        <time>2012-08-04T06:14:12Z</time>
      </trkpt>
      <trkpt lat="45.66922" lon="4.67064">
        <ele>426</ele>
        <time>2012-08-04T06:14:20Z</time>
      </trkpt>
      <trkpt lat="45.66908" lon="4.67036">
        <ele>426</ele>
        <time>2012-08-04T06:14:29Z</time>
      </trkpt>
      <trkpt lat="45.66897" lon="4.6701">
        <ele>426</ele>
        <time>2012-08-04T06:14:36Z</time>
      </trkpt>
      <trkpt lat="45.66881" lon="4.66977">
        <ele>427</ele>
        <time>2012-08-04T06:14:46Z</time>
      </trkpt>
      <trkpt lat="45.6687" lon="4.66953">
        <ele>429</ele>
        <time>2012-08-04T06:14:54Z</time>
      </trkpt>
      <trkpt lat="45.66855" lon="4.66928">
        <ele>429</ele>
        <time>2012-08-04T06:15:03Z</time>
      </trkpt>
      <trkpt lat="45.66846" lon="4.66912">
        <ele>430</ele>
        <time>2012-08-04T06:15:09Z</time>
      </trkpt>
      <trkpt lat="45.66841" lon="4.66895">
        <ele>431</ele>
        <time>2012-08-04T06:15:15Z</time>
      </trkpt>
      <trkpt lat="45.6683" lon="4.66873">
        <ele>431</ele>
        <time>2012-08-04T06:15:22Z</time>
      </trkpt>
      <trkpt lat="45.66818" lon="4.66854">
        <ele>432</ele>
        <time>2012-08-04T06:15:29Z</time>
      </trkpt>
      <trkpt lat="45.66809" lon="4.66844">
        <ele>433</ele>
        <time>2012-08-04T06:15:34Z</time>
      </trkpt>
      <trkpt lat="45.66807" lon="4.66844">
        <ele>432</ele>
        <time>2012-08-04T06:15:35Z</time>
      </trkpt>
      <trkpt lat="45.66806" lon="4.66843">
        <ele>433</ele>
        <time>2012-08-04T06:15:36Z</time>
      </trkpt>
      <trkpt lat="45.66795" lon="4.66827">
        <ele>433</ele>
        <time>2012-08-04T06:15:43Z</time>
      </trkpt>
      <trkpt lat="45.66783" lon="4.6681">
        <ele>435</ele>
        <time>2012-08-04T06:15:51Z</time>
      </trkpt>
      <trkpt lat="45.66773" lon="4.66797">
        <ele>436</ele>
        <time>2012-08-04T06:15:57Z</time>
      </trkpt>
      <trkpt lat="45.66764" lon="4.66787">
        <ele>436</ele>
        <time>2012-08-04T06:16:04Z</time>
      </trkpt>
      <trkpt lat="45.66755" lon="4.66774">
        <ele>438</ele>
        <time>2012-08-04T06:16:12Z</time>
      </trkpt>
      <trkpt lat="45.66747" lon="4.66762">
        <ele>441</ele>
        <time>2012-08-04T06:16:18Z</time>
      </trkpt>
      <trkpt lat="45.66745" lon="4.66761">
        <ele>440</ele>
        <time>2012-08-04T06:16:19Z</time>
      </trkpt>
      <trkpt lat="45.66744" lon="4.6676">
        <ele>442</ele>
        <time>2012-08-04T06:16:20Z</time>
      </trkpt>
      <trkpt lat="45.66743" lon="4.66758">
        <ele>441</ele>
        <time>2012-08-04T06:16:21Z</time>
      </trkpt>
      <trkpt lat="45.66742" lon="4.66756">
        <ele>442</ele>
        <time>2012-08-04T06:16:22Z</time>
      </trkpt>
      <trkpt lat="45.6674" lon="4.66755">
        <ele>442</ele>
        <time>2012-08-04T06:16:23Z</time>
      </trkpt>
      <trkpt lat="45.66739" lon="4.66753">
        <ele>443</ele>
        <time>2012-08-04T06:16:24Z</time>
      </trkpt>
      <trkpt lat="45.66738" lon="4.66751">
        <ele>443</ele>
        <time>2012-08-04T06:16:25Z</time>
      </trkpt>
      <trkpt lat="45.66737" lon="4.6675">
        <ele>443</ele>
        <time>2012-08-04T06:16:26Z</time>
      </trkpt>
      <trkpt lat="45.66736" lon="4.66749">
        <ele>443</ele>
        <time>2012-08-04T06:16:27Z</time>
      </trkpt>
      <trkpt lat="45.66734" lon="4.66748">
        <ele>444</ele>
        <time>2012-08-04T06:16:29Z</time>
      </trkpt>
      <trkpt lat="45.66734" lon="4.6675">
        <ele>444</ele>
        <time>2012-08-04T06:16:30Z</time>
      </trkpt>
      <trkpt lat="45.66734" lon="4.66752">
        <ele>444</ele>
        <time>2012-08-04T06:16:31Z</time>
      </trkpt>
      <trkpt lat="45.66734" lon="4.66755">
        <ele>444</ele>
        <time>2012-08-04T06:16:32Z</time>
      </trkpt>
      <trkpt lat="45.66734" lon="4.66757">
        <ele>444</ele>
        <time>2012-08-04T06:16:33Z</time>
      </trkpt>
      <trkpt lat="45.66734" lon="4.66759">
        <ele>445</ele>
        <time>2012-08-04T06:16:34Z</time>
      </trkpt>
      <trkpt lat="45.66733" lon="4.66761">
        <ele>444</ele>
        <time>2012-08-04T06:16:35Z</time>
      </trkpt>
      <trkpt lat="45.6673" lon="4.66778">
        <ele>445</ele>
        <time>2012-08-04T06:16:42Z</time>
      </trkpt>
      <trkpt lat="45.66726" lon="4.66796">
        <ele>445</ele>
        <time>2012-08-04T06:16:50Z</time>
      </trkpt>
      <trkpt lat="45.66722" lon="4.66808">
        <ele>445</ele>
        <time>2012-08-04T06:16:55Z</time>
      </trkpt>
      <trkpt lat="45.66721" lon="4.6681">
        <ele>445</ele>
        <time>2012-08-04T06:16:56Z</time>
      </trkpt>
      <trkpt lat="45.66713" lon="4.66829">
        <ele>445</ele>
        <time>2012-08-04T06:17:04Z</time>
      </trkpt>
      <trkpt lat="45.66702" lon="4.66843">
        <ele>445</ele>
        <time>2012-08-04T06:17:11Z</time>
      </trkpt>
      <trkpt lat="45.66686" lon="4.66858">
        <ele>445</ele>
        <time>2012-08-04T06:17:19Z</time>
      </trkpt>
      <trkpt lat="45.66672" lon="4.66855">
        <ele>445</ele>
        <time>2012-08-04T06:17:24Z</time>
      </trkpt>
      <trkpt lat="45.66658" lon="4.6683">
        <ele>447</ele>
        <time>2012-08-04T06:17:32Z</time>
      </trkpt>
      <trkpt lat="45.66648" lon="4.66798">
        <ele>448</ele>
        <time>2012-08-04T06:17:42Z</time>
      </trkpt>
      <trkpt lat="45.66645" lon="4.66762">
        <ele>449</ele>
        <time>2012-08-04T06:17:52Z</time>
      </trkpt>
      <trkpt lat="45.66634" lon="4.66729">
        <ele>449</ele>
        <time>2012-08-04T06:18:01Z</time>
      </trkpt>
      <trkpt lat="45.66622" lon="4.66697">
        <ele>450</ele>
        <time>2012-08-04T06:18:10Z</time>
      </trkpt>
      <trkpt lat="45.66608" lon="4.66672">
        <ele>451</ele>
        <time>2012-08-04T06:18:19Z</time>
      </trkpt>
      <trkpt lat="45.66587" lon="4.66652">
        <ele>453</ele>
        <time>2012-08-04T06:18:29Z</time>
      </trkpt>
      <trkpt lat="45.66564" lon="4.66635">
        <ele>454</ele>
        <time>2012-08-04T06:18:38Z</time>
      </trkpt>
      <trkpt lat="45.66536" lon="4.66616">
        <ele>455</ele>
        <time>2012-08-04T06:18:49Z</time>
      </trkpt>
      <trkpt lat="45.66515" lon="4.666">
        <ele>455</ele>
        <time>2012-08-04T06:18:57Z</time>
      </trkpt>
      <trkpt lat="45.66494" lon="4.6658">
        <ele>455</ele>
        <time>2012-08-04T06:19:05Z</time>
      </trkpt>
      <trkpt lat="45.66472" lon="4.66575">
        <ele>455</ele>
        <time>2012-08-04T06:19:12Z</time>
      </trkpt>
      <trkpt lat="45.66447" lon="4.66582">
        <ele>455</ele>
        <time>2012-08-04T06:19:19Z</time>
      </trkpt>
      <trkpt lat="45.66413" lon="4.6659">
        <ele>455</ele>
        <time>2012-08-04T06:19:29Z</time>
      </trkpt>
      <trkpt lat="45.66385" lon="4.66588">
        <ele>456</ele>
        <time>2012-08-04T06:19:37Z</time>
      </trkpt>
      <trkpt lat="45.66346" lon="4.66584">
        <ele>456</ele>
        <time>2012-08-04T06:19:49Z</time>
      </trkpt>
      <trkpt lat="45.66331" lon="4.66603">
        <ele>455</ele>
        <time>2012-08-04T06:19:55Z</time>
      </trkpt>
      <trkpt lat="45.66319" lon="4.66617">
        <ele>456</ele>
        <time>2012-08-04T06:20:00Z</time>
      </trkpt>
      <trkpt lat="45.66317" lon="4.66616">
        <ele>456</ele>
        <time>2012-08-04T06:20:01Z</time>
      </trkpt>
      <trkpt lat="45.66314" lon="4.66614">
        <ele>456</ele>
        <time>2012-08-04T06:20:02Z</time>
      </trkpt>
      <trkpt lat="45.66311" lon="4.66611">
        <ele>456</ele>
        <time>2012-08-04T06:20:03Z</time>
      </trkpt>
      <trkpt lat="45.66309" lon="4.66608">
        <ele>456</ele>
        <time>2012-08-04T06:20:04Z</time>
      </trkpt>
      <trkpt lat="45.66296" lon="4.66599">
        <ele>458</ele>
        <time>2012-08-04T06:20:09Z</time>
      </trkpt>
      <trkpt lat="45.66279" lon="4.66594">
        <ele>458</ele>
        <time>2012-08-04T06:20:16Z</time>
      </trkpt>
      <trkpt lat="45.66276" lon="4.66591">
        <ele>459</ele>
        <time>2012-08-04T06:20:18Z</time>
      </trkpt>
      <trkpt lat="45.66276" lon="4.66588">
        <ele>458</ele>
        <time>2012-08-04T06:20:19Z</time>
      </trkpt>
      <trkpt lat="45.66277" lon="4.66586">
        <ele>459</ele>
        <time>2012-08-04T06:20:20Z</time>
      </trkpt>
      <trkpt lat="45.66278" lon="4.66583">
        <ele>459</ele>
        <time>2012-08-04T06:20:21Z</time>
      </trkpt>
      <trkpt lat="45.66279" lon="4.6658">
        <ele>459</ele>
        <time>2012-08-04T06:20:22Z</time>
      </trkpt>
      <trkpt lat="45.66279" lon="4.66577">
        <ele>459</ele>
        <time>2012-08-04T06:20:23Z</time>
      </trkpt>
      <trkpt lat="45.66279" lon="4.66574">
        <ele>459</ele>
        <time>2012-08-04T06:20:24Z</time>
      </trkpt>
      <trkpt lat="45.66279" lon="4.66571">
        <ele>459</ele>
        <time>2012-08-04T06:20:25Z</time>
      </trkpt>
      <trkpt lat="45.6628" lon="4.66568">
        <ele>460</ele>
        <time>2012-08-04T06:20:26Z</time>
      </trkpt>
      <trkpt lat="45.6628" lon="4.66529">
        <ele>461</ele>
        <time>2012-08-04T06:20:37Z</time>
      </trkpt>
      <trkpt lat="45.6628" lon="4.665">
        <ele>463</ele>
        <time>2012-08-04T06:20:46Z</time>
      </trkpt>
      <trkpt lat="45.66287" lon="4.66465">
        <ele>464</ele>
        <time>2012-08-04T06:20:57Z</time>
      </trkpt>
      <trkpt lat="45.66295" lon="4.66444">
        <ele>465</ele>
        <time>2012-08-04T06:21:05Z</time>
      </trkpt>
      <trkpt lat="45.663" lon="4.66424">
        <ele>466</ele>
        <time>2012-08-04T06:21:13Z</time>
      </trkpt>
      <trkpt lat="45.66299" lon="4.66419">
        <ele>468</ele>
        <time>2012-08-04T06:21:15Z</time>
      </trkpt>
      <trkpt lat="45.66298" lon="4.66418">
        <ele>468</ele>
        <time>2012-08-04T06:21:16Z</time>
      </trkpt>
      <trkpt lat="45.66296" lon="4.66416">
        <ele>468</ele>
        <time>2012-08-04T06:21:17Z</time>
      </trkpt>
      <trkpt lat="45.66294" lon="4.66415">
        <ele>469</ele>
        <time>2012-08-04T06:21:18Z</time>
      </trkpt>
      <trkpt lat="45.66292" lon="4.66415">
        <ele>468</ele>
        <time>2012-08-04T06:21:19Z</time>
      </trkpt>
      <trkpt lat="45.66291" lon="4.66414">
        <ele>469</ele>
        <time>2012-08-04T06:21:20Z</time>
      </trkpt>
      <trkpt lat="45.66278" lon="4.66408">
        <ele>470</ele>
        <time>2012-08-04T06:21:27Z</time>
      </trkpt>
      <trkpt lat="45.66259" lon="4.66398">
        <ele>471</ele>
        <time>2012-08-04T06:21:36Z</time>
      </trkpt>
      <trkpt lat="45.66241" lon="4.66386">
        <ele>471</ele>
        <time>2012-08-04T06:21:45Z</time>
      </trkpt>
      <trkpt lat="45.66231" lon="4.66378">
        <ele>473</ele>
        <time>2012-08-04T06:21:51Z</time>
      </trkpt>
      <trkpt lat="45.66222" lon="4.66365">
        <ele>474</ele>
        <time>2012-08-04T06:21:58Z</time>
      </trkpt>
      <trkpt lat="45.6622" lon="4.66364">
        <ele>474</ele>
        <time>2012-08-04T06:21:59Z</time>
      </trkpt>
      <trkpt lat="45.6621" lon="4.66351">
        <ele>475</ele>
        <time>2012-08-04T06:22:07Z</time>
      </trkpt>
      <trkpt lat="45.66208" lon="4.6635">
        <ele>475</ele>
        <time>2012-08-04T06:22:08Z</time>
      </trkpt>
      <trkpt lat="45.66199" lon="4.66338">
        <ele>477</ele>
        <time>2012-08-04T06:22:14Z</time>
      </trkpt>
      <trkpt lat="45.66194" lon="4.66332">
        <ele>478</ele>
        <time>2012-08-04T06:22:18Z</time>
      </trkpt>
      <trkpt lat="45.66185" lon="4.66325">
        <ele>480</ele>
        <time>2012-08-04T06:22:25Z</time>
      </trkpt>
      <trkpt lat="45.66175" lon="4.66318">
        <ele>482</ele>
        <time>2012-08-04T06:22:32Z</time>
      </trkpt>
      <trkpt lat="45.66174" lon="4.66317">
        <ele>483</ele>
        <time>2012-08-04T06:22:34Z</time>
      </trkpt>
      <trkpt lat="45.66172" lon="4.66316">
        <ele>483</ele>
        <time>2012-08-04T06:22:36Z</time>
      </trkpt>
      <trkpt lat="45.6617" lon="4.66315">
        <ele>483</ele>
        <time>2012-08-04T06:22:37Z</time>
      </trkpt>
      <trkpt lat="45.66155" lon="4.66304">
        <ele>485</ele>
        <time>2012-08-04T06:22:48Z</time>
      </trkpt>
      <trkpt lat="45.66145" lon="4.66298">
        <ele>487</ele>
        <time>2012-08-04T06:22:55Z</time>
      </trkpt>
      <trkpt lat="45.66133" lon="4.6629">
        <ele>488</ele>
        <time>2012-08-04T06:23:02Z</time>
      </trkpt>
      <trkpt lat="45.66127" lon="4.66286">
        <ele>489</ele>
        <time>2012-08-04T06:23:06Z</time>
      </trkpt>
      <trkpt lat="45.66117" lon="4.66276">
        <ele>491</ele>
        <time>2012-08-04T06:23:14Z</time>
      </trkpt>
      <trkpt lat="45.66107" lon="4.6627">
        <ele>493</ele>
        <time>2012-08-04T06:23:22Z</time>
      </trkpt>
      <trkpt lat="45.66103" lon="4.66268">
        <ele>493</ele>
        <time>2012-08-04T06:23:25Z</time>
      </trkpt>
      <trkpt lat="45.66102" lon="4.66267">
        <ele>493</ele>
        <time>2012-08-04T06:23:26Z</time>
      </trkpt>
      <trkpt lat="45.66101" lon="4.66266">
        <ele>493</ele>
        <time>2012-08-04T06:23:27Z</time>
      </trkpt>
      <trkpt lat="45.661" lon="4.66265">
        <ele>494</ele>
        <time>2012-08-04T06:23:28Z</time>
      </trkpt>
      <trkpt lat="45.66099" lon="4.66264">
        <ele>493</ele>
        <time>2012-08-04T06:23:29Z</time>
      </trkpt>
      <trkpt lat="45.66098" lon="4.66264">
        <ele>494</ele>
        <time>2012-08-04T06:23:30Z</time>
      </trkpt>
      <trkpt lat="45.66096" lon="4.66263">
        <ele>494</ele>
        <time>2012-08-04T06:23:31Z</time>
      </trkpt>
      <trkpt lat="45.66084" lon="4.66253">
        <ele>496</ele>
        <time>2012-08-04T06:23:41Z</time>
      </trkpt>
      <trkpt lat="45.66074" lon="4.66243">
        <ele>497</ele>
        <time>2012-08-04T06:23:49Z</time>
      </trkpt>
      <trkpt lat="45.6607" lon="4.66239">
        <ele>498</ele>
        <time>2012-08-04T06:23:53Z</time>
      </trkpt>
      <trkpt lat="45.66066" lon="4.6622">
        <ele>498</ele>
        <time>2012-08-04T06:24:03Z</time>
      </trkpt>
      <trkpt lat="45.66063" lon="4.66198">
        <ele>499</ele>
        <time>2012-08-04T06:24:13Z</time>
      </trkpt>
      <trkpt lat="45.66057" lon="4.66171">
        <ele>500</ele>
        <time>2012-08-04T06:24:23Z</time>
      </trkpt>
      <trkpt lat="45.66052" lon="4.66153">
        <ele>500</ele>
        <time>2012-08-04T06:24:30Z</time>
      </trkpt>
      <trkpt lat="45.66048" lon="4.66129">
        <ele>500</ele>
        <time>2012-08-04T06:24:38Z</time>
      </trkpt>
      <trkpt lat="45.6604" lon="4.66097">
        <ele>502</ele>
        <time>2012-08-04T06:24:49Z</time>
      </trkpt>
      <trkpt lat="45.66035" lon="4.66071">
        <ele>502</ele>
        <time>2012-08-04T06:24:58Z</time>
      </trkpt>
      <trkpt lat="45.66028" lon="4.66047">
        <ele>503</ele>
        <time>2012-08-04T06:25:07Z</time>
      </trkpt>
      <trkpt lat="45.6602" lon="4.66019">
        <ele>503</ele>
        <time>2012-08-04T06:25:16Z</time>
      </trkpt>
      <trkpt lat="45.66014" lon="4.66007">
        <ele>503</ele>
        <time>2012-08-04T06:25:23Z</time>
      </trkpt>
      <trkpt lat="45.66012" lon="4.66004">
        <ele>502</ele>
        <time>2012-08-04T06:25:32Z</time>
      </trkpt>
      <trkpt lat="45.66011" lon="4.66005">
        <ele>503</ele>
        <time>2012-08-04T06:25:50Z</time>
      </trkpt>
      <trkpt lat="45.6601" lon="4.66004">
        <ele>503</ele>
        <time>2012-08-04T06:26:04Z</time>
      </trkpt>
      <trkpt lat="45.6601" lon="4.66002">
        <ele>502</ele>
        <time>2012-08-04T06:26:15Z</time>
      </trkpt>
      <trkpt lat="45.66009" lon="4.66">
        <ele>503</ele>
        <time>2012-08-04T06:26:18Z</time>
      </trkpt>
      <trkpt lat="45.66008" lon="4.66">
        <ele>502</ele>
        <time>2012-08-04T06:26:19Z</time>
      </trkpt>
      <trkpt lat="45.66006" lon="4.66">
        <ele>502</ele>
        <time>2012-08-04T06:26:20Z</time>
      </trkpt>
      <trkpt lat="45.66003" lon="4.66">
        <ele>502</ele>
        <time>2012-08-04T06:26:21Z</time>
      </trkpt>
      <trkpt lat="45.65999" lon="4.66001">
        <ele>501</ele>
        <time>2012-08-04T06:26:22Z</time>
      </trkpt>
      <trkpt lat="45.65994" lon="4.66002">
        <ele>501</ele>
        <time>2012-08-04T06:26:23Z</time>
      </trkpt>
      <trkpt lat="45.65989" lon="4.66004">
        <ele>500</ele>
        <time>2012-08-04T06:26:24Z</time>
      </trkpt>
      <trkpt lat="45.65985" lon="4.66006">
        <ele>500</ele>
        <time>2012-08-04T06:26:25Z</time>
      </trkpt>
      <trkpt lat="45.65963" lon="4.66012">
        <ele>498</ele>
        <time>2012-08-04T06:26:31Z</time>
      </trkpt>
      <trkpt lat="45.65944" lon="4.6601">
        <ele>496</ele>
        <time>2012-08-04T06:26:36Z</time>
      </trkpt>
      <trkpt lat="45.65933" lon="4.66009">
        <ele>495</ele>
        <time>2012-08-04T06:26:39Z</time>
      </trkpt>
      <trkpt lat="45.65914" lon="4.66004">
        <ele>494</ele>
        <time>2012-08-04T06:26:45Z</time>
      </trkpt>
      <trkpt lat="45.65897" lon="4.66002">
        <ele>492</ele>
        <time>2012-08-04T06:26:51Z</time>
      </trkpt>
      <trkpt lat="45.65881" lon="4.65996">
        <ele>491</ele>
        <time>2012-08-04T06:26:56Z</time>
      </trkpt>
      <trkpt lat="45.65858" lon="4.65999">
        <ele>488</ele>
        <time>2012-08-04T06:27:00Z</time>
      </trkpt>
      <trkpt lat="45.65846" lon="4.66003">
        <ele>487</ele>
        <time>2012-08-04T06:27:02Z</time>
      </trkpt>
      <trkpt lat="45.65824" lon="4.66004">
        <ele>486</ele>
        <time>2012-08-04T06:27:06Z</time>
      </trkpt>
      <trkpt lat="45.6581" lon="4.66001">
        <ele>484</ele>
        <time>2012-08-04T06:27:09Z</time>
      </trkpt>
      <trkpt lat="45.65806" lon="4.66">
        <ele>483</ele>
        <time>2012-08-04T06:27:10Z</time>
      </trkpt>
      <trkpt lat="45.65797" lon="4.65999">
        <ele>481</ele>
        <time>2012-08-04T06:27:12Z</time>
      </trkpt>
      <trkpt lat="45.6578" lon="4.65995">
        <ele>480</ele>
        <time>2012-08-04T06:27:15Z</time>
      </trkpt>
      <trkpt lat="45.65764" lon="4.65991">
        <ele>477</ele>
        <time>2012-08-04T06:27:18Z</time>
      </trkpt>
      <trkpt lat="45.65752" lon="4.65989">
        <ele>476</ele>
        <time>2012-08-04T06:27:20Z</time>
      </trkpt>
      <trkpt lat="45.65736" lon="4.65986">
        <ele>473</ele>
        <time>2012-08-04T06:27:24Z</time>
      </trkpt>
      <trkpt lat="45.65732" lon="4.65985">
        <ele>473</ele>
        <time>2012-08-04T06:27:25Z</time>
      </trkpt>
      <trkpt lat="45.65709" lon="4.65987">
        <ele>470</ele>
        <time>2012-08-04T06:27:29Z</time>
      </trkpt>
      <trkpt lat="45.65703" lon="4.65988">
        <ele>469</ele>
        <time>2012-08-04T06:27:30Z</time>
      </trkpt>
      <trkpt lat="45.65691" lon="4.6599">
        <ele>468</ele>
        <time>2012-08-04T06:27:32Z</time>
      </trkpt>
      <trkpt lat="45.65684" lon="4.65992">
        <ele>466</ele>
        <time>2012-08-04T06:27:33Z</time>
      </trkpt>
      <trkpt lat="45.65659" lon="4.66007">
        <ele>463</ele>
        <time>2012-08-04T06:27:37Z</time>
      </trkpt>
      <trkpt lat="45.65641" lon="4.66029">
        <ele>460</ele>
        <time>2012-08-04T06:27:41Z</time>
      </trkpt>
      <trkpt lat="45.65624" lon="4.66054">
        <ele>457</ele>
        <time>2012-08-04T06:27:45Z</time>
      </trkpt>
      <trkpt lat="45.65613" lon="4.66069">
        <ele>455</ele>
        <time>2012-08-04T06:27:48Z</time>
      </trkpt>
      <trkpt lat="45.65608" lon="4.66079">
        <ele>453</ele>
        <time>2012-08-04T06:27:51Z</time>
      </trkpt>
      <trkpt lat="45.65599" lon="4.66094">
        <ele>451</ele>
        <time>2012-08-04T06:27:57Z</time>
      </trkpt>
      <trkpt lat="45.65596" lon="4.66098">
        <ele>451</ele>
        <time>2012-08-04T06:28:05Z</time>
      </trkpt>
      <trkpt lat="45.65593" lon="4.66097">
        <ele>451</ele>
        <time>2012-08-04T06:28:15Z</time>
      </trkpt>
      <trkpt lat="45.65592" lon="4.66099">
        <ele>451</ele>
        <time>2012-08-04T06:28:25Z</time>
      </trkpt>
      <trkpt lat="45.65593" lon="4.66099">
        <ele>451</ele>
        <time>2012-08-04T06:28:35Z</time>
      </trkpt>
      <trkpt lat="45.65594" lon="4.66101">
        <ele>451</ele>
        <time>2012-08-04T06:28:49Z</time>
      </trkpt>
      <trkpt lat="45.65591" lon="4.66101">
        <ele>451</ele>
        <time>2012-08-04T06:29:01Z</time>
      </trkpt>
      <trkpt lat="45.65591" lon="4.66097">
        <ele>451</ele>
        <time>2012-08-04T06:29:13Z</time>
      </trkpt>
      <trkpt lat="45.65587" lon="4.661">
        <ele>451</ele>
        <time>2012-08-04T06:29:25Z</time>
      </trkpt>
      <trkpt lat="45.65587" lon="4.66103">
        <ele>451</ele>
        <time>2012-08-04T06:29:39Z</time>
      </trkpt>
      <trkpt lat="45.65586" lon="4.66104">
        <ele>451</ele>
        <time>2012-08-04T06:29:49Z</time>
      </trkpt>
      <trkpt lat="45.65585" lon="4.66104">
        <ele>451</ele>
        <time>2012-08-04T06:29:57Z</time>
      </trkpt>
      <trkpt lat="45.65586" lon="4.66102">
        <ele>451</ele>
        <time>2012-08-04T06:30:07Z</time>
      </trkpt>
      <trkpt lat="45.65584" lon="4.66102">
        <ele>451</ele>
        <time>2012-08-04T06:30:16Z</time>
      </trkpt>
      <trkpt lat="45.65581" lon="4.66102">
        <ele>451</ele>
        <time>2012-08-04T06:30:23Z</time>
      </trkpt>
      <trkpt lat="45.65578" lon="4.66105">
        <ele>451</ele>
        <time>2012-08-04T06:30:31Z</time>
      </trkpt>
      <trkpt lat="45.65573" lon="4.66108">
        <ele>452</ele>
        <time>2012-08-04T06:30:38Z</time>
      </trkpt>
      <trkpt lat="45.65573" lon="4.6611">
        <ele>451</ele>
        <time>2012-08-04T06:30:46Z</time>
      </trkpt>
      <trkpt lat="45.65574" lon="4.66114">
        <ele>451</ele>
        <time>2012-08-04T06:30:58Z</time>
      </trkpt>
      <trkpt lat="45.65573" lon="4.66116">
        <ele>452</ele>
        <time>2012-08-04T06:31:06Z</time>
      </trkpt>
      <trkpt lat="45.6557" lon="4.66117">
        <ele>451</ele>
        <time>2012-08-04T06:31:14Z</time>
      </trkpt>
      <trkpt lat="45.65558" lon="4.66114">
        <ele>454</ele>
        <time>2012-08-04T06:31:22Z</time>
      </trkpt>
      <trkpt lat="45.65551" lon="4.66098">
        <ele>456</ele>
        <time>2012-08-04T06:31:30Z</time>
      </trkpt>
      <trkpt lat="45.65543" lon="4.6608">
        <ele>456</ele>
        <time>2012-08-04T06:31:39Z</time>
      </trkpt>
      <trkpt lat="45.65534" lon="4.66058">
        <ele>458</ele>
        <time>2012-08-04T06:31:50Z</time>
      </trkpt>
      <trkpt lat="45.65528" lon="4.66045">
        <ele>460</ele>
        <time>2012-08-04T06:31:57Z</time>
      </trkpt>
      <trkpt lat="45.65522" lon="4.66034">
        <ele>461</ele>
        <time>2012-08-04T06:32:05Z</time>
      </trkpt>
      <trkpt lat="45.6551" lon="4.66021">
        <ele>459</ele>
        <time>2012-08-04T06:32:11Z</time>
      </trkpt>
      <trkpt lat="45.65492" lon="4.66003">
        <ele>456</ele>
        <time>2012-08-04T06:32:17Z</time>
      </trkpt>
      <trkpt lat="45.65477" lon="4.65988">
        <ele>455</ele>
        <time>2012-08-04T06:32:22Z</time>
      </trkpt>
      <trkpt lat="45.65468" lon="4.65985">
        <ele>455</ele>
        <time>2012-08-04T06:32:25Z</time>
      </trkpt>
      <trkpt lat="45.65462" lon="4.6599">
        <ele>454</ele>
        <time>2012-08-04T06:32:29Z</time>
      </trkpt>
      <trkpt lat="45.65461" lon="4.66001">
        <ele>455</ele>
        <time>2012-08-04T06:32:37Z</time>
      </trkpt>
      <trkpt lat="45.65462" lon="4.66011">
        <ele>456</ele>
        <time>2012-08-04T06:32:44Z</time>
      </trkpt>
      <trkpt lat="45.65464" lon="4.66023">
        <ele>458</ele>
        <time>2012-08-04T06:32:51Z</time>
      </trkpt>
      <trkpt lat="45.65459" lon="4.66026">
        <ele>459</ele>
        <time>2012-08-04T06:32:54Z</time>
      </trkpt>
      <trkpt lat="45.65457" lon="4.66026">
        <ele>459</ele>
        <time>2012-08-04T06:32:55Z</time>
      </trkpt>
      <trkpt lat="45.65445" lon="4.66031">
        <ele>461</ele>
        <time>2012-08-04T06:33:04Z</time>
      </trkpt>
      <trkpt lat="45.65439" lon="4.66032">
        <ele>462</ele>
        <time>2012-08-04T06:33:12Z</time>
      </trkpt>
      <trkpt lat="45.65436" lon="4.66032">
        <ele>463</ele>
        <time>2012-08-04T06:33:19Z</time>
      </trkpt>
      <trkpt lat="45.65431" lon="4.66032">
        <ele>464</ele>
        <time>2012-08-04T06:33:30Z</time>
      </trkpt>
      <trkpt lat="45.65426" lon="4.66031">
        <ele>464</ele>
        <time>2012-08-04T06:33:34Z</time>
      </trkpt>
      <trkpt lat="45.65416" lon="4.66027">
        <ele>465</ele>
        <time>2012-08-04T06:33:43Z</time>
      </trkpt>
      <trkpt lat="45.65412" lon="4.66025">
        <ele>465</ele>
        <time>2012-08-04T06:33:50Z</time>
      </trkpt>
      <trkpt lat="45.65403" lon="4.66025">
        <ele>465</ele>
        <time>2012-08-04T06:33:59Z</time>
      </trkpt>
      <trkpt lat="45.65395" lon="4.66025">
        <ele>467</ele>
        <time>2012-08-04T06:34:05Z</time>
      </trkpt>
      <trkpt lat="45.6539" lon="4.66024">
        <ele>467</ele>
        <time>2012-08-04T06:34:12Z</time>
      </trkpt>
      <trkpt lat="45.65384" lon="4.66026">
        <ele>468</ele>
        <time>2012-08-04T06:34:20Z</time>
      </trkpt>
      <trkpt lat="45.65385" lon="4.66031">
        <ele>470</ele>
        <time>2012-08-04T06:34:29Z</time>
      </trkpt>
      <trkpt lat="45.65389" lon="4.66033">
        <ele>471</ele>
        <time>2012-08-04T06:34:37Z</time>
      </trkpt>
      <trkpt lat="45.65389" lon="4.66034">
        <ele>471</ele>
        <time>2012-08-04T06:34:38Z</time>
      </trkpt>
      <trkpt lat="45.65395" lon="4.6604">
        <ele>472</ele>
        <time>2012-08-04T06:34:46Z</time>
      </trkpt>
      <trkpt lat="45.65398" lon="4.66044">
        <ele>473</ele>
        <time>2012-08-04T06:34:55Z</time>
      </trkpt>
      <trkpt lat="45.65399" lon="4.66047">
        <ele>473</ele>
        <time>2012-08-04T06:35:03Z</time>
      </trkpt>
      <trkpt lat="45.65401" lon="4.66049">
        <ele>474</ele>
        <time>2012-08-04T06:35:06Z</time>
      </trkpt>
      <trkpt lat="45.65409" lon="4.6606">
        <ele>476</ele>
        <time>2012-08-04T06:35:14Z</time>
      </trkpt>
      <trkpt lat="45.65412" lon="4.66063">
        <ele>476</ele>
        <time>2012-08-04T06:35:18Z</time>
      </trkpt>
      <trkpt lat="45.65414" lon="4.66072">
        <ele>479</ele>
        <time>2012-08-04T06:35:24Z</time>
      </trkpt>
      <trkpt lat="45.65415" lon="4.66075">
        <ele>479</ele>
        <time>2012-08-04T06:35:26Z</time>
      </trkpt>
      <trkpt lat="45.65417" lon="4.66084">
        <ele>481</ele>
        <time>2012-08-04T06:35:30Z</time>
      </trkpt>
      <trkpt lat="45.65423" lon="4.66103">
        <ele>482</ele>
        <time>2012-08-04T06:35:39Z</time>
      </trkpt>
      <trkpt lat="45.65428" lon="4.66119">
        <ele>483</ele>
        <time>2012-08-04T06:35:46Z</time>
      </trkpt>
      <trkpt lat="45.65429" lon="4.66121">
        <ele>484</ele>
        <time>2012-08-04T06:35:47Z</time>
      </trkpt>
      <trkpt lat="45.6543" lon="4.66128">
        <ele>484</ele>
        <time>2012-08-04T06:35:50Z</time>
      </trkpt>
      <trkpt lat="45.65432" lon="4.66137">
        <ele>485</ele>
        <time>2012-08-04T06:35:54Z</time>
      </trkpt>
      <trkpt lat="45.65432" lon="4.66155">
        <ele>487</ele>
        <time>2012-08-04T06:36:03Z</time>
      </trkpt>
      <trkpt lat="45.65431" lon="4.66164">
        <ele>488</ele>
        <time>2012-08-04T06:36:10Z</time>
      </trkpt>
      <trkpt lat="45.65431" lon="4.66169">
        <ele>488</ele>
        <time>2012-08-04T06:36:13Z</time>
      </trkpt>
      <trkpt lat="45.6543" lon="4.66172">
        <ele>489</ele>
        <time>2012-08-04T06:36:15Z</time>
      </trkpt>
      <trkpt lat="45.65422" lon="4.66192">
        <ele>491</ele>
        <time>2012-08-04T06:36:22Z</time>
      </trkpt>
      <trkpt lat="45.65414" lon="4.662">
        <ele>491</ele>
        <time>2012-08-04T06:36:30Z</time>
      </trkpt>
      <trkpt lat="45.65406" lon="4.66206">
        <ele>494</ele>
        <time>2012-08-04T06:36:37Z</time>
      </trkpt>
      <trkpt lat="45.65401" lon="4.66204">
        <ele>494</ele>
        <time>2012-08-04T06:36:44Z</time>
      </trkpt>
      <trkpt lat="45.65397" lon="4.66202">
        <ele>495</ele>
        <time>2012-08-04T06:36:48Z</time>
      </trkpt>
      <trkpt lat="45.65385" lon="4.66197">
        <ele>496</ele>
        <time>2012-08-04T06:36:57Z</time>
      </trkpt>
      <trkpt lat="45.65384" lon="4.66196">
        <ele>496</ele>
        <time>2012-08-04T06:36:58Z</time>
      </trkpt>
      <trkpt lat="45.65377" lon="4.66188">
        <ele>498</ele>
        <time>2012-08-04T06:37:05Z</time>
      </trkpt>
      <trkpt lat="45.65369" lon="4.66181">
        <ele>498</ele>
        <time>2012-08-04T06:37:11Z</time>
      </trkpt>
      <trkpt lat="45.6536" lon="4.6617">
        <ele>500</ele>
        <time>2012-08-04T06:37:20Z</time>
      </trkpt>
      <trkpt lat="45.65352" lon="4.66162">
        <ele>501</ele>
        <time>2012-08-04T06:37:27Z</time>
      </trkpt>
      <trkpt lat="45.65341" lon="4.66156">
        <ele>503</ele>
        <time>2012-08-04T06:37:36Z</time>
      </trkpt>
      <trkpt lat="45.6533" lon="4.66152">
        <ele>505</ele>
        <time>2012-08-04T06:37:46Z</time>
      </trkpt>
      <trkpt lat="45.65322" lon="4.66152">
        <ele>508</ele>
        <time>2012-08-04T06:37:55Z</time>
      </trkpt>
      <trkpt lat="45.65315" lon="4.66153">
        <ele>509</ele>
        <time>2012-08-04T06:38:03Z</time>
      </trkpt>
      <trkpt lat="45.65303" lon="4.66157">
        <ele>511</ele>
        <time>2012-08-04T06:38:12Z</time>
      </trkpt>
      <trkpt lat="45.65292" lon="4.66162">
        <ele>512</ele>
        <time>2012-08-04T06:38:20Z</time>
      </trkpt>
      <trkpt lat="45.65282" lon="4.66168">
        <ele>513</ele>
        <time>2012-08-04T06:38:28Z</time>
      </trkpt>
      <trkpt lat="45.65276" lon="4.66174">
        <ele>515</ele>
        <time>2012-08-04T06:38:33Z</time>
      </trkpt>
      <trkpt lat="45.65268" lon="4.66178">
        <ele>516</ele>
        <time>2012-08-04T06:38:41Z</time>
      </trkpt>
      <trkpt lat="45.65266" lon="4.66179">
        <ele>517</ele>
        <time>2012-08-04T06:38:43Z</time>
      </trkpt>
      <trkpt lat="45.65257" lon="4.66181">
        <ele>518</ele>
        <time>2012-08-04T06:38:51Z</time>
      </trkpt>
      <trkpt lat="45.6525" lon="4.66183">
        <ele>518</ele>
        <time>2012-08-04T06:38:57Z</time>
      </trkpt>
      <trkpt lat="45.6524" lon="4.66185">
        <ele>520</ele>
        <time>2012-08-04T06:39:05Z</time>
      </trkpt>
      <trkpt lat="45.65232" lon="4.66186">
        <ele>521</ele>
        <time>2012-08-04T06:39:11Z</time>
      </trkpt>
      <trkpt lat="45.65218" lon="4.66187">
        <ele>522</ele>
        <time>2012-08-04T06:39:20Z</time>
      </trkpt>
      <trkpt lat="45.65206" lon="4.66184">
        <ele>523</ele>
        <time>2012-08-04T06:39:28Z</time>
      </trkpt>
      <trkpt lat="45.65197" lon="4.6618">
        <ele>525</ele>
        <time>2012-08-04T06:39:35Z</time>
      </trkpt>
      <trkpt lat="45.65194" lon="4.6618">
        <ele>525</ele>
        <time>2012-08-04T06:39:37Z</time>
      </trkpt>
      <trkpt lat="45.65183" lon="4.66176">
        <ele>527</ele>
        <time>2012-08-04T06:39:46Z</time>
      </trkpt>
      <trkpt lat="45.65177" lon="4.66174">
        <ele>527</ele>
        <time>2012-08-04T06:39:51Z</time>
      </trkpt>
      <trkpt lat="45.65168" lon="4.66174">
        <ele>529</ele>
        <time>2012-08-04T06:39:59Z</time>
      </trkpt>
      <trkpt lat="45.6516" lon="4.66174">
        <ele>529</ele>
        <time>2012-08-04T06:40:05Z</time>
      </trkpt>
      <trkpt lat="45.65143" lon="4.66177">
        <ele>530</ele>
        <time>2012-08-04T06:40:14Z</time>
      </trkpt>
      <trkpt lat="45.65126" lon="4.66179">
        <ele>531</ele>
        <time>2012-08-04T06:40:24Z</time>
      </trkpt>
      <trkpt lat="45.65119" lon="4.66182">
        <ele>532</ele>
        <time>2012-08-04T06:40:31Z</time>
      </trkpt>
      <trkpt lat="45.65114" lon="4.66184">
        <ele>532</ele>
        <time>2012-08-04T06:40:34Z</time>
      </trkpt>
      <trkpt lat="45.65108" lon="4.66187">
        <ele>531</ele>
        <time>2012-08-04T06:40:37Z</time>
      </trkpt>
      <trkpt lat="45.65089" lon="4.66202">
        <ele>531</ele>
        <time>2012-08-04T06:40:45Z</time>
      </trkpt>
      <trkpt lat="45.6507" lon="4.66216">
        <ele>533</ele>
        <time>2012-08-04T06:40:53Z</time>
      </trkpt>
      <trkpt lat="45.65055" lon="4.66234">
        <ele>533</ele>
        <time>2012-08-04T06:41:01Z</time>
      </trkpt>
      <trkpt lat="45.6504" lon="4.66252">
        <ele>534</ele>
        <time>2012-08-04T06:41:08Z</time>
      </trkpt>
      <trkpt lat="45.65027" lon="4.66268">
        <ele>535</ele>
        <time>2012-08-04T06:41:14Z</time>
      </trkpt>
      <trkpt lat="45.65025" lon="4.66269">
        <ele>534</ele>
        <time>2012-08-04T06:41:15Z</time>
      </trkpt>
      <trkpt lat="45.65023" lon="4.66269">
        <ele>534</ele>
        <time>2012-08-04T06:41:16Z</time>
      </trkpt>
      <trkpt lat="45.65021" lon="4.66268">
        <ele>535</ele>
        <time>2012-08-04T06:41:17Z</time>
      </trkpt>
      <trkpt lat="45.65019" lon="4.66268">
        <ele>536</ele>
        <time>2012-08-04T06:41:18Z</time>
      </trkpt>
      <trkpt lat="45.65016" lon="4.66267">
        <ele>536</ele>
        <time>2012-08-04T06:41:19Z</time>
      </trkpt>
      <trkpt lat="45.65002" lon="4.6626">
        <ele>537</ele>
        <time>2012-08-04T06:41:26Z</time>
      </trkpt>
      <trkpt lat="45.6498" lon="4.66249">
        <ele>538</ele>
        <time>2012-08-04T06:41:36Z</time>
      </trkpt>
      <trkpt lat="45.64961" lon="4.6624">
        <ele>540</ele>
        <time>2012-08-04T06:41:44Z</time>
      </trkpt>
      <trkpt lat="45.64936" lon="4.66226">
        <ele>541</ele>
        <time>2012-08-04T06:41:54Z</time>
      </trkpt>
      <trkpt lat="45.64921" lon="4.66213">
        <ele>541</ele>
        <time>2012-08-04T06:42:01Z</time>
      </trkpt>
      <trkpt lat="45.64906" lon="4.66204">
        <ele>542</ele>
        <time>2012-08-04T06:42:10Z</time>
      </trkpt>
      <trkpt lat="45.64906" lon="4.66206">
        <ele>542</ele>
        <time>2012-08-04T06:42:17Z</time>
      </trkpt>
      <trkpt lat="45.64906" lon="4.66205">
        <ele>542</ele>
        <time>2012-08-04T06:42:25Z</time>
      </trkpt>
      <trkpt lat="45.64906" lon="4.66205">
        <ele>542</ele>
        <time>2012-08-04T06:42:33Z</time>
      </trkpt>
      <trkpt lat="45.64907" lon="4.66202">
        <ele>542</ele>
        <time>2012-08-04T06:42:45Z</time>
      </trkpt>
      <trkpt lat="45.64906" lon="4.66203">
        <ele>542</ele>
        <time>2012-08-04T06:42:58Z</time>
      </trkpt>
      <trkpt lat="45.64906" lon="4.66204">
        <ele>542</ele>
        <time>2012-08-04T06:43:11Z</time>
      </trkpt>
      <trkpt lat="45.64905" lon="4.66204">
        <ele>542</ele>
        <time>2012-08-04T06:43:23Z</time>
      </trkpt>
      <trkpt lat="45.64905" lon="4.66205">
        <ele>542</ele>
        <time>2012-08-04T06:43:36Z</time>
      </trkpt>
      <trkpt lat="45.64905" lon="4.66207">
        <ele>542</ele>
        <time>2012-08-04T06:44:00Z</time>
      </trkpt>
      <trkpt lat="45.64906" lon="4.66205">
        <ele>542</ele>
        <time>2012-08-04T06:44:24Z</time>
      </trkpt>
      <trkpt lat="45.64905" lon="4.66203">
        <ele>542</ele>
        <time>2012-08-04T06:44:53Z</time>
      </trkpt>
      <trkpt lat="45.64905" lon="4.66202">
        <ele>543</ele>
        <time>2012-08-04T06:45:13Z</time>
      </trkpt>
      <trkpt lat="45.64907" lon="4.66203">
        <ele>542</ele>
        <time>2012-08-04T06:45:40Z</time>
      </trkpt>
      <trkpt lat="45.64906" lon="4.66204">
        <ele>542</ele>
        <time>2012-08-04T06:45:57Z</time>
      </trkpt>
      <trkpt lat="45.64905" lon="4.66205">
        <ele>542</ele>
        <time>2012-08-04T06:46:21Z</time>
      </trkpt>
      <trkpt lat="45.64905" lon="4.66206">
        <ele>543</ele>
        <time>2012-08-04T06:46:48Z</time>
      </trkpt>
      <trkpt lat="45.64905" lon="4.66206">
        <ele>542</ele>
        <time>2012-08-04T06:47:07Z</time>
      </trkpt>
      <trkpt lat="45.64905" lon="4.66204">
        <ele>542</ele>
        <time>2012-08-04T06:47:35Z</time>
      </trkpt>
      <trkpt lat="45.64905" lon="4.66202">
        <ele>542</ele>
        <time>2012-08-04T06:47:46Z</time>
      </trkpt>
      <trkpt lat="45.64904" lon="4.66197">
        <ele>543</ele>
        <time>2012-08-04T06:47:49Z</time>
      </trkpt>
      <trkpt lat="45.64901" lon="4.66182">
        <ele>542</ele>
        <time>2012-08-04T06:47:55Z</time>
      </trkpt>
      <trkpt lat="45.64902" lon="4.66175">
        <ele>543</ele>
        <time>2012-08-04T06:47:57Z</time>
      </trkpt>
      <trkpt lat="45.64913" lon="4.66154">
        <ele>544</ele>
        <time>2012-08-04T06:48:05Z</time>
      </trkpt>
      <trkpt lat="45.64923" lon="4.6614">
        <ele>544</ele>
        <time>2012-08-04T06:48:12Z</time>
      </trkpt>
      <trkpt lat="45.64943" lon="4.66113">
        <ele>544</ele>
        <time>2012-08-04T06:48:23Z</time>
      </trkpt>
      <trkpt lat="45.64957" lon="4.66093">
        <ele>544</ele>
        <time>2012-08-04T06:48:31Z</time>
      </trkpt>
      <trkpt lat="45.64975" lon="4.66069">
        <ele>543</ele>
        <time>2012-08-04T06:48:40Z</time>
      </trkpt>
      <trkpt lat="45.64995" lon="4.66039">
        <ele>543</ele>
        <time>2012-08-04T06:48:50Z</time>
      </trkpt>
      <trkpt lat="45.65007" lon="4.66007">
        <ele>542</ele>
        <time>2012-08-04T06:48:57Z</time>
      </trkpt>
      <trkpt lat="45.65008" lon="4.65995">
        <ele>542</ele>
        <time>2012-08-04T06:48:59Z</time>
      </trkpt>
      <trkpt lat="45.65007" lon="4.65989">
        <ele>542</ele>
        <time>2012-08-04T06:49:00Z</time>
      </trkpt>
      <trkpt lat="45.65004" lon="4.65984">
        <ele>542</ele>
        <time>2012-08-04T06:49:01Z</time>
      </trkpt>
      <trkpt lat="45.65" lon="4.65981">
        <ele>542</ele>
        <time>2012-08-04T06:49:02Z</time>
      </trkpt>
      <trkpt lat="45.64997" lon="4.65978">
        <ele>542</ele>
        <time>2012-08-04T06:49:03Z</time>
      </trkpt>
      <trkpt lat="45.64993" lon="4.65977">
        <ele>541</ele>
        <time>2012-08-04T06:49:04Z</time>
      </trkpt>
      <trkpt lat="45.64989" lon="4.65975">
        <ele>542</ele>
        <time>2012-08-04T06:49:05Z</time>
      </trkpt>
      <trkpt lat="45.64985" lon="4.65975">
        <ele>541</ele>
        <time>2012-08-04T06:49:06Z</time>
      </trkpt>
      <trkpt lat="45.64981" lon="4.65977">
        <ele>541</ele>
        <time>2012-08-04T06:49:07Z</time>
      </trkpt>
      <trkpt lat="45.64977" lon="4.65979">
        <ele>541</ele>
        <time>2012-08-04T06:49:08Z</time>
      </trkpt>
      <trkpt lat="45.64973" lon="4.65982">
        <ele>541</ele>
        <time>2012-08-04T06:49:09Z</time>
      </trkpt>
      <trkpt lat="45.64969" lon="4.65984">
        <ele>541</ele>
        <time>2012-08-04T06:49:10Z</time>
      </trkpt>
      <trkpt lat="45.64965" lon="4.65986">
        <ele>541</ele>
        <time>2012-08-04T06:49:11Z</time>
      </trkpt>
      <trkpt lat="45.64961" lon="4.65987">
        <ele>541</ele>
        <time>2012-08-04T06:49:12Z</time>
      </trkpt>
      <trkpt lat="45.64957" lon="4.65988">
        <ele>541</ele>
        <time>2012-08-04T06:49:13Z</time>
      </trkpt>
      <trkpt lat="45.64917" lon="4.65988">
        <ele>540</ele>
        <time>2012-08-04T06:49:21Z</time>
      </trkpt>
      <trkpt lat="45.64868" lon="4.65986">
        <ele>538</ele>
        <time>2012-08-04T06:49:30Z</time>
      </trkpt>
      <trkpt lat="45.64818" lon="4.65983">
        <ele>537</ele>
        <time>2012-08-04T06:49:39Z</time>
      </trkpt>
      <trkpt lat="45.64813" lon="4.65982">
        <ele>537</ele>
        <time>2012-08-04T06:49:40Z</time>
      </trkpt>
      <trkpt lat="45.64761" lon="4.65967">
        <ele>534</ele>
        <time>2012-08-04T06:49:50Z</time>
      </trkpt>
      <trkpt lat="45.64717" lon="4.65953">
        <ele>532</ele>
        <time>2012-08-04T06:49:59Z</time>
      </trkpt>
      <trkpt lat="45.64713" lon="4.65952">
        <ele>531</ele>
        <time>2012-08-04T06:50:00Z</time>
      </trkpt>
      <trkpt lat="45.64708" lon="4.65952">
        <ele>531</ele>
        <time>2012-08-04T06:50:01Z</time>
      </trkpt>
      <trkpt lat="45.64704" lon="4.65952">
        <ele>531</ele>
        <time>2012-08-04T06:50:02Z</time>
      </trkpt>
      <trkpt lat="45.64699" lon="4.65951">
        <ele>531</ele>
        <time>2012-08-04T06:50:03Z</time>
      </trkpt>
      <trkpt lat="45.64695" lon="4.6595">
        <ele>531</ele>
        <time>2012-08-04T06:50:04Z</time>
      </trkpt>
      <trkpt lat="45.64664" lon="4.65939">
        <ele>530</ele>
        <time>2012-08-04T06:50:11Z</time>
      </trkpt>
      <trkpt lat="45.64659" lon="4.65938">
        <ele>530</ele>
        <time>2012-08-04T06:50:12Z</time>
      </trkpt>
      <trkpt lat="45.64655" lon="4.65937">
        <ele>530</ele>
        <time>2012-08-04T06:50:13Z</time>
      </trkpt>
      <trkpt lat="45.64651" lon="4.65936">
        <ele>530</ele>
        <time>2012-08-04T06:50:14Z</time>
      </trkpt>
      <trkpt lat="45.64648" lon="4.65936">
        <ele>529</ele>
        <time>2012-08-04T06:50:15Z</time>
      </trkpt>
      <trkpt lat="45.64643" lon="4.65935">
        <ele>530</ele>
        <time>2012-08-04T06:50:19Z</time>
      </trkpt>
      <trkpt lat="45.6464" lon="4.65933">
        <ele>530</ele>
        <time>2012-08-04T06:50:30Z</time>
      </trkpt>
      <trkpt lat="45.64622" lon="4.65928">
        <ele>530</ele>
        <time>2012-08-04T06:50:38Z</time>
      </trkpt>
      <trkpt lat="45.64593" lon="4.65916">
        <ele>530</ele>
        <time>2012-08-04T06:50:48Z</time>
      </trkpt>
      <trkpt lat="45.64573" lon="4.65902">
        <ele>530</ele>
        <time>2012-08-04T06:50:55Z</time>
      </trkpt>
      <trkpt lat="45.64543" lon="4.65881">
        <ele>530</ele>
        <time>2012-08-04T06:51:05Z</time>
      </trkpt>
      <trkpt lat="45.64522" lon="4.65873">
        <ele>529</ele>
        <time>2012-08-04T06:51:11Z</time>
      </trkpt>
      <trkpt lat="45.64491" lon="4.65877">
        <ele>527</ele>
        <time>2012-08-04T06:51:18Z</time>
      </trkpt>
      <trkpt lat="45.64482" lon="4.65878">
        <ele>526</ele>
        <time>2012-08-04T06:51:20Z</time>
      </trkpt>
      <trkpt lat="45.64468" lon="4.65882">
        <ele>526</ele>
        <time>2012-08-04T06:51:25Z</time>
      </trkpt>
      <trkpt lat="45.6444" lon="4.65882">
        <ele>525</ele>
        <time>2012-08-04T06:51:32Z</time>
      </trkpt>
      <trkpt lat="45.64428" lon="4.65883">
        <ele>524</ele>
        <time>2012-08-04T06:51:35Z</time>
      </trkpt>
      <trkpt lat="45.64396" lon="4.65882">
        <ele>521</ele>
        <time>2012-08-04T06:51:42Z</time>
      </trkpt>
      <trkpt lat="45.64383" lon="4.65877">
        <ele>518</ele>
        <time>2012-08-04T06:51:47Z</time>
      </trkpt>
      <trkpt lat="45.64369" lon="4.65877">
        <ele>515</ele>
        <time>2012-08-04T06:51:52Z</time>
      </trkpt>
      <trkpt lat="45.64365" lon="4.65876">
        <ele>514</ele>
        <time>2012-08-04T06:51:53Z</time>
      </trkpt>
      <trkpt lat="45.6436" lon="4.65876">
        <ele>513</ele>
        <time>2012-08-04T06:51:54Z</time>
      </trkpt>
      <trkpt lat="45.64355" lon="4.65876">
        <ele>513</ele>
        <time>2012-08-04T06:51:55Z</time>
      </trkpt>
      <trkpt lat="45.6435" lon="4.65876">
        <ele>512</ele>
        <time>2012-08-04T06:51:56Z</time>
      </trkpt>
      <trkpt lat="45.6433" lon="4.65872">
        <ele>509</ele>
        <time>2012-08-04T06:52:00Z</time>
      </trkpt>
      <trkpt lat="45.6432" lon="4.65869">
        <ele>507</ele>
        <time>2012-08-04T06:52:02Z</time>
      </trkpt>
      <trkpt lat="45.64316" lon="4.65867">
        <ele>506</ele>
        <time>2012-08-04T06:52:03Z</time>
      </trkpt>
      <trkpt lat="45.64312" lon="4.65867">
        <ele>505</ele>
        <time>2012-08-04T06:52:04Z</time>
      </trkpt>
      <trkpt lat="45.64307" lon="4.65867">
        <ele>504</ele>
        <time>2012-08-04T06:52:05Z</time>
      </trkpt>
      <trkpt lat="45.64302" lon="4.65867">
        <ele>503</ele>
        <time>2012-08-04T06:52:06Z</time>
      </trkpt>
      <trkpt lat="45.64282" lon="4.65869">
        <ele>500</ele>
        <time>2012-08-04T06:52:10Z</time>
      </trkpt>
      <trkpt lat="45.64265" lon="4.65869">
        <ele>497</ele>
        <time>2012-08-04T06:52:14Z</time>
      </trkpt>
      <trkpt lat="45.64245" lon="4.6587">
        <ele>493</ele>
        <time>2012-08-04T06:52:18Z</time>
      </trkpt>
      <trkpt lat="45.6424" lon="4.65871">
        <ele>493</ele>
        <time>2012-08-04T06:52:19Z</time>
      </trkpt>
      <trkpt lat="45.64212" lon="4.65876">
        <ele>489</ele>
        <time>2012-08-04T06:52:24Z</time>
      </trkpt>
      <trkpt lat="45.64207" lon="4.65876">
        <ele>489</ele>
        <time>2012-08-04T06:52:25Z</time>
      </trkpt>
      <trkpt lat="45.64179" lon="4.65879">
        <ele>486</ele>
        <time>2012-08-04T06:52:30Z</time>
      </trkpt>
      <trkpt lat="45.6414" lon="4.65885">
        <ele>482</ele>
        <time>2012-08-04T06:52:37Z</time>
      </trkpt>
      <trkpt lat="45.64134" lon="4.65886">
        <ele>482</ele>
        <time>2012-08-04T06:52:38Z</time>
      </trkpt>
      <trkpt lat="45.64123" lon="4.65887">
        <ele>480</ele>
        <time>2012-08-04T06:52:40Z</time>
      </trkpt>
      <trkpt lat="45.64101" lon="4.65891">
        <ele>478</ele>
        <time>2012-08-04T06:52:44Z</time>
      </trkpt>
      <trkpt lat="45.64071" lon="4.65896">
        <ele>476</ele>
        <time>2012-08-04T06:52:50Z</time>
      </trkpt>
      <trkpt lat="45.64041" lon="4.65901">
        <ele>475</ele>
        <time>2012-08-04T06:52:57Z</time>
      </trkpt>
      <trkpt lat="45.6402" lon="4.65878">
        <ele>474</ele>
        <time>2012-08-04T06:53:04Z</time>
      </trkpt>
      <trkpt lat="45.63992" lon="4.65851">
        <ele>474</ele>
        <time>2012-08-04T06:53:13Z</time>
      </trkpt>
      <trkpt lat="45.6397" lon="4.65828">
        <ele>474</ele>
        <time>2012-08-04T06:53:20Z</time>
      </trkpt>
      <trkpt lat="45.63932" lon="4.65787">
        <ele>474</ele>
        <time>2012-08-04T06:53:31Z</time>
      </trkpt>
      <trkpt lat="45.63891" lon="4.65736">
        <ele>474</ele>
        <time>2012-08-04T06:53:44Z</time>
      </trkpt>
      <trkpt lat="45.63862" lon="4.65698">
        <ele>473</ele>
        <time>2012-08-04T06:53:52Z</time>
      </trkpt>
      <trkpt lat="45.63853" lon="4.65687">
        <ele>471</ele>
        <time>2012-08-04T06:53:54Z</time>
      </trkpt>
      <trkpt lat="45.63842" lon="4.65677">
        <ele>471</ele>
        <time>2012-08-04T06:53:56Z</time>
      </trkpt>
      <trkpt lat="45.63807" lon="4.65658">
        <ele>469</ele>
        <time>2012-08-04T06:54:02Z</time>
      </trkpt>
      <trkpt lat="45.6375" lon="4.65633">
        <ele>465</ele>
        <time>2012-08-04T06:54:11Z</time>
      </trkpt>
      <trkpt lat="45.63714" lon="4.65626">
        <ele>462</ele>
        <time>2012-08-04T06:54:16Z</time>
      </trkpt>
      <trkpt lat="45.63691" lon="4.65621">
        <ele>458</ele>
        <time>2012-08-04T06:54:19Z</time>
      </trkpt>
      <trkpt lat="45.63651" lon="4.65614">
        <ele>454</ele>
        <time>2012-08-04T06:54:24Z</time>
      </trkpt>
      <trkpt lat="45.63644" lon="4.65613">
        <ele>454</ele>
        <time>2012-08-04T06:54:25Z</time>
      </trkpt>
      <trkpt lat="45.63612" lon="4.65601">
        <ele>451</ele>
        <time>2012-08-04T06:54:30Z</time>
      </trkpt>
      <trkpt lat="45.63607" lon="4.65599">
        <ele>451</ele>
        <time>2012-08-04T06:54:31Z</time>
      </trkpt>
      <trkpt lat="45.63584" lon="4.65586">
        <ele>450</ele>
        <time>2012-08-04T06:54:37Z</time>
      </trkpt>
      <trkpt lat="45.63574" lon="4.65563">
        <ele>448</ele>
        <time>2012-08-04T06:54:42Z</time>
      </trkpt>
      <trkpt lat="45.63572" lon="4.65558">
        <ele>448</ele>
        <time>2012-08-04T06:54:43Z</time>
      </trkpt>
      <trkpt lat="45.6357" lon="4.65552">
        <ele>447</ele>
        <time>2012-08-04T06:54:44Z</time>
      </trkpt>
      <trkpt lat="45.63564" lon="4.6554">
        <ele>446</ele>
        <time>2012-08-04T06:54:47Z</time>
      </trkpt>
      <trkpt lat="45.63557" lon="4.65523">
        <ele>442</ele>
        <time>2012-08-04T06:54:53Z</time>
      </trkpt>
      <trkpt lat="45.63551" lon="4.65504">
        <ele>440</ele>
        <time>2012-08-04T06:54:59Z</time>
      </trkpt>
      <trkpt lat="45.6355" lon="4.65493">
        <ele>438</ele>
        <time>2012-08-04T06:55:01Z</time>
      </trkpt>
      <trkpt lat="45.63546" lon="4.65464">
        <ele>433</ele>
        <time>2012-08-04T06:55:06Z</time>
      </trkpt>
      <trkpt lat="45.63544" lon="4.6544">
        <ele>429</ele>
        <time>2012-08-04T06:55:11Z</time>
      </trkpt>
      <trkpt lat="45.63544" lon="4.65435">
        <ele>429</ele>
        <time>2012-08-04T06:55:12Z</time>
      </trkpt>
      <trkpt lat="45.63542" lon="4.65424">
        <ele>426</ele>
        <time>2012-08-04T06:55:14Z</time>
      </trkpt>
      <trkpt lat="45.63541" lon="4.65418">
        <ele>425</ele>
        <time>2012-08-04T06:55:15Z</time>
      </trkpt>
      <trkpt lat="45.63535" lon="4.65394">
        <ele>422</ele>
        <time>2012-08-04T06:55:19Z</time>
      </trkpt>
      <trkpt lat="45.63526" lon="4.65367">
        <ele>419</ele>
        <time>2012-08-04T06:55:24Z</time>
      </trkpt>
      <trkpt lat="45.63519" lon="4.65348">
        <ele>415</ele>
        <time>2012-08-04T06:55:28Z</time>
      </trkpt>
      <trkpt lat="45.63516" lon="4.65344">
        <ele>415</ele>
        <time>2012-08-04T06:55:29Z</time>
      </trkpt>
      <trkpt lat="45.63515" lon="4.65341">
        <ele>415</ele>
        <time>2012-08-04T06:55:30Z</time>
      </trkpt>
      <trkpt lat="45.63514" lon="4.65328">
        <ele>412</ele>
        <time>2012-08-04T06:55:36Z</time>
      </trkpt>
      <trkpt lat="45.63514" lon="4.65326">
        <ele>413</ele>
        <time>2012-08-04T06:55:47Z</time>
      </trkpt>
      <trkpt lat="45.63515" lon="4.65321">
        <ele>413</ele>
        <time>2012-08-04T06:55:53Z</time>
      </trkpt>
      <trkpt lat="45.63516" lon="4.65314">
        <ele>413</ele>
        <time>2012-08-04T06:56:01Z</time>
      </trkpt>
      <trkpt lat="45.63516" lon="4.65305">
        <ele>413</ele>
        <time>2012-08-04T06:56:12Z</time>
      </trkpt>
      <trkpt lat="45.63515" lon="4.65304">
        <ele>413</ele>
        <time>2012-08-04T06:56:17Z</time>
      </trkpt>
      <trkpt lat="45.63509" lon="4.65301">
        <ele>413</ele>
        <time>2012-08-04T06:56:20Z</time>
      </trkpt>
      <trkpt lat="45.63506" lon="4.653">
        <ele>413</ele>
        <time>2012-08-04T06:56:21Z</time>
      </trkpt>
      <trkpt lat="45.63503" lon="4.65298">
        <ele>413</ele>
        <time>2012-08-04T06:56:22Z</time>
      </trkpt>
      <trkpt lat="45.635" lon="4.65297">
        <ele>413</ele>
        <time>2012-08-04T06:56:23Z</time>
      </trkpt>
      <trkpt lat="45.63487" lon="4.65294">
        <ele>412</ele>
        <time>2012-08-04T06:56:26Z</time>
      </trkpt>
      <trkpt lat="45.63482" lon="4.65294">
        <ele>411</ele>
        <time>2012-08-04T06:56:27Z</time>
      </trkpt>
      <trkpt lat="45.63471" lon="4.65291">
        <ele>411</ele>
        <time>2012-08-04T06:56:30Z</time>
      </trkpt>
      <trkpt lat="45.63469" lon="4.65287">
        <ele>411</ele>
        <time>2012-08-04T06:56:31Z</time>
      </trkpt>
      <trkpt lat="45.63467" lon="4.65282">
        <ele>411</ele>
        <time>2012-08-04T06:56:32Z</time>
      </trkpt>
      <trkpt lat="45.63464" lon="4.65276">
        <ele>411</ele>
        <time>2012-08-04T06:56:33Z</time>
      </trkpt>
      <trkpt lat="45.63462" lon="4.6527">
        <ele>410</ele>
        <time>2012-08-04T06:56:34Z</time>
      </trkpt>
      <trkpt lat="45.6346" lon="4.65264">
        <ele>410</ele>
        <time>2012-08-04T06:56:35Z</time>
      </trkpt>
      <trkpt lat="45.63449" lon="4.65234">
        <ele>411</ele>
        <time>2012-08-04T06:56:41Z</time>
      </trkpt>
      <trkpt lat="45.63445" lon="4.65228">
        <ele>412</ele>
        <time>2012-08-04T06:56:46Z</time>
      </trkpt>
      <trkpt lat="45.63444" lon="4.65226">
        <ele>412</ele>
        <time>2012-08-04T06:56:47Z</time>
      </trkpt>
      <trkpt lat="45.63437" lon="4.65217">
        <ele>414</ele>
        <time>2012-08-04T06:56:53Z</time>
      </trkpt>
      <trkpt lat="45.63421" lon="4.652">
        <ele>415</ele>
        <time>2012-08-04T06:57:04Z</time>
      </trkpt>
      <trkpt lat="45.63409" lon="4.65183">
        <ele>418</ele>
        <time>2012-08-04T06:57:14Z</time>
      </trkpt>
      <trkpt lat="45.63398" lon="4.65162">
        <ele>420</ele>
        <time>2012-08-04T06:57:24Z</time>
      </trkpt>
      <trkpt lat="45.63397" lon="4.65137">
        <ele>422</ele>
        <time>2012-08-04T06:57:34Z</time>
      </trkpt>
      <trkpt lat="45.63399" lon="4.65109">
        <ele>423</ele>
        <time>2012-08-04T06:57:45Z</time>
      </trkpt>
      <trkpt lat="45.63403" lon="4.65086">
        <ele>425</ele>
        <time>2012-08-04T06:57:54Z</time>
      </trkpt>
      <trkpt lat="45.63408" lon="4.65061">
        <ele>428</ele>
        <time>2012-08-04T06:58:05Z</time>
      </trkpt>
      <trkpt lat="45.63416" lon="4.65038">
        <ele>431</ele>
        <time>2012-08-04T06:58:15Z</time>
      </trkpt>
      <trkpt lat="45.63418" lon="4.6503">
        <ele>432</ele>
        <time>2012-08-04T06:58:19Z</time>
      </trkpt>
      <trkpt lat="45.63426" lon="4.65006">
        <ele>434</ele>
        <time>2012-08-04T06:58:30Z</time>
      </trkpt>
      <trkpt lat="45.63428" lon="4.64977">
        <ele>437</ele>
        <time>2012-08-04T06:58:42Z</time>
      </trkpt>
      <trkpt lat="45.63428" lon="4.64956">
        <ele>439</ele>
        <time>2012-08-04T06:58:51Z</time>
      </trkpt>
      <trkpt lat="45.63428" lon="4.64932">
        <ele>441</ele>
        <time>2012-08-04T06:59:01Z</time>
      </trkpt>
      <trkpt lat="45.63428" lon="4.64927">
        <ele>442</ele>
        <time>2012-08-04T06:59:03Z</time>
      </trkpt>
      <trkpt lat="45.63426" lon="4.64904">
        <ele>443</ele>
        <time>2012-08-04T06:59:13Z</time>
      </trkpt>
      <trkpt lat="45.63425" lon="4.64874">
        <ele>445</ele>
        <time>2012-08-04T06:59:25Z</time>
      </trkpt>
      <trkpt lat="45.63424" lon="4.64848">
        <ele>447</ele>
        <time>2012-08-04T06:59:36Z</time>
      </trkpt>
      <trkpt lat="45.63422" lon="4.64826">
        <ele>449</ele>
        <time>2012-08-04T06:59:45Z</time>
      </trkpt>
      <trkpt lat="45.63421" lon="4.64798">
        <ele>451</ele>
        <time>2012-08-04T06:59:56Z</time>
      </trkpt>
      <trkpt lat="45.6342" lon="4.64776">
        <ele>452</ele>
        <time>2012-08-04T07:00:05Z</time>
      </trkpt>
      <trkpt lat="45.63419" lon="4.64752">
        <ele>454</ele>
        <time>2012-08-04T07:00:15Z</time>
      </trkpt>
      <trkpt lat="45.6341" lon="4.64729">
        <ele>455</ele>
        <time>2012-08-04T07:00:25Z</time>
      </trkpt>
      <trkpt lat="45.634" lon="4.64716">
        <ele>455</ele>
        <time>2012-08-04T07:00:32Z</time>
      </trkpt>
      <trkpt lat="45.63388" lon="4.64699">
        <ele>457</ele>
        <time>2012-08-04T07:00:40Z</time>
      </trkpt>
      <trkpt lat="45.63387" lon="4.64693">
        <ele>457</ele>
        <time>2012-08-04T07:00:42Z</time>
      </trkpt>
      <trkpt lat="45.63388" lon="4.64689">
        <ele>458</ele>
        <time>2012-08-04T07:00:43Z</time>
      </trkpt>
      <trkpt lat="45.63389" lon="4.64686">
        <ele>458</ele>
        <time>2012-08-04T07:00:44Z</time>
      </trkpt>
      <trkpt lat="45.6339" lon="4.64684">
        <ele>458</ele>
        <time>2012-08-04T07:00:45Z</time>
      </trkpt>
      <trkpt lat="45.63391" lon="4.64682">
        <ele>458</ele>
        <time>2012-08-04T07:00:46Z</time>
      </trkpt>
      <trkpt lat="45.63393" lon="4.6468">
        <ele>458</ele>
        <time>2012-08-04T07:00:47Z</time>
      </trkpt>
      <trkpt lat="45.63412" lon="4.64667">
        <ele>458</ele>
        <time>2012-08-04T07:00:56Z</time>
      </trkpt>
      <trkpt lat="45.63438" lon="4.6465">
        <ele>459</ele>
        <time>2012-08-04T07:01:07Z</time>
      </trkpt>
      <trkpt lat="45.63455" lon="4.64626">
        <ele>460</ele>
        <time>2012-08-04T07:01:17Z</time>
      </trkpt>
      <trkpt lat="45.63455" lon="4.64622">
        <ele>460</ele>
        <time>2012-08-04T07:01:18Z</time>
      </trkpt>
      <trkpt lat="45.63454" lon="4.64618">
        <ele>459</ele>
        <time>2012-08-04T07:01:19Z</time>
      </trkpt>
      <trkpt lat="45.63453" lon="4.64614">
        <ele>459</ele>
        <time>2012-08-04T07:01:20Z</time>
      </trkpt>
      <trkpt lat="45.63451" lon="4.6461">
        <ele>460</ele>
        <time>2012-08-04T07:01:21Z</time>
      </trkpt>
      <trkpt lat="45.6345" lon="4.64606">
        <ele>459</ele>
        <time>2012-08-04T07:01:22Z</time>
      </trkpt>
      <trkpt lat="45.63449" lon="4.64602">
        <ele>459</ele>
        <time>2012-08-04T07:01:23Z</time>
      </trkpt>
      <trkpt lat="45.63439" lon="4.64562">
        <ele>459</ele>
        <time>2012-08-04T07:01:31Z</time>
      </trkpt>
      <trkpt lat="45.63437" lon="4.64556">
        <ele>459</ele>
        <time>2012-08-04T07:01:32Z</time>
      </trkpt>
      <trkpt lat="45.63433" lon="4.64536">
        <ele>458</ele>
        <time>2012-08-04T07:01:35Z</time>
      </trkpt>
      <trkpt lat="45.63427" lon="4.64475">
        <ele>454</ele>
        <time>2012-08-04T07:01:43Z</time>
      </trkpt>
      <trkpt lat="45.63427" lon="4.64466">
        <ele>454</ele>
        <time>2012-08-04T07:01:44Z</time>
      </trkpt>
      <trkpt lat="45.63428" lon="4.64458">
        <ele>453</ele>
        <time>2012-08-04T07:01:45Z</time>
      </trkpt>
      <trkpt lat="45.6343" lon="4.64449">
        <ele>453</ele>
        <time>2012-08-04T07:01:46Z</time>
      </trkpt>
      <trkpt lat="45.63442" lon="4.64397">
        <ele>450</ele>
        <time>2012-08-04T07:01:51Z</time>
      </trkpt>
      <trkpt lat="45.63445" lon="4.64385">
        <ele>449</ele>
        <time>2012-08-04T07:01:52Z</time>
      </trkpt>
      <trkpt lat="45.63446" lon="4.64362">
        <ele>449</ele>
        <time>2012-08-04T07:01:54Z</time>
      </trkpt>
      <trkpt lat="45.63445" lon="4.64351">
        <ele>448</ele>
        <time>2012-08-04T07:01:55Z</time>
      </trkpt>
      <trkpt lat="45.63444" lon="4.6434">
        <ele>448</ele>
        <time>2012-08-04T07:01:56Z</time>
      </trkpt>
      <trkpt lat="45.63439" lon="4.64321">
        <ele>448</ele>
        <time>2012-08-04T07:01:58Z</time>
      </trkpt>
      <trkpt lat="45.63435" lon="4.64308">
        <ele>449</ele>
        <time>2012-08-04T07:02:00Z</time>
      </trkpt>
      <trkpt lat="45.63434" lon="4.64303">
        <ele>450</ele>
        <time>2012-08-04T07:02:01Z</time>
      </trkpt>
      <trkpt lat="45.63432" lon="4.64299">
        <ele>450</ele>
        <time>2012-08-04T07:02:02Z</time>
      </trkpt>
      <trkpt lat="45.63426" lon="4.64284">
        <ele>452</ele>
        <time>2012-08-04T07:02:08Z</time>
      </trkpt>
      <trkpt lat="45.63423" lon="4.64282">
        <ele>452</ele>
        <time>2012-08-04T07:02:09Z</time>
      </trkpt>
      <trkpt lat="45.63405" lon="4.64272">
        <ele>454</ele>
        <time>2012-08-04T07:02:16Z</time>
      </trkpt>
      <trkpt lat="45.63396" lon="4.64252">
        <ele>455</ele>
        <time>2012-08-04T07:02:22Z</time>
      </trkpt>
      <trkpt lat="45.63381" lon="4.64239">
        <ele>456</ele>
        <time>2012-08-04T07:02:29Z</time>
      </trkpt>
      <trkpt lat="45.63357" lon="4.64242">
        <ele>457</ele>
        <time>2012-08-04T07:02:38Z</time>
      </trkpt>
      <trkpt lat="45.63331" lon="4.64241">
        <ele>459</ele>
        <time>2012-08-04T07:02:48Z</time>
      </trkpt>
      <trkpt lat="45.63313" lon="4.64222">
        <ele>460</ele>
        <time>2012-08-04T07:02:57Z</time>
      </trkpt>
      <trkpt lat="45.63295" lon="4.64189">
        <ele>462</ele>
        <time>2012-08-04T07:03:08Z</time>
      </trkpt>
      <trkpt lat="45.63278" lon="4.64158">
        <ele>463</ele>
        <time>2012-08-04T07:03:19Z</time>
      </trkpt>
      <trkpt lat="45.63265" lon="4.64134">
        <ele>464</ele>
        <time>2012-08-04T07:03:28Z</time>
      </trkpt>
      <trkpt lat="45.63256" lon="4.64101">
        <ele>466</ele>
        <time>2012-08-04T07:03:38Z</time>
      </trkpt>
      <trkpt lat="45.63256" lon="4.64072">
        <ele>468</ele>
        <time>2012-08-04T07:03:47Z</time>
      </trkpt>
      <trkpt lat="45.63262" lon="4.64045">
        <ele>471</ele>
        <time>2012-08-04T07:03:56Z</time>
      </trkpt>
      <trkpt lat="45.63268" lon="4.64018">
        <ele>473</ele>
        <time>2012-08-04T07:04:05Z</time>
      </trkpt>
      <trkpt lat="45.63275" lon="4.63986">
        <ele>475</ele>
        <time>2012-08-04T07:04:16Z</time>
      </trkpt>
      <trkpt lat="45.63286" lon="4.6397">
        <ele>476</ele>
        <time>2012-08-04T07:04:23Z</time>
      </trkpt>
      <trkpt lat="45.63297" lon="4.63955">
        <ele>478</ele>
        <time>2012-08-04T07:04:30Z</time>
      </trkpt>
      <trkpt lat="45.63305" lon="4.63933">
        <ele>479</ele>
        <time>2012-08-04T07:04:38Z</time>
      </trkpt>
      <trkpt lat="45.63318" lon="4.63912">
        <ele>481</ele>
        <time>2012-08-04T07:04:48Z</time>
      </trkpt>
      <trkpt lat="45.63335" lon="4.63901">
        <ele>482</ele>
        <time>2012-08-04T07:04:57Z</time>
      </trkpt>
      <trkpt lat="45.63354" lon="4.63887">
        <ele>483</ele>
        <time>2012-08-04T07:05:06Z</time>
      </trkpt>
      <trkpt lat="45.6337" lon="4.63869">
        <ele>484</ele>
        <time>2012-08-04T07:05:15Z</time>
      </trkpt>
      <trkpt lat="45.63388" lon="4.6385">
        <ele>485</ele>
        <time>2012-08-04T07:05:24Z</time>
      </trkpt>
      <trkpt lat="45.63402" lon="4.63828">
        <ele>486</ele>
        <time>2012-08-04T07:05:32Z</time>
      </trkpt>
      <trkpt lat="45.6342" lon="4.6382">
        <ele>488</ele>
        <time>2012-08-04T07:05:41Z</time>
      </trkpt>
      <trkpt lat="45.63434" lon="4.63808">
        <ele>489</ele>
        <time>2012-08-04T07:05:49Z</time>
      </trkpt>
      <trkpt lat="45.63442" lon="4.638">
        <ele>490</ele>
        <time>2012-08-04T07:05:56Z</time>
      </trkpt>
      <trkpt lat="45.6345" lon="4.63784">
        <ele>493</ele>
        <time>2012-08-04T07:06:05Z</time>
      </trkpt>
      <trkpt lat="45.63454" lon="4.63764">
        <ele>495</ele>
        <time>2012-08-04T07:06:15Z</time>
      </trkpt>
      <trkpt lat="45.63455" lon="4.6376">
        <ele>496</ele>
        <time>2012-08-04T07:06:17Z</time>
      </trkpt>
      <trkpt lat="45.63456" lon="4.63739">
        <ele>499</ele>
        <time>2012-08-04T07:06:27Z</time>
      </trkpt>
      <trkpt lat="45.63458" lon="4.6372">
        <ele>502</ele>
        <time>2012-08-04T07:06:37Z</time>
      </trkpt>
      <trkpt lat="45.63458" lon="4.63701">
        <ele>505</ele>
        <time>2012-08-04T07:06:47Z</time>
      </trkpt>
      <trkpt lat="45.63463" lon="4.63685">
        <ele>507</ele>
        <time>2012-08-04T07:06:56Z</time>
      </trkpt>
      <trkpt lat="45.63469" lon="4.63671">
        <ele>509</ele>
        <time>2012-08-04T07:07:05Z</time>
      </trkpt>
      <trkpt lat="45.6347" lon="4.6367">
        <ele>509</ele>
        <time>2012-08-04T07:07:06Z</time>
      </trkpt>
      <trkpt lat="45.63471" lon="4.63669">
        <ele>510</ele>
        <time>2012-08-04T07:07:07Z</time>
      </trkpt>
      <trkpt lat="45.63472" lon="4.63668">
        <ele>510</ele>
        <time>2012-08-04T07:07:08Z</time>
      </trkpt>
      <trkpt lat="45.63472" lon="4.63666">
        <ele>510</ele>
        <time>2012-08-04T07:07:09Z</time>
      </trkpt>
      <trkpt lat="45.63473" lon="4.63665">
        <ele>510</ele>
        <time>2012-08-04T07:07:10Z</time>
      </trkpt>
      <trkpt lat="45.63473" lon="4.63663">
        <ele>511</ele>
        <time>2012-08-04T07:07:11Z</time>
      </trkpt>
      <trkpt lat="45.63474" lon="4.63661">
        <ele>510</ele>
        <time>2012-08-04T07:07:12Z</time>
      </trkpt>
      <trkpt lat="45.63474" lon="4.63658">
        <ele>511</ele>
        <time>2012-08-04T07:07:13Z</time>
      </trkpt>
      <trkpt lat="45.63474" lon="4.63656">
        <ele>511</ele>
        <time>2012-08-04T07:07:14Z</time>
      </trkpt>
      <trkpt lat="45.63474" lon="4.63654">
        <ele>511</ele>
        <time>2012-08-04T07:07:15Z</time>
      </trkpt>
      <trkpt lat="45.63476" lon="4.6363">
        <ele>513</ele>
        <time>2012-08-04T07:07:27Z</time>
      </trkpt>
      <trkpt lat="45.63475" lon="4.63614">
        <ele>515</ele>
        <time>2012-08-04T07:07:35Z</time>
      </trkpt>
      <trkpt lat="45.63477" lon="4.63599">
        <ele>516</ele>
        <time>2012-08-04T07:07:43Z</time>
      </trkpt>
      <trkpt lat="45.63481" lon="4.63588">
        <ele>516</ele>
        <time>2012-08-04T07:07:50Z</time>
      </trkpt>
      <trkpt lat="45.63485" lon="4.6357">
        <ele>516</ele>
        <time>2012-08-04T07:07:58Z</time>
      </trkpt>
      <trkpt lat="45.6349" lon="4.63549">
        <ele>517</ele>
        <time>2012-08-04T07:08:05Z</time>
      </trkpt>
      <trkpt lat="45.63496" lon="4.63517">
        <ele>518</ele>
        <time>2012-08-04T07:08:15Z</time>
      </trkpt>
      <trkpt lat="45.635" lon="4.63492">
        <ele>519</ele>
        <time>2012-08-04T07:08:23Z</time>
      </trkpt>
      <trkpt lat="45.63504" lon="4.63465">
        <ele>520</ele>
        <time>2012-08-04T07:08:32Z</time>
      </trkpt>
      <trkpt lat="45.6351" lon="4.6344">
        <ele>521</ele>
        <time>2012-08-04T07:08:40Z</time>
      </trkpt>
      <trkpt lat="45.63518" lon="4.63417">
        <ele>522</ele>
        <time>2012-08-04T07:08:49Z</time>
      </trkpt>
      <trkpt lat="45.63525" lon="4.634">
        <ele>523</ele>
        <time>2012-08-04T07:08:55Z</time>
      </trkpt>
      <trkpt lat="45.63536" lon="4.63368">
        <ele>525</ele>
        <time>2012-08-04T07:09:06Z</time>
      </trkpt>
      <trkpt lat="45.63547" lon="4.63337">
        <ele>526</ele>
        <time>2012-08-04T07:09:18Z</time>
      </trkpt>
      <trkpt lat="45.63549" lon="4.63313">
        <ele>528</ele>
        <time>2012-08-04T07:09:27Z</time>
      </trkpt>
      <trkpt lat="45.63552" lon="4.633">
        <ele>530</ele>
        <time>2012-08-04T07:09:34Z</time>
      </trkpt>
      <trkpt lat="45.63554" lon="4.63291">
        <ele>531</ele>
        <time>2012-08-04T07:09:39Z</time>
      </trkpt>
      <trkpt lat="45.63554" lon="4.63289">
        <ele>530</ele>
        <time>2012-08-04T07:09:40Z</time>
      </trkpt>
      <trkpt lat="45.63555" lon="4.63287">
        <ele>531</ele>
        <time>2012-08-04T07:09:41Z</time>
      </trkpt>
      <trkpt lat="45.63563" lon="4.63268">
        <ele>534</ele>
        <time>2012-08-04T07:09:52Z</time>
      </trkpt>
      <trkpt lat="45.6357" lon="4.63247">
        <ele>536</ele>
        <time>2012-08-04T07:10:03Z</time>
      </trkpt>
      <trkpt lat="45.63574" lon="4.63235">
        <ele>537</ele>
        <time>2012-08-04T07:10:10Z</time>
      </trkpt>
      <trkpt lat="45.63574" lon="4.63234">
        <ele>537</ele>
        <time>2012-08-04T07:10:11Z</time>
      </trkpt>
      <trkpt lat="45.63579" lon="4.6322">
        <ele>539</ele>
        <time>2012-08-04T07:10:20Z</time>
      </trkpt>
      <trkpt lat="45.6358" lon="4.63211">
        <ele>540</ele>
        <time>2012-08-04T07:10:25Z</time>
      </trkpt>
      <trkpt lat="45.63581" lon="4.6321">
        <ele>540</ele>
        <time>2012-08-04T07:10:26Z</time>
      </trkpt>
      <trkpt lat="45.63583" lon="4.63205">
        <ele>541</ele>
        <time>2012-08-04T07:10:29Z</time>
      </trkpt>
      <trkpt lat="45.63583" lon="4.63203">
        <ele>541</ele>
        <time>2012-08-04T07:10:30Z</time>
      </trkpt>
      <trkpt lat="45.63583" lon="4.63201">
        <ele>542</ele>
        <time>2012-08-04T07:10:31Z</time>
      </trkpt>
      <trkpt lat="45.63584" lon="4.63199">
        <ele>542</ele>
        <time>2012-08-04T07:10:32Z</time>
      </trkpt>
      <trkpt lat="45.63584" lon="4.63197">
        <ele>541</ele>
        <time>2012-08-04T07:10:33Z</time>
      </trkpt>
      <trkpt lat="45.63584" lon="4.63195">
        <ele>542</ele>
        <time>2012-08-04T07:10:34Z</time>
      </trkpt>
      <trkpt lat="45.63585" lon="4.63194">
        <ele>542</ele>
        <time>2012-08-04T07:10:35Z</time>
      </trkpt>
      <trkpt lat="45.63588" lon="4.63174">
        <ele>544</ele>
        <time>2012-08-04T07:10:45Z</time>
      </trkpt>
      <trkpt lat="45.63591" lon="4.63154">
        <ele>546</ele>
        <time>2012-08-04T07:10:55Z</time>
      </trkpt>
      <trkpt lat="45.63594" lon="4.6314">
        <ele>548</ele>
        <time>2012-08-04T07:11:03Z</time>
      </trkpt>
      <trkpt lat="45.636" lon="4.63121">
        <ele>549</ele>
        <time>2012-08-04T07:11:15Z</time>
      </trkpt>
      <trkpt lat="45.636" lon="4.63107">
        <ele>550</ele>
        <time>2012-08-04T07:11:24Z</time>
      </trkpt>
      <trkpt lat="45.63599" lon="4.63088">
        <ele>551</ele>
        <time>2012-08-04T07:11:34Z</time>
      </trkpt>
      <trkpt lat="45.63597" lon="4.63069">
        <ele>553</ele>
        <time>2012-08-04T07:11:45Z</time>
      </trkpt>
      <trkpt lat="45.63594" lon="4.63058">
        <ele>555</ele>
        <time>2012-08-04T07:11:53Z</time>
      </trkpt>
      <trkpt lat="45.63589" lon="4.63052">
        <ele>557</ele>
        <time>2012-08-04T07:11:59Z</time>
      </trkpt>
      <trkpt lat="45.63587" lon="4.63051">
        <ele>557</ele>
        <time>2012-08-04T07:12:00Z</time>
      </trkpt>
      <trkpt lat="45.63585" lon="4.6305">
        <ele>558</ele>
        <time>2012-08-04T07:12:01Z</time>
      </trkpt>
      <trkpt lat="45.63574" lon="4.63044">
        <ele>559</ele>
        <time>2012-08-04T07:12:10Z</time>
      </trkpt>
      <trkpt lat="45.63563" lon="4.63041">
        <ele>560</ele>
        <time>2012-08-04T07:12:19Z</time>
      </trkpt>
      <trkpt lat="45.63551" lon="4.63039">
        <ele>562</ele>
        <time>2012-08-04T07:12:27Z</time>
      </trkpt>
      <trkpt lat="45.6354" lon="4.63033">
        <ele>563</ele>
        <time>2012-08-04T07:12:35Z</time>
      </trkpt>
      <trkpt lat="45.6353" lon="4.63028">
        <ele>564</ele>
        <time>2012-08-04T07:12:43Z</time>
      </trkpt>
      <trkpt lat="45.63519" lon="4.6302">
        <ele>566</ele>
        <time>2012-08-04T07:12:52Z</time>
      </trkpt>
      <trkpt lat="45.63517" lon="4.63017">
        <ele>566</ele>
        <time>2012-08-04T07:12:54Z</time>
      </trkpt>
      <trkpt lat="45.63517" lon="4.63014">
        <ele>567</ele>
        <time>2012-08-04T07:12:55Z</time>
      </trkpt>
      <trkpt lat="45.63517" lon="4.63013">
        <ele>567</ele>
        <time>2012-08-04T07:12:56Z</time>
      </trkpt>
      <trkpt lat="45.63518" lon="4.63011">
        <ele>567</ele>
        <time>2012-08-04T07:12:57Z</time>
      </trkpt>
      <trkpt lat="45.63521" lon="4.63005">
        <ele>568</ele>
        <time>2012-08-04T07:13:01Z</time>
      </trkpt>
      <trkpt lat="45.63521" lon="4.63004">
        <ele>568</ele>
        <time>2012-08-04T07:13:02Z</time>
      </trkpt>
      <trkpt lat="45.63522" lon="4.63003">
        <ele>568</ele>
        <time>2012-08-04T07:13:03Z</time>
      </trkpt>
      <trkpt lat="45.63523" lon="4.63001">
        <ele>568</ele>
        <time>2012-08-04T07:13:04Z</time>
      </trkpt>
      <trkpt lat="45.63523" lon="4.63">
        <ele>568</ele>
        <time>2012-08-04T07:13:05Z</time>
      </trkpt>
      <trkpt lat="45.63528" lon="4.62987">
        <ele>569</ele>
        <time>2012-08-04T07:13:13Z</time>
      </trkpt>
      <trkpt lat="45.63531" lon="4.62977">
        <ele>572</ele>
        <time>2012-08-04T07:13:19Z</time>
      </trkpt>
      <trkpt lat="45.63531" lon="4.62975">
        <ele>572</ele>
        <time>2012-08-04T07:13:20Z</time>
      </trkpt>
      <trkpt lat="45.63532" lon="4.62973">
        <ele>572</ele>
        <time>2012-08-04T07:13:21Z</time>
      </trkpt>
      <trkpt lat="45.63532" lon="4.62971">
        <ele>573</ele>
        <time>2012-08-04T07:13:22Z</time>
      </trkpt>
      <trkpt lat="45.63537" lon="4.62958">
        <ele>575</ele>
        <time>2012-08-04T07:13:31Z</time>
      </trkpt>
      <trkpt lat="45.63541" lon="4.62941">
        <ele>577</ele>
        <time>2012-08-04T07:13:41Z</time>
      </trkpt>
      <trkpt lat="45.63543" lon="4.6293">
        <ele>578</ele>
        <time>2012-08-04T07:13:50Z</time>
      </trkpt>
      <trkpt lat="45.63543" lon="4.62929">
        <ele>577</ele>
        <time>2012-08-04T07:13:51Z</time>
      </trkpt>
      <trkpt lat="45.63544" lon="4.62928">
        <ele>578</ele>
        <time>2012-08-04T07:13:52Z</time>
      </trkpt>
      <trkpt lat="45.6355" lon="4.6292">
        <ele>580</ele>
        <time>2012-08-04T07:14:00Z</time>
      </trkpt>
      <trkpt lat="45.63557" lon="4.62909">
        <ele>581</ele>
        <time>2012-08-04T07:14:09Z</time>
      </trkpt>
      <trkpt lat="45.63561" lon="4.62898">
        <ele>584</ele>
        <time>2012-08-04T07:14:16Z</time>
      </trkpt>
      <trkpt lat="45.63561" lon="4.62896">
        <ele>584</ele>
        <time>2012-08-04T07:14:17Z</time>
      </trkpt>
      <trkpt lat="45.63562" lon="4.62895">
        <ele>584</ele>
        <time>2012-08-04T07:14:18Z</time>
      </trkpt>
      <trkpt lat="45.63562" lon="4.62893">
        <ele>585</ele>
        <time>2012-08-04T07:14:19Z</time>
      </trkpt>
      <trkpt lat="45.63563" lon="4.62892">
        <ele>585</ele>
        <time>2012-08-04T07:14:20Z</time>
      </trkpt>
      <trkpt lat="45.63567" lon="4.62882">
        <ele>586</ele>
        <time>2012-08-04T07:14:26Z</time>
      </trkpt>
      <trkpt lat="45.63568" lon="4.62881">
        <ele>587</ele>
        <time>2012-08-04T07:14:27Z</time>
      </trkpt>
      <trkpt lat="45.63568" lon="4.62879">
        <ele>587</ele>
        <time>2012-08-04T07:14:28Z</time>
      </trkpt>
      <trkpt lat="45.63569" lon="4.62877">
        <ele>587</ele>
        <time>2012-08-04T07:14:29Z</time>
      </trkpt>
      <trkpt lat="45.63569" lon="4.62875">
        <ele>587</ele>
        <time>2012-08-04T07:14:30Z</time>
      </trkpt>
      <trkpt lat="45.63569" lon="4.62873">
        <ele>587</ele>
        <time>2012-08-04T07:14:31Z</time>
      </trkpt>
      <trkpt lat="45.6357" lon="4.62872">
        <ele>587</ele>
        <time>2012-08-04T07:14:32Z</time>
      </trkpt>
      <trkpt lat="45.63574" lon="4.62857">
        <ele>588</ele>
        <time>2012-08-04T07:14:41Z</time>
      </trkpt>
      <trkpt lat="45.63577" lon="4.62846">
        <ele>589</ele>
        <time>2012-08-04T07:14:48Z</time>
      </trkpt>
      <trkpt lat="45.63576" lon="4.62841">
        <ele>589</ele>
        <time>2012-08-04T07:14:51Z</time>
      </trkpt>
      <trkpt lat="45.63576" lon="4.62839">
        <ele>590</ele>
        <time>2012-08-04T07:14:52Z</time>
      </trkpt>
      <trkpt lat="45.63576" lon="4.6282">
        <ele>591</ele>
        <time>2012-08-04T07:15:01Z</time>
      </trkpt>
      <trkpt lat="45.63577" lon="4.62801">
        <ele>593</ele>
        <time>2012-08-04T07:15:11Z</time>
      </trkpt>
      <trkpt lat="45.63579" lon="4.62788">
        <ele>594</ele>
        <time>2012-08-04T07:15:18Z</time>
      </trkpt>
      <trkpt lat="45.63584" lon="4.62772">
        <ele>596</ele>
        <time>2012-08-04T07:15:28Z</time>
      </trkpt>
      <trkpt lat="45.63591" lon="4.62755">
        <ele>598</ele>
        <time>2012-08-04T07:15:39Z</time>
      </trkpt>
      <trkpt lat="45.636" lon="4.62739">
        <ele>600</ele>
        <time>2012-08-04T07:15:50Z</time>
      </trkpt>
      <trkpt lat="45.63609" lon="4.62726">
        <ele>601</ele>
        <time>2012-08-04T07:16:00Z</time>
      </trkpt>
      <trkpt lat="45.6362" lon="4.62711">
        <ele>604</ele>
        <time>2012-08-04T07:16:12Z</time>
      </trkpt>
      <trkpt lat="45.63627" lon="4.62699">
        <ele>605</ele>
        <time>2012-08-04T07:16:20Z</time>
      </trkpt>
      <trkpt lat="45.63635" lon="4.62679">
        <ele>608</ele>
        <time>2012-08-04T07:16:31Z</time>
      </trkpt>
      <trkpt lat="45.6364" lon="4.62662">
        <ele>609</ele>
        <time>2012-08-04T07:16:40Z</time>
      </trkpt>
      <trkpt lat="45.63646" lon="4.62643">
        <ele>611</ele>
        <time>2012-08-04T07:16:50Z</time>
      </trkpt>
      <trkpt lat="45.63653" lon="4.6262">
        <ele>613</ele>
        <time>2012-08-04T07:17:02Z</time>
      </trkpt>
      <trkpt lat="45.63658" lon="4.62604">
        <ele>614</ele>
        <time>2012-08-04T07:17:10Z</time>
      </trkpt>
      <trkpt lat="45.63667" lon="4.62581">
        <ele>615</ele>
        <time>2012-08-04T07:17:22Z</time>
      </trkpt>
      <trkpt lat="45.63674" lon="4.62564">
        <ele>616</ele>
        <time>2012-08-04T07:17:31Z</time>
      </trkpt>
      <trkpt lat="45.63681" lon="4.62553">
        <ele>618</ele>
        <time>2012-08-04T07:17:38Z</time>
      </trkpt>
      <trkpt lat="45.63682" lon="4.62543">
        <ele>617</ele>
        <time>2012-08-04T07:17:45Z</time>
      </trkpt>
      <trkpt lat="45.63685" lon="4.62531">
        <ele>617</ele>
        <time>2012-08-04T07:17:52Z</time>
      </trkpt>
      <trkpt lat="45.63687" lon="4.62522">
        <ele>615</ele>
        <time>2012-08-04T07:17:59Z</time>
      </trkpt>
      <trkpt lat="45.6369" lon="4.62522">
        <ele>616</ele>
        <time>2012-08-04T07:18:12Z</time>
      </trkpt>
      <trkpt lat="45.63688" lon="4.6252">
        <ele>616</ele>
        <time>2012-08-04T07:18:28Z</time>
      </trkpt>
      <trkpt lat="45.6369" lon="4.62517">
        <ele>616</ele>
        <time>2012-08-04T07:18:43Z</time>
      </trkpt>
      <trkpt lat="45.63691" lon="4.62519">
        <ele>616</ele>
        <time>2012-08-04T07:18:59Z</time>
      </trkpt>
      <trkpt lat="45.6369" lon="4.62515">
        <ele>616</ele>
        <time>2012-08-04T07:19:12Z</time>
      </trkpt>
      <trkpt lat="45.63691" lon="4.62514">
        <ele>615</ele>
        <time>2012-08-04T07:19:24Z</time>
      </trkpt>
      <trkpt lat="45.63693" lon="4.62512">
        <ele>615</ele>
        <time>2012-08-04T07:19:25Z</time>
      </trkpt>
      <trkpt lat="45.63694" lon="4.62509">
        <ele>615</ele>
        <time>2012-08-04T07:19:26Z</time>
      </trkpt>
      <trkpt lat="45.63701" lon="4.625">
        <ele>616</ele>
        <time>2012-08-04T07:19:31Z</time>
      </trkpt>
      <trkpt lat="45.63702" lon="4.625">
        <ele>616</ele>
        <time>2012-08-04T07:19:32Z</time>
      </trkpt>
      <trkpt lat="45.63712" lon="4.62494">
        <ele>618</ele>
        <time>2012-08-04T07:19:39Z</time>
      </trkpt>
      <trkpt lat="45.63722" lon="4.62481">
        <ele>619</ele>
        <time>2012-08-04T07:19:47Z</time>
      </trkpt>
      <trkpt lat="45.63738" lon="4.62456">
        <ele>620</ele>
        <time>2012-08-04T07:19:57Z</time>
      </trkpt>
      <trkpt lat="45.63744" lon="4.62438">
        <ele>619</ele>
        <time>2012-08-04T07:20:01Z</time>
      </trkpt>
      <trkpt lat="45.63743" lon="4.62434">
        <ele>620</ele>
        <time>2012-08-04T07:20:02Z</time>
      </trkpt>
      <trkpt lat="45.63736" lon="4.62411">
        <ele>620</ele>
        <time>2012-08-04T07:20:09Z</time>
      </trkpt>
      <trkpt lat="45.63729" lon="4.6239">
        <ele>621</ele>
        <time>2012-08-04T07:20:16Z</time>
      </trkpt>
      <trkpt lat="45.63717" lon="4.62366">
        <ele>623</ele>
        <time>2012-08-04T07:20:26Z</time>
      </trkpt>
      <trkpt lat="45.63719" lon="4.62341">
        <ele>624</ele>
        <time>2012-08-04T07:20:35Z</time>
      </trkpt>
      <trkpt lat="45.63724" lon="4.62322">
        <ele>625</ele>
        <time>2012-08-04T07:20:42Z</time>
      </trkpt>
      <trkpt lat="45.63731" lon="4.623">
        <ele>626</ele>
        <time>2012-08-04T07:20:50Z</time>
      </trkpt>
      <trkpt lat="45.63745" lon="4.62277">
        <ele>628</ele>
        <time>2012-08-04T07:21:00Z</time>
      </trkpt>
      <trkpt lat="45.63752" lon="4.62265">
        <ele>629</ele>
        <time>2012-08-04T07:21:07Z</time>
      </trkpt>
      <trkpt lat="45.63761" lon="4.62247">
        <ele>629</ele>
        <time>2012-08-04T07:21:15Z</time>
      </trkpt>
      <trkpt lat="45.63772" lon="4.62227">
        <ele>629</ele>
        <time>2012-08-04T07:21:23Z</time>
      </trkpt>
      <trkpt lat="45.63791" lon="4.62191">
        <ele>629</ele>
        <time>2012-08-04T07:21:34Z</time>
      </trkpt>
      <trkpt lat="45.63804" lon="4.62158">
        <ele>630</ele>
        <time>2012-08-04T07:21:44Z</time>
      </trkpt>
      <trkpt lat="45.63818" lon="4.62132">
        <ele>631</ele>
        <time>2012-08-04T07:21:53Z</time>
      </trkpt>
      <trkpt lat="45.63836" lon="4.62104">
        <ele>632</ele>
        <time>2012-08-04T07:22:03Z</time>
      </trkpt>
      <trkpt lat="45.63857" lon="4.62075">
        <ele>632</ele>
        <time>2012-08-04T07:22:14Z</time>
      </trkpt>
      <trkpt lat="45.63873" lon="4.62053">
        <ele>633</ele>
        <time>2012-08-04T07:22:24Z</time>
      </trkpt>
      <trkpt lat="45.63883" lon="4.62032">
        <ele>633</ele>
        <time>2012-08-04T07:22:31Z</time>
      </trkpt>
      <trkpt lat="45.63891" lon="4.62016">
        <ele>633</ele>
        <time>2012-08-04T07:22:37Z</time>
      </trkpt>
      <trkpt lat="45.63897" lon="4.61989">
        <ele>633</ele>
        <time>2012-08-04T07:22:45Z</time>
      </trkpt>
      <trkpt lat="45.63891" lon="4.61957">
        <ele>634</ele>
        <time>2012-08-04T07:22:54Z</time>
      </trkpt>
      <trkpt lat="45.63883" lon="4.61933">
        <ele>634</ele>
        <time>2012-08-04T07:23:02Z</time>
      </trkpt>
      <trkpt lat="45.63875" lon="4.61914">
        <ele>636</ele>
        <time>2012-08-04T07:23:10Z</time>
      </trkpt>
      <trkpt lat="45.63866" lon="4.61892">
        <ele>637</ele>
        <time>2012-08-04T07:23:18Z</time>
      </trkpt>
      <trkpt lat="45.63864" lon="4.61882">
        <ele>638</ele>
        <time>2012-08-04T07:23:21Z</time>
      </trkpt>
      <trkpt lat="45.63864" lon="4.61862">
        <ele>640</ele>
        <time>2012-08-04T07:23:28Z</time>
      </trkpt>
      <trkpt lat="45.63867" lon="4.61851">
        <ele>641</ele>
        <time>2012-08-04T07:23:36Z</time>
      </trkpt>
      <trkpt lat="45.63868" lon="4.61845">
        <ele>640</ele>
        <time>2012-08-04T07:23:45Z</time>
      </trkpt>
      <trkpt lat="45.63868" lon="4.61845">
        <ele>640</ele>
        <time>2012-08-04T07:23:54Z</time>
      </trkpt>
      <trkpt lat="45.63868" lon="4.61848">
        <ele>640</ele>
        <time>2012-08-04T07:23:58Z</time>
      </trkpt>
      <trkpt lat="45.63866" lon="4.61858">
        <ele>640</ele>
        <time>2012-08-04T07:24:06Z</time>
      </trkpt>
      <trkpt lat="45.63864" lon="4.61859">
        <ele>640</ele>
        <time>2012-08-04T07:24:15Z</time>
      </trkpt>
      <trkpt lat="45.63865" lon="4.61862">
        <ele>640</ele>
        <time>2012-08-04T07:24:20Z</time>
      </trkpt>
      <trkpt lat="45.63864" lon="4.61861">
        <ele>640</ele>
        <time>2012-08-04T07:24:42Z</time>
      </trkpt>
      <trkpt lat="45.63862" lon="4.61861">
        <ele>640</ele>
        <time>2012-08-04T07:25:05Z</time>
      </trkpt>
      <trkpt lat="45.63863" lon="4.61861">
        <ele>640</ele>
        <time>2012-08-04T07:25:27Z</time>
      </trkpt>
      <trkpt lat="45.63863" lon="4.6186">
        <ele>640</ele>
        <time>2012-08-04T07:25:56Z</time>
      </trkpt>
      <trkpt lat="45.63863" lon="4.61859">
        <ele>639</ele>
        <time>2012-08-04T07:26:23Z</time>
      </trkpt>
      <trkpt lat="45.63863" lon="4.61859">
        <ele>640</ele>
        <time>2012-08-04T07:26:48Z</time>
      </trkpt>
      <trkpt lat="45.63863" lon="4.61858">
        <ele>640</ele>
        <time>2012-08-04T07:27:11Z</time>
      </trkpt>
      <trkpt lat="45.63864" lon="4.61858">
        <ele>640</ele>
        <time>2012-08-04T07:27:37Z</time>
      </trkpt>
      <trkpt lat="45.63863" lon="4.61858">
        <ele>640</ele>
        <time>2012-08-04T07:27:57Z</time>
      </trkpt>
      <trkpt lat="45.63864" lon="4.61858">
        <ele>640</ele>
        <time>2012-08-04T07:28:18Z</time>
      </trkpt>
      <trkpt lat="45.63864" lon="4.61859">
        <ele>641</ele>
        <time>2012-08-04T07:28:39Z</time>
      </trkpt>
      <trkpt lat="45.63863" lon="4.61859">
        <ele>641</ele>
        <time>2012-08-04T07:29:05Z</time>
      </trkpt>
      <trkpt lat="45.63863" lon="4.61859">
        <ele>640</ele>
        <time>2012-08-04T07:29:28Z</time>
      </trkpt>
      <trkpt lat="45.63863" lon="4.61859">
        <ele>641</ele>
        <time>2012-08-04T07:29:48Z</time>
      </trkpt>
      <trkpt lat="45.63864" lon="4.61861">
        <ele>641</ele>
        <time>2012-08-04T07:30:12Z</time>
      </trkpt>
      <trkpt lat="45.63864" lon="4.61862">
        <ele>641</ele>
        <time>2012-08-04T07:30:34Z</time>
      </trkpt>
      <trkpt lat="45.63865" lon="4.6186">
        <ele>641</ele>
        <time>2012-08-04T07:30:58Z</time>
      </trkpt>
      <trkpt lat="45.63865" lon="4.61861">
        <ele>641</ele>
        <time>2012-08-04T07:31:24Z</time>
      </trkpt>
      <trkpt lat="45.63864" lon="4.61859">
        <ele>641</ele>
        <time>2012-08-04T07:31:51Z</time>
      </trkpt>
      <trkpt lat="45.63863" lon="4.6186">
        <ele>641</ele>
        <time>2012-08-04T07:32:14Z</time>
      </trkpt>
      <trkpt lat="45.63864" lon="4.61862">
        <ele>641</ele>
        <time>2012-08-04T07:32:38Z</time>
      </trkpt>
      <trkpt lat="45.63866" lon="4.6186">
        <ele>641</ele>
        <time>2012-08-04T07:33:06Z</time>
      </trkpt>
      <trkpt lat="45.63865" lon="4.61862">
        <ele>641</ele>
        <time>2012-08-04T07:33:31Z</time>
      </trkpt>
      <trkpt lat="45.63865" lon="4.6186">
        <ele>641</ele>
        <time>2012-08-04T07:33:52Z</time>
      </trkpt>
      <trkpt lat="45.63867" lon="4.6186">
        <ele>641</ele>
        <time>2012-08-04T07:34:22Z</time>
      </trkpt>
      <trkpt lat="45.63866" lon="4.61858">
        <ele>642</ele>
        <time>2012-08-04T07:34:48Z</time>
      </trkpt>
      <trkpt lat="45.63867" lon="4.61859">
        <ele>641</ele>
        <time>2012-08-04T07:35:13Z</time>
      </trkpt>
      <trkpt lat="45.63866" lon="4.61858">
        <ele>641</ele>
        <time>2012-08-04T07:35:22Z</time>
      </trkpt>
      <trkpt lat="45.63865" lon="4.61858">
        <ele>641</ele>
        <time>2012-08-04T07:35:35Z</time>
      </trkpt>
      <trkpt lat="45.63866" lon="4.61855">
        <ele>642</ele>
        <time>2012-08-04T07:35:37Z</time>
      </trkpt>
      <trkpt lat="45.63866" lon="4.61853">
        <ele>641</ele>
        <time>2012-08-04T07:35:38Z</time>
      </trkpt>
      <trkpt lat="45.63867" lon="4.6185">
        <ele>642</ele>
        <time>2012-08-04T07:35:39Z</time>
      </trkpt>
      <trkpt lat="45.6387" lon="4.61828">
        <ele>641</ele>
        <time>2012-08-04T07:35:47Z</time>
      </trkpt>
      <trkpt lat="45.6387" lon="4.61826">
        <ele>642</ele>
        <time>2012-08-04T07:35:52Z</time>
      </trkpt>
      <trkpt lat="45.63871" lon="4.61819">
        <ele>641</ele>
        <time>2012-08-04T07:35:59Z</time>
      </trkpt>
      <trkpt lat="45.63877" lon="4.61795">
        <ele>640</ele>
        <time>2012-08-04T07:36:06Z</time>
      </trkpt>
      <trkpt lat="45.63881" lon="4.61777">
        <ele>640</ele>
        <time>2012-08-04T07:36:10Z</time>
      </trkpt>
      <trkpt lat="45.63891" lon="4.61742">
        <ele>640</ele>
        <time>2012-08-04T07:36:17Z</time>
      </trkpt>
      <trkpt lat="45.63894" lon="4.61713">
        <ele>639</ele>
        <time>2012-08-04T07:36:23Z</time>
      </trkpt>
      <trkpt lat="45.63898" lon="4.61679">
        <ele>640</ele>
        <time>2012-08-04T07:36:31Z</time>
      </trkpt>
      <trkpt lat="45.63903" lon="4.61649">
        <ele>641</ele>
        <time>2012-08-04T07:36:38Z</time>
      </trkpt>
      <trkpt lat="45.6391" lon="4.61625">
        <ele>641</ele>
        <time>2012-08-04T07:36:45Z</time>
      </trkpt>
      <trkpt lat="45.63912" lon="4.61617">
        <ele>640</ele>
        <time>2012-08-04T07:36:47Z</time>
      </trkpt>
      <trkpt lat="45.63911" lon="4.61611">
        <ele>640</ele>
        <time>2012-08-04T07:36:48Z</time>
      </trkpt>
      <trkpt lat="45.63905" lon="4.61591">
        <ele>639</ele>
        <time>2012-08-04T07:36:51Z</time>
      </trkpt>
      <trkpt lat="45.63888" lon="4.61523">
        <ele>636</ele>
        <time>2012-08-04T07:36:58Z</time>
      </trkpt>
      <trkpt lat="45.63881" lon="4.61459">
        <ele>633</ele>
        <time>2012-08-04T07:37:04Z</time>
      </trkpt>
      <trkpt lat="45.6388" lon="4.61447">
        <ele>632</ele>
        <time>2012-08-04T07:37:06Z</time>
      </trkpt>
      <trkpt lat="45.6388" lon="4.61441">
        <ele>632</ele>
        <time>2012-08-04T07:37:07Z</time>
      </trkpt>
      <trkpt lat="45.63882" lon="4.61437">
        <ele>632</ele>
        <time>2012-08-04T07:37:08Z</time>
      </trkpt>
      <trkpt lat="45.63884" lon="4.61433">
        <ele>632</ele>
        <time>2012-08-04T07:37:09Z</time>
      </trkpt>
      <trkpt lat="45.63886" lon="4.6143">
        <ele>633</ele>
        <time>2012-08-04T07:37:10Z</time>
      </trkpt>
      <trkpt lat="45.63888" lon="4.61426">
        <ele>632</ele>
        <time>2012-08-04T07:37:11Z</time>
      </trkpt>
      <trkpt lat="45.63889" lon="4.61422">
        <ele>633</ele>
        <time>2012-08-04T07:37:12Z</time>
      </trkpt>
      <trkpt lat="45.63905" lon="4.61381">
        <ele>632</ele>
        <time>2012-08-04T07:37:21Z</time>
      </trkpt>
      <trkpt lat="45.63923" lon="4.61336">
        <ele>633</ele>
        <time>2012-08-04T07:37:30Z</time>
      </trkpt>
      <trkpt lat="45.63943" lon="4.61284">
        <ele>633</ele>
        <time>2012-08-04T07:37:41Z</time>
      </trkpt>
      <trkpt lat="45.6396" lon="4.61241">
        <ele>633</ele>
        <time>2012-08-04T07:37:50Z</time>
      </trkpt>
      <trkpt lat="45.63967" lon="4.6121">
        <ele>633</ele>
        <time>2012-08-04T07:37:56Z</time>
      </trkpt>
      <trkpt lat="45.63967" lon="4.61198">
        <ele>633</ele>
        <time>2012-08-04T07:37:58Z</time>
      </trkpt>
      <trkpt lat="45.63966" lon="4.61179">
        <ele>633</ele>
        <time>2012-08-04T07:38:01Z</time>
      </trkpt>
      <trkpt lat="45.63965" lon="4.61173">
        <ele>633</ele>
        <time>2012-08-04T07:38:02Z</time>
      </trkpt>
      <trkpt lat="45.63953" lon="4.6111">
        <ele>632</ele>
        <time>2012-08-04T07:38:11Z</time>
      </trkpt>
      <trkpt lat="45.63947" lon="4.6109">
        <ele>632</ele>
        <time>2012-08-04T07:38:14Z</time>
      </trkpt>
      <trkpt lat="45.63945" lon="4.61076">
        <ele>631</ele>
        <time>2012-08-04T07:38:16Z</time>
      </trkpt>
      <trkpt lat="45.6394" lon="4.61056">
        <ele>631</ele>
        <time>2012-08-04T07:38:19Z</time>
      </trkpt>
      <trkpt lat="45.63938" lon="4.61028">
        <ele>631</ele>
        <time>2012-08-04T07:38:23Z</time>
      </trkpt>
      <trkpt lat="45.63939" lon="4.61022">
        <ele>630</ele>
        <time>2012-08-04T07:38:24Z</time>
      </trkpt>
      <trkpt lat="45.63941" lon="4.61015">
        <ele>630</ele>
        <time>2012-08-04T07:38:25Z</time>
      </trkpt>
      <trkpt lat="45.63943" lon="4.61008">
        <ele>630</ele>
        <time>2012-08-04T07:38:26Z</time>
      </trkpt>
      <trkpt lat="45.63946" lon="4.61002">
        <ele>630</ele>
        <time>2012-08-04T07:38:27Z</time>
      </trkpt>
      <trkpt lat="45.6395" lon="4.60997">
        <ele>629</ele>
        <time>2012-08-04T07:38:28Z</time>
      </trkpt>
      <trkpt lat="45.63954" lon="4.60993">
        <ele>629</ele>
        <time>2012-08-04T07:38:29Z</time>
      </trkpt>
      <trkpt lat="45.63958" lon="4.60991">
        <ele>629</ele>
        <time>2012-08-04T07:38:30Z</time>
      </trkpt>
      <trkpt lat="45.63962" lon="4.6099">
        <ele>629</ele>
        <time>2012-08-04T07:38:31Z</time>
      </trkpt>
      <trkpt lat="45.63967" lon="4.60991">
        <ele>630</ele>
        <time>2012-08-04T07:38:32Z</time>
      </trkpt>
      <trkpt lat="45.63971" lon="4.60993">
        <ele>629</ele>
        <time>2012-08-04T07:38:33Z</time>
      </trkpt>
      <trkpt lat="45.63976" lon="4.60995">
        <ele>630</ele>
        <time>2012-08-04T07:38:34Z</time>
      </trkpt>
      <trkpt lat="45.63985" lon="4.61">
        <ele>630</ele>
        <time>2012-08-04T07:38:36Z</time>
      </trkpt>
      <trkpt lat="45.64023" lon="4.61028">
        <ele>630</ele>
        <time>2012-08-04T07:38:44Z</time>
      </trkpt>
      <trkpt lat="45.64028" lon="4.61032">
        <ele>630</ele>
        <time>2012-08-04T07:38:45Z</time>
      </trkpt>
      <trkpt lat="45.64052" lon="4.6105">
        <ele>629</ele>
        <time>2012-08-04T07:38:50Z</time>
      </trkpt>
      <trkpt lat="45.64057" lon="4.61052">
        <ele>629</ele>
        <time>2012-08-04T07:38:51Z</time>
      </trkpt>
      <trkpt lat="45.64062" lon="4.61053">
        <ele>629</ele>
        <time>2012-08-04T07:38:52Z</time>
      </trkpt>
      <trkpt lat="45.64066" lon="4.61053">
        <ele>629</ele>
        <time>2012-08-04T07:38:53Z</time>
      </trkpt>
      <trkpt lat="45.64071" lon="4.61052">
        <ele>629</ele>
        <time>2012-08-04T07:38:54Z</time>
      </trkpt>
      <trkpt lat="45.64079" lon="4.61053">
        <ele>630</ele>
        <time>2012-08-04T07:38:58Z</time>
      </trkpt>
      <trkpt lat="45.64087" lon="4.61054">
        <ele>632</ele>
        <time>2012-08-04T07:39:04Z</time>
      </trkpt>
      <trkpt lat="45.64097" lon="4.61053">
        <ele>633</ele>
        <time>2012-08-04T07:39:10Z</time>
      </trkpt>
      <trkpt lat="45.64106" lon="4.61052">
        <ele>634</ele>
        <time>2012-08-04T07:39:17Z</time>
      </trkpt>
      <trkpt lat="45.64116" lon="4.6105">
        <ele>635</ele>
        <time>2012-08-04T07:39:24Z</time>
      </trkpt>
      <trkpt lat="45.64127" lon="4.61049">
        <ele>637</ele>
        <time>2012-08-04T07:39:31Z</time>
      </trkpt>
      <trkpt lat="45.64142" lon="4.61049">
        <ele>639</ele>
        <time>2012-08-04T07:39:40Z</time>
      </trkpt>
      <trkpt lat="45.64152" lon="4.61048">
        <ele>640</ele>
        <time>2012-08-04T07:39:47Z</time>
      </trkpt>
      <trkpt lat="45.64159" lon="4.61048">
        <ele>642</ele>
        <time>2012-08-04T07:39:51Z</time>
      </trkpt>
      <trkpt lat="45.64162" lon="4.61047">
        <ele>643</ele>
        <time>2012-08-04T07:39:52Z</time>
      </trkpt>
      <trkpt lat="45.64172" lon="4.6104">
        <ele>644</ele>
        <time>2012-08-04T07:39:57Z</time>
      </trkpt>
      <trkpt lat="45.64176" lon="4.61039">
        <ele>645</ele>
        <time>2012-08-04T07:39:59Z</time>
      </trkpt>
      <trkpt lat="45.64178" lon="4.61039">
        <ele>645</ele>
        <time>2012-08-04T07:40:00Z</time>
      </trkpt>
      <trkpt lat="45.64182" lon="4.6104">
        <ele>646</ele>
        <time>2012-08-04T07:40:02Z</time>
      </trkpt>
      <trkpt lat="45.64184" lon="4.6104">
        <ele>646</ele>
        <time>2012-08-04T07:40:03Z</time>
      </trkpt>
      <trkpt lat="45.64194" lon="4.61038">
        <ele>647</ele>
        <time>2012-08-04T07:40:10Z</time>
      </trkpt>
      <trkpt lat="45.64204" lon="4.61037">
        <ele>647</ele>
        <time>2012-08-04T07:40:17Z</time>
      </trkpt>
      <trkpt lat="45.64214" lon="4.61032">
        <ele>649</ele>
        <time>2012-08-04T07:40:24Z</time>
      </trkpt>
      <trkpt lat="45.64218" lon="4.61028">
        <ele>649</ele>
        <time>2012-08-04T07:40:29Z</time>
      </trkpt>
      <trkpt lat="45.64224" lon="4.61025">
        <ele>651</ele>
        <time>2012-08-04T07:40:35Z</time>
      </trkpt>
      <trkpt lat="45.64235" lon="4.61018">
        <ele>652</ele>
        <time>2012-08-04T07:40:42Z</time>
      </trkpt>
      <trkpt lat="45.64249" lon="4.61012">
        <ele>653</ele>
        <time>2012-08-04T07:40:49Z</time>
      </trkpt>
      <trkpt lat="45.64256" lon="4.61009">
        <ele>653</ele>
        <time>2012-08-04T07:40:53Z</time>
      </trkpt>
      <trkpt lat="45.64258" lon="4.61008">
        <ele>653</ele>
        <time>2012-08-04T07:40:54Z</time>
      </trkpt>
      <trkpt lat="45.64268" lon="4.61003">
        <ele>653</ele>
        <time>2012-08-04T07:41:00Z</time>
      </trkpt>
      <trkpt lat="45.6427" lon="4.61002">
        <ele>653</ele>
        <time>2012-08-04T07:41:01Z</time>
      </trkpt>
      <trkpt lat="45.64281" lon="4.60995">
        <ele>654</ele>
        <time>2012-08-04T07:41:08Z</time>
      </trkpt>
      <trkpt lat="45.64287" lon="4.6099">
        <ele>655</ele>
        <time>2012-08-04T07:41:11Z</time>
      </trkpt>
      <trkpt lat="45.6429" lon="4.60986">
        <ele>655</ele>
        <time>2012-08-04T07:41:13Z</time>
      </trkpt>
      <trkpt lat="45.64293" lon="4.60984">
        <ele>655</ele>
        <time>2012-08-04T07:41:14Z</time>
      </trkpt>
      <trkpt lat="45.64309" lon="4.60978">
        <ele>653</ele>
        <time>2012-08-04T07:41:20Z</time>
      </trkpt>
      <trkpt lat="45.64313" lon="4.60974">
        <ele>652</ele>
        <time>2012-08-04T07:41:21Z</time>
      </trkpt>
      <trkpt lat="45.64318" lon="4.60969">
        <ele>653</ele>
        <time>2012-08-04T07:41:22Z</time>
      </trkpt>
      <trkpt lat="45.64322" lon="4.60964">
        <ele>653</ele>
        <time>2012-08-04T07:41:23Z</time>
      </trkpt>
      <trkpt lat="45.64326" lon="4.60958">
        <ele>652</ele>
        <time>2012-08-04T07:41:24Z</time>
      </trkpt>
      <trkpt lat="45.64334" lon="4.60948">
        <ele>651</ele>
        <time>2012-08-04T07:41:26Z</time>
      </trkpt>
      <trkpt lat="45.64346" lon="4.60923">
        <ele>648</ele>
        <time>2012-08-04T07:41:31Z</time>
      </trkpt>
      <trkpt lat="45.64352" lon="4.60908">
        <ele>645</ele>
        <time>2012-08-04T07:41:35Z</time>
      </trkpt>
      <trkpt lat="45.64354" lon="4.60896">
        <ele>642</ele>
        <time>2012-08-04T07:41:39Z</time>
      </trkpt>
      <trkpt lat="45.64355" lon="4.60893">
        <ele>641</ele>
        <time>2012-08-04T07:41:40Z</time>
      </trkpt>
      <trkpt lat="45.64358" lon="4.60887">
        <ele>640</ele>
        <time>2012-08-04T07:41:42Z</time>
      </trkpt>
      <trkpt lat="45.64362" lon="4.60881">
        <ele>638</ele>
        <time>2012-08-04T07:41:44Z</time>
      </trkpt>
      <trkpt lat="45.64378" lon="4.60866">
        <ele>637</ele>
        <time>2012-08-04T07:41:50Z</time>
      </trkpt>
      <trkpt lat="45.64403" lon="4.60856">
        <ele>636</ele>
        <time>2012-08-04T07:41:58Z</time>
      </trkpt>
      <trkpt lat="45.64417" lon="4.60854">
        <ele>637</ele>
        <time>2012-08-04T07:42:03Z</time>
      </trkpt>
      <trkpt lat="45.64434" lon="4.60855">
        <ele>636</ele>
        <time>2012-08-04T07:42:10Z</time>
      </trkpt>
      <trkpt lat="45.6445" lon="4.60854">
        <ele>638</ele>
        <time>2012-08-04T07:42:17Z</time>
      </trkpt>
      <trkpt lat="45.64462" lon="4.60855">
        <ele>639</ele>
        <time>2012-08-04T07:42:22Z</time>
      </trkpt>
      <trkpt lat="45.64481" lon="4.60857">
        <ele>640</ele>
        <time>2012-08-04T07:42:29Z</time>
      </trkpt>
      <trkpt lat="45.64499" lon="4.60855">
        <ele>640</ele>
        <time>2012-08-04T07:42:36Z</time>
      </trkpt>
      <trkpt lat="45.64518" lon="4.60853">
        <ele>639</ele>
        <time>2012-08-04T07:42:42Z</time>
      </trkpt>
      <trkpt lat="45.64535" lon="4.60841">
        <ele>637</ele>
        <time>2012-08-04T07:42:48Z</time>
      </trkpt>
      <trkpt lat="45.64554" lon="4.6082">
        <ele>636</ele>
        <time>2012-08-04T07:42:54Z</time>
      </trkpt>
      <trkpt lat="45.64571" lon="4.60795">
        <ele>634</ele>
        <time>2012-08-04T07:43:00Z</time>
      </trkpt>
      <trkpt lat="45.64578" lon="4.60777">
        <ele>633</ele>
        <time>2012-08-04T07:43:08Z</time>
      </trkpt>
      <trkpt lat="45.64581" lon="4.60761">
        <ele>633</ele>
        <time>2012-08-04T07:43:14Z</time>
      </trkpt>
      <trkpt lat="45.64582" lon="4.60759">
        <ele>633</ele>
        <time>2012-08-04T07:43:15Z</time>
      </trkpt>
      <trkpt lat="45.64583" lon="4.60757">
        <ele>632</ele>
        <time>2012-08-04T07:43:16Z</time>
      </trkpt>
      <trkpt lat="45.64587" lon="4.60741">
        <ele>632</ele>
        <time>2012-08-04T07:43:22Z</time>
      </trkpt>
      <trkpt lat="45.64599" lon="4.60725">
        <ele>632</ele>
        <time>2012-08-04T07:43:29Z</time>
      </trkpt>
      <trkpt lat="45.64613" lon="4.60714">
        <ele>631</ele>
        <time>2012-08-04T07:43:35Z</time>
      </trkpt>
      <trkpt lat="45.64633" lon="4.60709">
        <ele>631</ele>
        <time>2012-08-04T07:43:42Z</time>
      </trkpt>
      <trkpt lat="45.64649" lon="4.60709">
        <ele>631</ele>
        <time>2012-08-04T07:43:49Z</time>
      </trkpt>
      <trkpt lat="45.64663" lon="4.60709">
        <ele>632</ele>
        <time>2012-08-04T07:43:56Z</time>
      </trkpt>
      <trkpt lat="45.64664" lon="4.60708">
        <ele>631</ele>
        <time>2012-08-04T07:44:06Z</time>
      </trkpt>
      <trkpt lat="45.64667" lon="4.60709">
        <ele>631</ele>
        <time>2012-08-04T07:44:20Z</time>
      </trkpt>
      <trkpt lat="45.64668" lon="4.60708">
        <ele>631</ele>
        <time>2012-08-04T07:44:26Z</time>
      </trkpt>
      <trkpt lat="45.64679" lon="4.60706">
        <ele>632</ele>
        <time>2012-08-04T07:44:33Z</time>
      </trkpt>
      <trkpt lat="45.64692" lon="4.607">
        <ele>632</ele>
        <time>2012-08-04T07:44:39Z</time>
      </trkpt>
      <trkpt lat="45.6471" lon="4.60685">
        <ele>632</ele>
        <time>2012-08-04T07:44:46Z</time>
      </trkpt>
      <trkpt lat="45.64724" lon="4.60671">
        <ele>631</ele>
        <time>2012-08-04T07:44:53Z</time>
      </trkpt>
      <trkpt lat="45.64739" lon="4.60666">
        <ele>628</ele>
        <time>2012-08-04T07:44:59Z</time>
      </trkpt>
      <trkpt lat="45.64754" lon="4.60669">
        <ele>626</ele>
        <time>2012-08-04T07:45:06Z</time>
      </trkpt>
      <trkpt lat="45.64762" lon="4.60676">
        <ele>624</ele>
        <time>2012-08-04T07:45:10Z</time>
      </trkpt>
      <trkpt lat="45.64763" lon="4.60678">
        <ele>624</ele>
        <time>2012-08-04T07:45:11Z</time>
      </trkpt>
      <trkpt lat="45.64765" lon="4.6068">
        <ele>623</ele>
        <time>2012-08-04T07:45:12Z</time>
      </trkpt>
      <trkpt lat="45.64766" lon="4.60683">
        <ele>623</ele>
        <time>2012-08-04T07:45:13Z</time>
      </trkpt>
      <trkpt lat="45.64767" lon="4.60686">
        <ele>623</ele>
        <time>2012-08-04T07:45:14Z</time>
      </trkpt>
      <trkpt lat="45.64767" lon="4.60689">
        <ele>623</ele>
        <time>2012-08-04T07:45:15Z</time>
      </trkpt>
      <trkpt lat="45.64766" lon="4.60693">
        <ele>622</ele>
        <time>2012-08-04T07:45:16Z</time>
      </trkpt>
      <trkpt lat="45.64766" lon="4.60696">
        <ele>623</ele>
        <time>2012-08-04T07:45:17Z</time>
      </trkpt>
      <trkpt lat="45.64766" lon="4.60699">
        <ele>623</ele>
        <time>2012-08-04T07:45:18Z</time>
      </trkpt>
      <trkpt lat="45.64767" lon="4.60702">
        <ele>623</ele>
        <time>2012-08-04T07:45:19Z</time>
      </trkpt>
      <trkpt lat="45.64769" lon="4.60704">
        <ele>623</ele>
        <time>2012-08-04T07:45:20Z</time>
      </trkpt>
      <trkpt lat="45.6477" lon="4.60706">
        <ele>623</ele>
        <time>2012-08-04T07:45:21Z</time>
      </trkpt>
      <trkpt lat="45.64774" lon="4.60724">
        <ele>622</ele>
        <time>2012-08-04T07:45:26Z</time>
      </trkpt>
      <trkpt lat="45.64781" lon="4.60741">
        <ele>618</ele>
        <time>2012-08-04T07:45:30Z</time>
      </trkpt>
      <trkpt lat="45.64785" lon="4.60743">
        <ele>618</ele>
        <time>2012-08-04T07:45:31Z</time>
      </trkpt>
      <trkpt lat="45.64789" lon="4.60746">
        <ele>617</ele>
        <time>2012-08-04T07:45:32Z</time>
      </trkpt>
      <trkpt lat="45.64792" lon="4.60749">
        <ele>617</ele>
        <time>2012-08-04T07:45:33Z</time>
      </trkpt>
      <trkpt lat="45.64804" lon="4.60759">
        <ele>616</ele>
        <time>2012-08-04T07:45:36Z</time>
      </trkpt>
      <trkpt lat="45.64808" lon="4.60764">
        <ele>615</ele>
        <time>2012-08-04T07:45:37Z</time>
      </trkpt>
      <trkpt lat="45.64814" lon="4.60776">
        <ele>614</ele>
        <time>2012-08-04T07:45:39Z</time>
      </trkpt>
      <trkpt lat="45.64822" lon="4.608">
        <ele>613</ele>
        <time>2012-08-04T07:45:43Z</time>
      </trkpt>
      <trkpt lat="45.64832" lon="4.60811">
        <ele>612</ele>
        <time>2012-08-04T07:45:47Z</time>
      </trkpt>
      <trkpt lat="45.64835" lon="4.6081">
        <ele>612</ele>
        <time>2012-08-04T07:45:48Z</time>
      </trkpt>
      <trkpt lat="45.64838" lon="4.60808">
        <ele>612</ele>
        <time>2012-08-04T07:45:49Z</time>
      </trkpt>
      <trkpt lat="45.64852" lon="4.60792">
        <ele>612</ele>
        <time>2012-08-04T07:45:55Z</time>
      </trkpt>
      <trkpt lat="45.64852" lon="4.60787">
        <ele>612</ele>
        <time>2012-08-04T07:45:56Z</time>
      </trkpt>
      <trkpt lat="45.64852" lon="4.60783">
        <ele>612</ele>
        <time>2012-08-04T07:45:57Z</time>
      </trkpt>
      <trkpt lat="45.64849" lon="4.60746">
        <ele>614</ele>
        <time>2012-08-04T07:46:05Z</time>
      </trkpt>
      <trkpt lat="45.6484" lon="4.60715">
        <ele>614</ele>
        <time>2012-08-04T07:46:12Z</time>
      </trkpt>
      <trkpt lat="45.64826" lon="4.6068">
        <ele>613</ele>
        <time>2012-08-04T07:46:20Z</time>
      </trkpt>
      <trkpt lat="45.64814" lon="4.60658">
        <ele>612</ele>
        <time>2012-08-04T07:46:25Z</time>
      </trkpt>
      <trkpt lat="45.64785" lon="4.60617">
        <ele>612</ele>
        <time>2012-08-04T07:46:35Z</time>
      </trkpt>
      <trkpt lat="45.64761" lon="4.60585">
        <ele>611</ele>
        <time>2012-08-04T07:46:43Z</time>
      </trkpt>
      <trkpt lat="45.64755" lon="4.60575">
        <ele>610</ele>
        <time>2012-08-04T07:46:45Z</time>
      </trkpt>
      <trkpt lat="45.64752" lon="4.60568">
        <ele>610</ele>
        <time>2012-08-04T07:46:46Z</time>
      </trkpt>
      <trkpt lat="45.64748" lon="4.60553">
        <ele>609</ele>
        <time>2012-08-04T07:46:48Z</time>
      </trkpt>
      <trkpt lat="45.64747" lon="4.60546">
        <ele>609</ele>
        <time>2012-08-04T07:46:49Z</time>
      </trkpt>
      <trkpt lat="45.64747" lon="4.60538">
        <ele>609</ele>
        <time>2012-08-04T07:46:50Z</time>
      </trkpt>
      <trkpt lat="45.64749" lon="4.6053">
        <ele>609</ele>
        <time>2012-08-04T07:46:51Z</time>
      </trkpt>
      <trkpt lat="45.64752" lon="4.60525">
        <ele>609</ele>
        <time>2012-08-04T07:46:52Z</time>
      </trkpt>
      <trkpt lat="45.64756" lon="4.60521">
        <ele>608</ele>
        <time>2012-08-04T07:46:53Z</time>
      </trkpt>
      <trkpt lat="45.64759" lon="4.60519">
        <ele>609</ele>
        <time>2012-08-04T07:46:54Z</time>
      </trkpt>
      <trkpt lat="45.64764" lon="4.60518">
        <ele>609</ele>
        <time>2012-08-04T07:46:55Z</time>
      </trkpt>
      <trkpt lat="45.64768" lon="4.60518">
        <ele>608</ele>
        <time>2012-08-04T07:46:56Z</time>
      </trkpt>
      <trkpt lat="45.64773" lon="4.60518">
        <ele>608</ele>
        <time>2012-08-04T07:46:57Z</time>
      </trkpt>
      <trkpt lat="45.64777" lon="4.60517">
        <ele>608</ele>
        <time>2012-08-04T07:46:58Z</time>
      </trkpt>
      <trkpt lat="45.64782" lon="4.60517">
        <ele>608</ele>
        <time>2012-08-04T07:46:59Z</time>
      </trkpt>
      <trkpt lat="45.64786" lon="4.60516">
        <ele>608</ele>
        <time>2012-08-04T07:47:00Z</time>
      </trkpt>
      <trkpt lat="45.64803" lon="4.60509">
        <ele>608</ele>
        <time>2012-08-04T07:47:04Z</time>
      </trkpt>
      <trkpt lat="45.6482" lon="4.60484">
        <ele>609</ele>
        <time>2012-08-04T07:47:10Z</time>
      </trkpt>
      <trkpt lat="45.64822" lon="4.60478">
        <ele>609</ele>
        <time>2012-08-04T07:47:11Z</time>
      </trkpt>
      <trkpt lat="45.64822" lon="4.60472">
        <ele>610</ele>
        <time>2012-08-04T07:47:12Z</time>
      </trkpt>
      <trkpt lat="45.64823" lon="4.60458">
        <ele>610</ele>
        <time>2012-08-04T07:47:14Z</time>
      </trkpt>
      <trkpt lat="45.64827" lon="4.60438">
        <ele>610</ele>
        <time>2012-08-04T07:47:17Z</time>
      </trkpt>
      <trkpt lat="45.64829" lon="4.60425">
        <ele>609</ele>
        <time>2012-08-04T07:47:19Z</time>
      </trkpt>
      <trkpt lat="45.64831" lon="4.60419">
        <ele>610</ele>
        <time>2012-08-04T07:47:20Z</time>
      </trkpt>
      <trkpt lat="45.64832" lon="4.60413">
        <ele>610</ele>
        <time>2012-08-04T07:47:21Z</time>
      </trkpt>
      <trkpt lat="45.64834" lon="4.60407">
        <ele>609</ele>
        <time>2012-08-04T07:47:22Z</time>
      </trkpt>
      <trkpt lat="45.64835" lon="4.60402">
        <ele>609</ele>
        <time>2012-08-04T07:47:23Z</time>
      </trkpt>
      <trkpt lat="45.64837" lon="4.60397">
        <ele>610</ele>
        <time>2012-08-04T07:47:24Z</time>
      </trkpt>
      <trkpt lat="45.64844" lon="4.60382">
        <ele>610</ele>
        <time>2012-08-04T07:47:27Z</time>
      </trkpt>
      <trkpt lat="45.64862" lon="4.60349">
        <ele>611</ele>
        <time>2012-08-04T07:47:35Z</time>
      </trkpt>
      <trkpt lat="45.64873" lon="4.60328">
        <ele>613</ele>
        <time>2012-08-04T07:47:41Z</time>
      </trkpt>
      <trkpt lat="45.64875" lon="4.60318">
        <ele>615</ele>
        <time>2012-08-04T07:47:47Z</time>
      </trkpt>
      <trkpt lat="45.64877" lon="4.60316">
        <ele>614</ele>
        <time>2012-08-04T07:47:49Z</time>
      </trkpt>
      <trkpt lat="45.64878" lon="4.60313">
        <ele>614</ele>
        <time>2012-08-04T07:47:50Z</time>
      </trkpt>
      <trkpt lat="45.64879" lon="4.6031">
        <ele>614</ele>
        <time>2012-08-04T07:47:51Z</time>
      </trkpt>
      <trkpt lat="45.64879" lon="4.60306">
        <ele>614</ele>
        <time>2012-08-04T07:47:52Z</time>
      </trkpt>
      <trkpt lat="45.6488" lon="4.60302">
        <ele>614</ele>
        <time>2012-08-04T07:47:53Z</time>
      </trkpt>
      <trkpt lat="45.6488" lon="4.60297">
        <ele>614</ele>
        <time>2012-08-04T07:47:54Z</time>
      </trkpt>
      <trkpt lat="45.64879" lon="4.60292">
        <ele>613</ele>
        <time>2012-08-04T07:47:55Z</time>
      </trkpt>
      <trkpt lat="45.64879" lon="4.60287">
        <ele>613</ele>
        <time>2012-08-04T07:47:56Z</time>
      </trkpt>
      <trkpt lat="45.64877" lon="4.6025">
        <ele>612</ele>
        <time>2012-08-04T07:48:03Z</time>
      </trkpt>
      <trkpt lat="45.64878" lon="4.60247">
        <ele>612</ele>
        <time>2012-08-04T07:48:04Z</time>
      </trkpt>
      <trkpt lat="45.64881" lon="4.60247">
        <ele>611</ele>
        <time>2012-08-04T07:48:05Z</time>
      </trkpt>
      <trkpt lat="45.64883" lon="4.60249">
        <ele>612</ele>
        <time>2012-08-04T07:48:06Z</time>
      </trkpt>
      <trkpt lat="45.64884" lon="4.60249">
        <ele>612</ele>
        <time>2012-08-04T07:48:07Z</time>
      </trkpt>
      <trkpt lat="45.64885" lon="4.60251">
        <ele>612</ele>
        <time>2012-08-04T07:48:08Z</time>
      </trkpt>
      <trkpt lat="45.64886" lon="4.60254">
        <ele>611</ele>
        <time>2012-08-04T07:48:09Z</time>
      </trkpt>
      <trkpt lat="45.64887" lon="4.60258">
        <ele>611</ele>
        <time>2012-08-04T07:48:10Z</time>
      </trkpt>
      <trkpt lat="45.64888" lon="4.60261">
        <ele>611</ele>
        <time>2012-08-04T07:48:11Z</time>
      </trkpt>
      <trkpt lat="45.64901" lon="4.60282">
        <ele>610</ele>
        <time>2012-08-04T07:48:16Z</time>
      </trkpt>
      <trkpt lat="45.64905" lon="4.60286">
        <ele>610</ele>
        <time>2012-08-04T07:48:17Z</time>
      </trkpt>
      <trkpt lat="45.64915" lon="4.60293">
        <ele>609</ele>
        <time>2012-08-04T07:48:19Z</time>
      </trkpt>
      <trkpt lat="45.6492" lon="4.60297">
        <ele>608</ele>
        <time>2012-08-04T07:48:20Z</time>
      </trkpt>
      <trkpt lat="45.64944" lon="4.60321">
        <ele>606</ele>
        <time>2012-08-04T07:48:25Z</time>
      </trkpt>
      <trkpt lat="45.64948" lon="4.60325">
        <ele>606</ele>
        <time>2012-08-04T07:48:26Z</time>
      </trkpt>
      <trkpt lat="45.64951" lon="4.60331">
        <ele>605</ele>
        <time>2012-08-04T07:48:27Z</time>
      </trkpt>
      <trkpt lat="45.64967" lon="4.60366">
        <ele>602</ele>
        <time>2012-08-04T07:48:32Z</time>
      </trkpt>
      <trkpt lat="45.6497" lon="4.60375">
        <ele>601</ele>
        <time>2012-08-04T07:48:33Z</time>
      </trkpt>
      <trkpt lat="45.6498" lon="4.6041">
        <ele>599</ele>
        <time>2012-08-04T07:48:37Z</time>
      </trkpt>
      <trkpt lat="45.64983" lon="4.60416">
        <ele>599</ele>
        <time>2012-08-04T07:48:38Z</time>
      </trkpt>
      <trkpt lat="45.64993" lon="4.60435">
        <ele>600</ele>
        <time>2012-08-04T07:48:43Z</time>
      </trkpt>
      <trkpt lat="45.65006" lon="4.60455">
        <ele>601</ele>
        <time>2012-08-04T07:48:49Z</time>
      </trkpt>
      <trkpt lat="45.65019" lon="4.60477">
        <ele>602</ele>
        <time>2012-08-04T07:48:57Z</time>
      </trkpt>
      <trkpt lat="45.65031" lon="4.60498">
        <ele>600</ele>
        <time>2012-08-04T07:49:03Z</time>
      </trkpt>
      <trkpt lat="45.6504" lon="4.60514">
        <ele>599</ele>
        <time>2012-08-04T07:49:06Z</time>
      </trkpt>
      <trkpt lat="45.6505" lon="4.60528">
        <ele>596</ele>
        <time>2012-08-04T07:49:09Z</time>
      </trkpt>
      <trkpt lat="45.65059" lon="4.60535">
        <ele>594</ele>
        <time>2012-08-04T07:49:11Z</time>
      </trkpt>
      <trkpt lat="45.65063" lon="4.60538">
        <ele>594</ele>
        <time>2012-08-04T07:49:12Z</time>
      </trkpt>
      <trkpt lat="45.65068" lon="4.60541">
        <ele>593</ele>
        <time>2012-08-04T07:49:13Z</time>
      </trkpt>
      <trkpt lat="45.6508" lon="4.60544">
        <ele>592</ele>
        <time>2012-08-04T07:49:15Z</time>
      </trkpt>
      <trkpt lat="45.65092" lon="4.60548">
        <ele>591</ele>
        <time>2012-08-04T07:49:17Z</time>
      </trkpt>
      <trkpt lat="45.65113" lon="4.60558">
        <ele>589</ele>
        <time>2012-08-04T07:49:21Z</time>
      </trkpt>
      <trkpt lat="45.65129" lon="4.60572">
        <ele>586</ele>
        <time>2012-08-04T07:49:25Z</time>
      </trkpt>
      <trkpt lat="45.65133" lon="4.60576">
        <ele>586</ele>
        <time>2012-08-04T07:49:26Z</time>
      </trkpt>
      <trkpt lat="45.65144" lon="4.6059">
        <ele>585</ele>
        <time>2012-08-04T07:49:29Z</time>
      </trkpt>
      <trkpt lat="45.65168" lon="4.60624">
        <ele>583</ele>
        <time>2012-08-04T07:49:36Z</time>
      </trkpt>
      <trkpt lat="45.65172" lon="4.60629">
        <ele>583</ele>
        <time>2012-08-04T07:49:37Z</time>
      </trkpt>
      <trkpt lat="45.6518" lon="4.60639">
        <ele>583</ele>
        <time>2012-08-04T07:49:39Z</time>
      </trkpt>
      <trkpt lat="45.65197" lon="4.60656">
        <ele>583</ele>
        <time>2012-08-04T07:49:44Z</time>
      </trkpt>
      <trkpt lat="45.65208" lon="4.60666">
        <ele>584</ele>
        <time>2012-08-04T07:49:50Z</time>
      </trkpt>
      <trkpt lat="45.6522" lon="4.60668">
        <ele>585</ele>
        <time>2012-08-04T07:49:56Z</time>
      </trkpt>
      <trkpt lat="45.65229" lon="4.60667">
        <ele>585</ele>
        <time>2012-08-04T07:50:02Z</time>
      </trkpt>
      <trkpt lat="45.65231" lon="4.60667">
        <ele>586</ele>
        <time>2012-08-04T07:50:04Z</time>
      </trkpt>
      <trkpt lat="45.65242" lon="4.6067">
        <ele>586</ele>
        <time>2012-08-04T07:50:09Z</time>
      </trkpt>
      <trkpt lat="45.65246" lon="4.60671">
        <ele>587</ele>
        <time>2012-08-04T07:50:10Z</time>
      </trkpt>
      <trkpt lat="45.6525" lon="4.60672">
        <ele>586</ele>
        <time>2012-08-04T07:50:11Z</time>
      </trkpt>
      <trkpt lat="45.65273" lon="4.60676">
        <ele>583</ele>
        <time>2012-08-04T07:50:17Z</time>
      </trkpt>
      <trkpt lat="45.65277" lon="4.60676">
        <ele>582</ele>
        <time>2012-08-04T07:50:18Z</time>
      </trkpt>
      <trkpt lat="45.65304" lon="4.60674">
        <ele>579</ele>
        <time>2012-08-04T07:50:23Z</time>
      </trkpt>
      <trkpt lat="45.65322" lon="4.60667">
        <ele>575</ele>
        <time>2012-08-04T07:50:28Z</time>
      </trkpt>
      <trkpt lat="45.65326" lon="4.60665">
        <ele>575</ele>
        <time>2012-08-04T07:50:29Z</time>
      </trkpt>
      <trkpt lat="45.6533" lon="4.60662">
        <ele>573</ele>
        <time>2012-08-04T07:50:30Z</time>
      </trkpt>
      <trkpt lat="45.65334" lon="4.60659">
        <ele>573</ele>
        <time>2012-08-04T07:50:31Z</time>
      </trkpt>
      <trkpt lat="45.65346" lon="4.60651">
        <ele>570</ele>
        <time>2012-08-04T07:50:34Z</time>
      </trkpt>
      <trkpt lat="45.65351" lon="4.60648">
        <ele>569</ele>
        <time>2012-08-04T07:50:35Z</time>
      </trkpt>
      <trkpt lat="45.65355" lon="4.60645">
        <ele>568</ele>
        <time>2012-08-04T07:50:36Z</time>
      </trkpt>
      <trkpt lat="45.65368" lon="4.6063">
        <ele>566</ele>
        <time>2012-08-04T07:50:40Z</time>
      </trkpt>
      <trkpt lat="45.65373" lon="4.60622">
        <ele>563</ele>
        <time>2012-08-04T07:50:42Z</time>
      </trkpt>
      <trkpt lat="45.65377" lon="4.60619">
        <ele>563</ele>
        <time>2012-08-04T07:50:43Z</time>
      </trkpt>
      <trkpt lat="45.65381" lon="4.60618">
        <ele>562</ele>
        <time>2012-08-04T07:50:44Z</time>
      </trkpt>
      <trkpt lat="45.65406" lon="4.60606">
        <ele>559</ele>
        <time>2012-08-04T07:50:50Z</time>
      </trkpt>
      <trkpt lat="45.65429" lon="4.60595">
        <ele>557</ele>
        <time>2012-08-04T07:50:53Z</time>
      </trkpt>
      <trkpt lat="45.65448" lon="4.60585">
        <ele>559</ele>
        <time>2012-08-04T07:50:57Z</time>
      </trkpt>
      <trkpt lat="45.6546" lon="4.60578">
        <ele>560</ele>
        <time>2012-08-04T07:51:03Z</time>
      </trkpt>
      <trkpt lat="45.65473" lon="4.60574">
        <ele>562</ele>
        <time>2012-08-04T07:51:12Z</time>
      </trkpt>
      <trkpt lat="45.65484" lon="4.6057">
        <ele>564</ele>
        <time>2012-08-04T07:51:20Z</time>
      </trkpt>
      <trkpt lat="45.65493" lon="4.60569">
        <ele>566</ele>
        <time>2012-08-04T07:51:28Z</time>
      </trkpt>
      <trkpt lat="45.65495" lon="4.60569">
        <ele>566</ele>
        <time>2012-08-04T07:51:29Z</time>
      </trkpt>
      <trkpt lat="45.65496" lon="4.6057">
        <ele>566</ele>
        <time>2012-08-04T07:51:30Z</time>
      </trkpt>
      <trkpt lat="45.65497" lon="4.60571">
        <ele>567</ele>
        <time>2012-08-04T07:51:31Z</time>
      </trkpt>
      <trkpt lat="45.65499" lon="4.60572">
        <ele>567</ele>
        <time>2012-08-04T07:51:32Z</time>
      </trkpt>
      <trkpt lat="45.655" lon="4.60573">
        <ele>567</ele>
        <time>2012-08-04T07:51:33Z</time>
      </trkpt>
      <trkpt lat="45.65503" lon="4.60573">
        <ele>568</ele>
        <time>2012-08-04T07:51:35Z</time>
      </trkpt>
      <trkpt lat="45.65513" lon="4.60576">
        <ele>570</ele>
        <time>2012-08-04T07:51:42Z</time>
      </trkpt>
      <trkpt lat="45.65514" lon="4.60577">
        <ele>570</ele>
        <time>2012-08-04T07:51:43Z</time>
      </trkpt>
      <trkpt lat="45.65522" lon="4.60582">
        <ele>572</ele>
        <time>2012-08-04T07:51:51Z</time>
      </trkpt>
      <trkpt lat="45.65526" lon="4.60578">
        <ele>572</ele>
        <time>2012-08-04T07:51:55Z</time>
      </trkpt>
      <trkpt lat="45.65529" lon="4.60563">
        <ele>573</ele>
        <time>2012-08-04T07:52:04Z</time>
      </trkpt>
      <trkpt lat="45.6553" lon="4.60562">
        <ele>573</ele>
        <time>2012-08-04T07:52:05Z</time>
      </trkpt>
      <trkpt lat="45.6553" lon="4.6056">
        <ele>573</ele>
        <time>2012-08-04T07:52:06Z</time>
      </trkpt>
      <trkpt lat="45.6553" lon="4.60557">
        <ele>573</ele>
        <time>2012-08-04T07:52:07Z</time>
      </trkpt>
      <trkpt lat="45.65531" lon="4.60556">
        <ele>573</ele>
        <time>2012-08-04T07:52:08Z</time>
      </trkpt>
      <trkpt lat="45.65531" lon="4.60554">
        <ele>573</ele>
        <time>2012-08-04T07:52:09Z</time>
      </trkpt>
      <trkpt lat="45.65532" lon="4.60551">
        <ele>573</ele>
        <time>2012-08-04T07:52:10Z</time>
      </trkpt>
      <trkpt lat="45.65532" lon="4.60549">
        <ele>573</ele>
        <time>2012-08-04T07:52:11Z</time>
      </trkpt>
      <trkpt lat="45.65533" lon="4.60545">
        <ele>573</ele>
        <time>2012-08-04T07:52:13Z</time>
      </trkpt>
      <trkpt lat="45.65533" lon="4.60543">
        <ele>574</ele>
        <time>2012-08-04T07:52:14Z</time>
      </trkpt>
      <trkpt lat="45.65533" lon="4.6054">
        <ele>574</ele>
        <time>2012-08-04T07:52:15Z</time>
      </trkpt>
      <trkpt lat="45.65534" lon="4.60538">
        <ele>574</ele>
        <time>2012-08-04T07:52:16Z</time>
      </trkpt>
      <trkpt lat="45.65535" lon="4.60536">
        <ele>574</ele>
        <time>2012-08-04T07:52:17Z</time>
      </trkpt>
      <trkpt lat="45.65536" lon="4.60534">
        <ele>574</ele>
        <time>2012-08-04T07:52:18Z</time>
      </trkpt>
      <trkpt lat="45.65536" lon="4.60532">
        <ele>574</ele>
        <time>2012-08-04T07:52:19Z</time>
      </trkpt>
      <trkpt lat="45.65536" lon="4.60529">
        <ele>574</ele>
        <time>2012-08-04T07:52:20Z</time>
      </trkpt>
      <trkpt lat="45.65541" lon="4.60509">
        <ele>575</ele>
        <time>2012-08-04T07:52:28Z</time>
      </trkpt>
      <trkpt lat="45.65541" lon="4.60507">
        <ele>575</ele>
        <time>2012-08-04T07:52:29Z</time>
      </trkpt>
      <trkpt lat="45.65542" lon="4.60505">
        <ele>575</ele>
        <time>2012-08-04T07:52:30Z</time>
      </trkpt>
      <trkpt lat="45.65549" lon="4.60479">
        <ele>575</ele>
        <time>2012-08-04T07:52:39Z</time>
      </trkpt>
      <trkpt lat="45.65555" lon="4.60455">
        <ele>576</ele>
        <time>2012-08-04T07:52:47Z</time>
      </trkpt>
      <trkpt lat="45.65563" lon="4.60425">
        <ele>577</ele>
        <time>2012-08-04T07:52:57Z</time>
      </trkpt>
      <trkpt lat="45.65573" lon="4.60393">
        <ele>578</ele>
        <time>2012-08-04T07:53:08Z</time>
      </trkpt>
      <trkpt lat="45.65581" lon="4.60364">
        <ele>580</ele>
        <time>2012-08-04T07:53:18Z</time>
      </trkpt>
      <trkpt lat="45.65592" lon="4.60329">
        <ele>582</ele>
        <time>2012-08-04T07:53:30Z</time>
      </trkpt>
      <trkpt lat="45.65601" lon="4.60299">
        <ele>583</ele>
        <time>2012-08-04T07:53:40Z</time>
      </trkpt>
      <trkpt lat="45.65609" lon="4.60261">
        <ele>584</ele>
        <time>2012-08-04T07:53:52Z</time>
      </trkpt>
      <trkpt lat="45.65613" lon="4.60245">
        <ele>584</ele>
        <time>2012-08-04T07:53:59Z</time>
      </trkpt>
      <trkpt lat="45.65618" lon="4.60231">
        <ele>584</ele>
        <time>2012-08-04T07:54:05Z</time>
      </trkpt>
      <trkpt lat="45.65629" lon="4.60217">
        <ele>586</ele>
        <time>2012-08-04T07:54:13Z</time>
      </trkpt>
      <trkpt lat="45.65633" lon="4.60214">
        <ele>587</ele>
        <time>2012-08-04T07:54:17Z</time>
      </trkpt>
      <trkpt lat="45.65634" lon="4.60212">
        <ele>587</ele>
        <time>2012-08-04T07:54:18Z</time>
      </trkpt>
      <trkpt lat="45.65635" lon="4.60211">
        <ele>587</ele>
        <time>2012-08-04T07:54:19Z</time>
      </trkpt>
      <trkpt lat="45.65637" lon="4.60209">
        <ele>587</ele>
        <time>2012-08-04T07:54:20Z</time>
      </trkpt>
      <trkpt lat="45.65638" lon="4.60208">
        <ele>587</ele>
        <time>2012-08-04T07:54:21Z</time>
      </trkpt>
      <trkpt lat="45.6564" lon="4.60205">
        <ele>588</ele>
        <time>2012-08-04T07:54:23Z</time>
      </trkpt>
      <trkpt lat="45.65641" lon="4.60206">
        <ele>589</ele>
        <time>2012-08-04T07:54:24Z</time>
      </trkpt>
      <trkpt lat="45.65642" lon="4.60208">
        <ele>588</ele>
        <time>2012-08-04T07:54:25Z</time>
      </trkpt>
      <trkpt lat="45.65641" lon="4.60211">
        <ele>588</ele>
        <time>2012-08-04T07:54:26Z</time>
      </trkpt>
      <trkpt lat="45.65641" lon="4.60213">
        <ele>589</ele>
        <time>2012-08-04T07:54:27Z</time>
      </trkpt>
      <trkpt lat="45.65641" lon="4.60232">
        <ele>590</ele>
        <time>2012-08-04T07:54:36Z</time>
      </trkpt>
      <trkpt lat="45.65642" lon="4.60254">
        <ele>592</ele>
        <time>2012-08-04T07:54:47Z</time>
      </trkpt>
      <trkpt lat="45.65643" lon="4.60272">
        <ele>595</ele>
        <time>2012-08-04T07:54:56Z</time>
      </trkpt>
      <trkpt lat="45.65642" lon="4.60282">
        <ele>595</ele>
        <time>2012-08-04T07:55:01Z</time>
      </trkpt>
      <trkpt lat="45.65642" lon="4.60284">
        <ele>596</ele>
        <time>2012-08-04T07:55:02Z</time>
      </trkpt>
      <trkpt lat="45.65644" lon="4.60301">
        <ele>597</ele>
        <time>2012-08-04T07:55:10Z</time>
      </trkpt>
      <trkpt lat="45.65644" lon="4.60326">
        <ele>599</ele>
        <time>2012-08-04T07:55:22Z</time>
      </trkpt>
      <trkpt lat="45.65644" lon="4.60329">
        <ele>599</ele>
        <time>2012-08-04T07:55:24Z</time>
      </trkpt>
      <trkpt lat="45.65644" lon="4.60331">
        <ele>600</ele>
        <time>2012-08-04T07:55:25Z</time>
      </trkpt>
      <trkpt lat="45.65644" lon="4.60334">
        <ele>600</ele>
        <time>2012-08-04T07:55:26Z</time>
      </trkpt>
      <trkpt lat="45.65644" lon="4.60336">
        <ele>599</ele>
        <time>2012-08-04T07:55:27Z</time>
      </trkpt>
      <trkpt lat="45.65644" lon="4.60338">
        <ele>600</ele>
        <time>2012-08-04T07:55:28Z</time>
      </trkpt>
      <trkpt lat="45.65645" lon="4.60355">
        <ele>600</ele>
        <time>2012-08-04T07:55:36Z</time>
      </trkpt>
      <trkpt lat="45.65646" lon="4.60374">
        <ele>602</ele>
        <time>2012-08-04T07:55:46Z</time>
      </trkpt>
      <trkpt lat="45.6565" lon="4.60394">
        <ele>605</ele>
        <time>2012-08-04T07:55:57Z</time>
      </trkpt>
      <trkpt lat="45.65652" lon="4.60407">
        <ele>606</ele>
        <time>2012-08-04T07:56:04Z</time>
      </trkpt>
      <trkpt lat="45.65657" lon="4.60424">
        <ele>608</ele>
        <time>2012-08-04T07:56:14Z</time>
      </trkpt>
      <trkpt lat="45.65659" lon="4.60427">
        <ele>608</ele>
        <time>2012-08-04T07:56:16Z</time>
      </trkpt>
      <trkpt lat="45.65659" lon="4.60427">
        <ele>608</ele>
        <time>2012-08-04T07:56:17Z</time>
      </trkpt>
      <trkpt lat="45.6566" lon="4.60428">
        <ele>609</ele>
        <time>2012-08-04T07:56:18Z</time>
      </trkpt>
      <trkpt lat="45.65662" lon="4.60429">
        <ele>609</ele>
        <time>2012-08-04T07:56:20Z</time>
      </trkpt>
      <trkpt lat="45.65663" lon="4.60428">
        <ele>609</ele>
        <time>2012-08-04T07:56:21Z</time>
      </trkpt>
      <trkpt lat="45.65664" lon="4.60426">
        <ele>609</ele>
        <time>2012-08-04T07:56:22Z</time>
      </trkpt>
      <trkpt lat="45.65665" lon="4.60425">
        <ele>609</ele>
        <time>2012-08-04T07:56:23Z</time>
      </trkpt>
      <trkpt lat="45.65665" lon="4.60423">
        <ele>610</ele>
        <time>2012-08-04T07:56:24Z</time>
      </trkpt>
      <trkpt lat="45.65665" lon="4.60421">
        <ele>610</ele>
        <time>2012-08-04T07:56:25Z</time>
      </trkpt>
      <trkpt lat="45.65665" lon="4.60415">
        <ele>610</ele>
        <time>2012-08-04T07:56:29Z</time>
      </trkpt>
      <trkpt lat="45.65668" lon="4.60404">
        <ele>611</ele>
        <time>2012-08-04T07:56:35Z</time>
      </trkpt>
      <trkpt lat="45.65669" lon="4.60403">
        <ele>612</ele>
        <time>2012-08-04T07:56:36Z</time>
      </trkpt>
      <trkpt lat="45.65669" lon="4.60401">
        <ele>612</ele>
        <time>2012-08-04T07:56:37Z</time>
      </trkpt>
      <trkpt lat="45.6567" lon="4.60399">
        <ele>612</ele>
        <time>2012-08-04T07:56:38Z</time>
      </trkpt>
      <trkpt lat="45.65671" lon="4.60398">
        <ele>612</ele>
        <time>2012-08-04T07:56:39Z</time>
      </trkpt>
      <trkpt lat="45.65671" lon="4.60397">
        <ele>612</ele>
        <time>2012-08-04T07:56:40Z</time>
      </trkpt>
      <trkpt lat="45.65676" lon="4.60388">
        <ele>613</ele>
        <time>2012-08-04T07:56:47Z</time>
      </trkpt>
      <trkpt lat="45.65677" lon="4.60386">
        <ele>613</ele>
        <time>2012-08-04T07:56:48Z</time>
      </trkpt>
      <trkpt lat="45.65677" lon="4.60385">
        <ele>613</ele>
        <time>2012-08-04T07:56:49Z</time>
      </trkpt>
      <trkpt lat="45.65678" lon="4.60383">
        <ele>613</ele>
        <time>2012-08-04T07:56:50Z</time>
      </trkpt>
      <trkpt lat="45.65679" lon="4.60382">
        <ele>613</ele>
        <time>2012-08-04T07:56:51Z</time>
      </trkpt>
      <trkpt lat="45.65684" lon="4.60369">
        <ele>615</ele>
        <time>2012-08-04T07:56:59Z</time>
      </trkpt>
      <trkpt lat="45.6569" lon="4.60354">
        <ele>616</ele>
        <time>2012-08-04T07:57:08Z</time>
      </trkpt>
      <trkpt lat="45.65698" lon="4.60339">
        <ele>618</ele>
        <time>2012-08-04T07:57:18Z</time>
      </trkpt>
      <trkpt lat="45.65705" lon="4.60328">
        <ele>619</ele>
        <time>2012-08-04T07:57:26Z</time>
      </trkpt>
      <trkpt lat="45.65712" lon="4.60313">
        <ele>622</ele>
        <time>2012-08-04T07:57:36Z</time>
      </trkpt>
      <trkpt lat="45.6572" lon="4.60303">
        <ele>623</ele>
        <time>2012-08-04T07:57:44Z</time>
      </trkpt>
      <trkpt lat="45.65727" lon="4.60293">
        <ele>624</ele>
        <time>2012-08-04T07:57:53Z</time>
      </trkpt>
      <trkpt lat="45.65737" lon="4.60283">
        <ele>627</ele>
        <time>2012-08-04T07:58:03Z</time>
      </trkpt>
      <trkpt lat="45.65748" lon="4.60277">
        <ele>629</ele>
        <time>2012-08-04T07:58:13Z</time>
      </trkpt>
      <trkpt lat="45.65758" lon="4.60272">
        <ele>632</ele>
        <time>2012-08-04T07:58:21Z</time>
      </trkpt>
      <trkpt lat="45.65767" lon="4.60267">
        <ele>633</ele>
        <time>2012-08-04T07:58:28Z</time>
      </trkpt>
      <trkpt lat="45.65768" lon="4.60267">
        <ele>633</ele>
        <time>2012-08-04T07:58:29Z</time>
      </trkpt>
      <trkpt lat="45.65769" lon="4.60266">
        <ele>633</ele>
        <time>2012-08-04T07:58:30Z</time>
      </trkpt>
      <trkpt lat="45.65784" lon="4.60265">
        <ele>636</ele>
        <time>2012-08-04T07:58:41Z</time>
      </trkpt>
      <trkpt lat="45.6579" lon="4.60266">
        <ele>637</ele>
        <time>2012-08-04T07:58:46Z</time>
      </trkpt>
      <trkpt lat="45.65791" lon="4.60267">
        <ele>637</ele>
        <time>2012-08-04T07:58:47Z</time>
      </trkpt>
      <trkpt lat="45.65792" lon="4.60267">
        <ele>637</ele>
        <time>2012-08-04T07:58:48Z</time>
      </trkpt>
      <trkpt lat="45.65804" lon="4.60263">
        <ele>638</ele>
        <time>2012-08-04T07:58:56Z</time>
      </trkpt>
      <trkpt lat="45.65819" lon="4.60255">
        <ele>638</ele>
        <time>2012-08-04T07:59:05Z</time>
      </trkpt>
      <trkpt lat="45.6583" lon="4.60258">
        <ele>639</ele>
        <time>2012-08-04T07:59:14Z</time>
      </trkpt>
      <trkpt lat="45.65831" lon="4.60258">
        <ele>639</ele>
        <time>2012-08-04T07:59:25Z</time>
      </trkpt>
      <trkpt lat="45.65831" lon="4.60259">
        <ele>639</ele>
        <time>2012-08-04T07:59:38Z</time>
      </trkpt>
      <trkpt lat="45.65832" lon="4.6026">
        <ele>639</ele>
        <time>2012-08-04T07:59:52Z</time>
      </trkpt>
      <trkpt lat="45.65834" lon="4.60259">
        <ele>639</ele>
        <time>2012-08-04T08:00:00Z</time>
      </trkpt>
      <trkpt lat="45.65835" lon="4.6026">
        <ele>639</ele>
        <time>2012-08-04T08:00:01Z</time>
      </trkpt>
      <trkpt lat="45.65836" lon="4.60262">
        <ele>639</ele>
        <time>2012-08-04T08:00:02Z</time>
      </trkpt>
      <trkpt lat="45.6584" lon="4.6028">
        <ele>639</ele>
        <time>2012-08-04T08:00:08Z</time>
      </trkpt>
      <trkpt lat="45.65845" lon="4.60313">
        <ele>638</ele>
        <time>2012-08-04T08:00:15Z</time>
      </trkpt>
      <trkpt lat="45.65853" lon="4.60361">
        <ele>637</ele>
        <time>2012-08-04T08:00:23Z</time>
      </trkpt>
      <trkpt lat="45.65855" lon="4.60366">
        <ele>637</ele>
        <time>2012-08-04T08:00:24Z</time>
      </trkpt>
      <trkpt lat="45.65856" lon="4.60372">
        <ele>637</ele>
        <time>2012-08-04T08:00:25Z</time>
      </trkpt>
      <trkpt lat="45.65862" lon="4.60395">
        <ele>637</ele>
        <time>2012-08-04T08:00:29Z</time>
      </trkpt>
      <trkpt lat="45.65878" lon="4.60448">
        <ele>637</ele>
        <time>2012-08-04T08:00:38Z</time>
      </trkpt>
      <trkpt lat="45.65905" lon="4.60521">
        <ele>637</ele>
        <time>2012-08-04T08:00:50Z</time>
      </trkpt>
      <trkpt lat="45.65924" lon="4.60573">
        <ele>638</ele>
        <time>2012-08-04T08:00:59Z</time>
      </trkpt>
      <trkpt lat="45.65942" lon="4.60618">
        <ele>639</ele>
        <time>2012-08-04T08:01:07Z</time>
      </trkpt>
      <trkpt lat="45.65962" lon="4.60672">
        <ele>640</ele>
        <time>2012-08-04T08:01:17Z</time>
      </trkpt>
      <trkpt lat="45.65972" lon="4.60719">
        <ele>641</ele>
        <time>2012-08-04T08:01:26Z</time>
      </trkpt>
      <trkpt lat="45.65984" lon="4.60763">
        <ele>643</ele>
        <time>2012-08-04T08:01:35Z</time>
      </trkpt>
      <trkpt lat="45.66004" lon="4.60798">
        <ele>644</ele>
        <time>2012-08-04T08:01:43Z</time>
      </trkpt>
      <trkpt lat="45.66029" lon="4.60836">
        <ele>643</ele>
        <time>2012-08-04T08:01:52Z</time>
      </trkpt>
      <trkpt lat="45.66048" lon="4.60882">
        <ele>644</ele>
        <time>2012-08-04T08:02:02Z</time>
      </trkpt>
      <trkpt lat="45.66066" lon="4.60909">
        <ele>644</ele>
        <time>2012-08-04T08:02:09Z</time>
      </trkpt>
      <trkpt lat="45.66075" lon="4.60921">
        <ele>644</ele>
        <time>2012-08-04T08:02:12Z</time>
      </trkpt>
      <trkpt lat="45.66097" lon="4.60951">
        <ele>643</ele>
        <time>2012-08-04T08:02:19Z</time>
      </trkpt>
      <trkpt lat="45.661" lon="4.60957">
        <ele>643</ele>
        <time>2012-08-04T08:02:20Z</time>
      </trkpt>
      <trkpt lat="45.66122" lon="4.61011">
        <ele>640</ele>
        <time>2012-08-04T08:02:27Z</time>
      </trkpt>
      <trkpt lat="45.66136" lon="4.61066">
        <ele>639</ele>
        <time>2012-08-04T08:02:35Z</time>
      </trkpt>
      <trkpt lat="45.6614" lon="4.61085">
        <ele>638</ele>
        <time>2012-08-04T08:02:38Z</time>
      </trkpt>
      <trkpt lat="45.6614" lon="4.6109">
        <ele>639</ele>
        <time>2012-08-04T08:02:39Z</time>
      </trkpt>
      <trkpt lat="45.66145" lon="4.61138">
        <ele>638</ele>
        <time>2012-08-04T08:02:47Z</time>
      </trkpt>
      <trkpt lat="45.66153" lon="4.61167">
        <ele>638</ele>
        <time>2012-08-04T08:02:53Z</time>
      </trkpt>
      <trkpt lat="45.6616" lon="4.61174">
        <ele>637</ele>
        <time>2012-08-04T08:02:55Z</time>
      </trkpt>
      <trkpt lat="45.66163" lon="4.61178">
        <ele>637</ele>
        <time>2012-08-04T08:02:56Z</time>
      </trkpt>
      <trkpt lat="45.66167" lon="4.61182">
        <ele>636</ele>
        <time>2012-08-04T08:02:57Z</time>
      </trkpt>
      <trkpt lat="45.66195" lon="4.61213">
        <ele>633</ele>
        <time>2012-08-04T08:03:03Z</time>
      </trkpt>
      <trkpt lat="45.66204" lon="4.61224">
        <ele>632</ele>
        <time>2012-08-04T08:03:05Z</time>
      </trkpt>
      <trkpt lat="45.66208" lon="4.6123">
        <ele>632</ele>
        <time>2012-08-04T08:03:06Z</time>
      </trkpt>
      <trkpt lat="45.66223" lon="4.61247">
        <ele>631</ele>
        <time>2012-08-04T08:03:09Z</time>
      </trkpt>
      <trkpt lat="45.66227" lon="4.61253">
        <ele>629</ele>
        <time>2012-08-04T08:03:10Z</time>
      </trkpt>
      <trkpt lat="45.66231" lon="4.61261">
        <ele>629</ele>
        <time>2012-08-04T08:03:11Z</time>
      </trkpt>
      <trkpt lat="45.66236" lon="4.61269">
        <ele>629</ele>
        <time>2012-08-04T08:03:12Z</time>
      </trkpt>
      <trkpt lat="45.6625" lon="4.6129">
        <ele>626</ele>
        <time>2012-08-04T08:03:15Z</time>
      </trkpt>
      <trkpt lat="45.66257" lon="4.61296">
        <ele>626</ele>
        <time>2012-08-04T08:03:16Z</time>
      </trkpt>
      <trkpt lat="45.66275" lon="4.61308">
        <ele>623</ele>
        <time>2012-08-04T08:03:19Z</time>
      </trkpt>
      <trkpt lat="45.66281" lon="4.61311">
        <ele>623</ele>
        <time>2012-08-04T08:03:20Z</time>
      </trkpt>
      <trkpt lat="45.66293" lon="4.61316">
        <ele>622</ele>
        <time>2012-08-04T08:03:22Z</time>
      </trkpt>
      <trkpt lat="45.66305" lon="4.6132">
        <ele>621</ele>
        <time>2012-08-04T08:03:24Z</time>
      </trkpt>
      <trkpt lat="45.66332" lon="4.61328">
        <ele>617</ele>
        <time>2012-08-04T08:03:28Z</time>
      </trkpt>
      <trkpt lat="45.66357" lon="4.61336">
        <ele>615</ele>
        <time>2012-08-04T08:03:32Z</time>
      </trkpt>
      <trkpt lat="45.66362" lon="4.61339">
        <ele>614</ele>
        <time>2012-08-04T08:03:33Z</time>
      </trkpt>
      <trkpt lat="45.66381" lon="4.61356">
        <ele>611</ele>
        <time>2012-08-04T08:03:38Z</time>
      </trkpt>
      <trkpt lat="45.66387" lon="4.61363">
        <ele>610</ele>
        <time>2012-08-04T08:03:40Z</time>
      </trkpt>
      <trkpt lat="45.6639" lon="4.61368">
        <ele>610</ele>
        <time>2012-08-04T08:03:41Z</time>
      </trkpt>
      <trkpt lat="45.66392" lon="4.61371">
        <ele>609</ele>
        <time>2012-08-04T08:03:42Z</time>
      </trkpt>
      <trkpt lat="45.66393" lon="4.61375">
        <ele>609</ele>
        <time>2012-08-04T08:03:43Z</time>
      </trkpt>
      <trkpt lat="45.66394" lon="4.61378">
        <ele>608</ele>
        <time>2012-08-04T08:03:44Z</time>
      </trkpt>
      <trkpt lat="45.66395" lon="4.61381">
        <ele>608</ele>
        <time>2012-08-04T08:03:45Z</time>
      </trkpt>
      <trkpt lat="45.66396" lon="4.61385">
        <ele>608</ele>
        <time>2012-08-04T08:03:46Z</time>
      </trkpt>
      <trkpt lat="45.66398" lon="4.61389">
        <ele>608</ele>
        <time>2012-08-04T08:03:47Z</time>
      </trkpt>
      <trkpt lat="45.66403" lon="4.61403">
        <ele>607</ele>
        <time>2012-08-04T08:03:50Z</time>
      </trkpt>
      <trkpt lat="45.66404" lon="4.6141">
        <ele>606</ele>
        <time>2012-08-04T08:03:51Z</time>
      </trkpt>
      <trkpt lat="45.66406" lon="4.61416">
        <ele>606</ele>
        <time>2012-08-04T08:03:52Z</time>
      </trkpt>
      <trkpt lat="45.66413" lon="4.61438">
        <ele>603</ele>
        <time>2012-08-04T08:03:55Z</time>
      </trkpt>
      <trkpt lat="45.66416" lon="4.61445">
        <ele>602</ele>
        <time>2012-08-04T08:03:56Z</time>
      </trkpt>
      <trkpt lat="45.66419" lon="4.61453">
        <ele>601</ele>
        <time>2012-08-04T08:03:57Z</time>
      </trkpt>
      <trkpt lat="45.66422" lon="4.6146">
        <ele>600</ele>
        <time>2012-08-04T08:03:58Z</time>
      </trkpt>
      <trkpt lat="45.66426" lon="4.61468">
        <ele>600</ele>
        <time>2012-08-04T08:03:59Z</time>
      </trkpt>
      <trkpt lat="45.6643" lon="4.61475">
        <ele>598</ele>
        <time>2012-08-04T08:04:00Z</time>
      </trkpt>
      <trkpt lat="45.66435" lon="4.61481">
        <ele>597</ele>
        <time>2012-08-04T08:04:01Z</time>
      </trkpt>
      <trkpt lat="45.66439" lon="4.61487">
        <ele>597</ele>
        <time>2012-08-04T08:04:02Z</time>
      </trkpt>
      <trkpt lat="45.66443" lon="4.61493">
        <ele>597</ele>
        <time>2012-08-04T08:04:03Z</time>
      </trkpt>
      <trkpt lat="45.66445" lon="4.61502">
        <ele>596</ele>
        <time>2012-08-04T08:04:04Z</time>
      </trkpt>
      <trkpt lat="45.66447" lon="4.6151">
        <ele>595</ele>
        <time>2012-08-04T08:04:05Z</time>
      </trkpt>
      <trkpt lat="45.6645" lon="4.61527">
        <ele>593</ele>
        <time>2012-08-04T08:04:07Z</time>
      </trkpt>
      <trkpt lat="45.66461" lon="4.61558">
        <ele>589</ele>
        <time>2012-08-04T08:04:11Z</time>
      </trkpt>
      <trkpt lat="45.66463" lon="4.61566">
        <ele>588</ele>
        <time>2012-08-04T08:04:12Z</time>
      </trkpt>
      <trkpt lat="45.66465" lon="4.61575">
        <ele>587</ele>
        <time>2012-08-04T08:04:13Z</time>
      </trkpt>
      <trkpt lat="45.6647" lon="4.616">
        <ele>584</ele>
        <time>2012-08-04T08:04:16Z</time>
      </trkpt>
      <trkpt lat="45.66472" lon="4.61608">
        <ele>583</ele>
        <time>2012-08-04T08:04:17Z</time>
      </trkpt>
      <trkpt lat="45.66474" lon="4.61616">
        <ele>582</ele>
        <time>2012-08-04T08:04:18Z</time>
      </trkpt>
      <trkpt lat="45.66475" lon="4.61624">
        <ele>581</ele>
        <time>2012-08-04T08:04:19Z</time>
      </trkpt>
      <trkpt lat="45.66476" lon="4.61631">
        <ele>581</ele>
        <time>2012-08-04T08:04:20Z</time>
      </trkpt>
      <trkpt lat="45.66481" lon="4.61646">
        <ele>578</ele>
        <time>2012-08-04T08:04:23Z</time>
      </trkpt>
      <trkpt lat="45.66484" lon="4.6165">
        <ele>577</ele>
        <time>2012-08-04T08:04:24Z</time>
      </trkpt>
      <trkpt lat="45.66488" lon="4.61654">
        <ele>576</ele>
        <time>2012-08-04T08:04:25Z</time>
      </trkpt>
      <trkpt lat="45.6649" lon="4.61659">
        <ele>577</ele>
        <time>2012-08-04T08:04:26Z</time>
      </trkpt>
      <trkpt lat="45.66492" lon="4.61664">
        <ele>576</ele>
        <time>2012-08-04T08:04:27Z</time>
      </trkpt>
      <trkpt lat="45.66497" lon="4.61673">
        <ele>574</ele>
        <time>2012-08-04T08:04:29Z</time>
      </trkpt>
      <trkpt lat="45.665" lon="4.61685">
        <ele>573</ele>
        <time>2012-08-04T08:04:31Z</time>
      </trkpt>
      <trkpt lat="45.66501" lon="4.61693">
        <ele>572</ele>
        <time>2012-08-04T08:04:32Z</time>
      </trkpt>
      <trkpt lat="45.66505" lon="4.61709">
        <ele>572</ele>
        <time>2012-08-04T08:04:34Z</time>
      </trkpt>
      <trkpt lat="45.66506" lon="4.61717">
        <ele>570</ele>
        <time>2012-08-04T08:04:35Z</time>
      </trkpt>
      <trkpt lat="45.66505" lon="4.61724">
        <ele>569</ele>
        <time>2012-08-04T08:04:36Z</time>
      </trkpt>
      <trkpt lat="45.66504" lon="4.61731">
        <ele>569</ele>
        <time>2012-08-04T08:04:37Z</time>
      </trkpt>
      <trkpt lat="45.66501" lon="4.61737">
        <ele>569</ele>
        <time>2012-08-04T08:04:38Z</time>
      </trkpt>
      <trkpt lat="45.66498" lon="4.61744">
        <ele>568</ele>
        <time>2012-08-04T08:04:39Z</time>
      </trkpt>
      <trkpt lat="45.66496" lon="4.61751">
        <ele>568</ele>
        <time>2012-08-04T08:04:40Z</time>
      </trkpt>
      <trkpt lat="45.66495" lon="4.61758">
        <ele>568</ele>
        <time>2012-08-04T08:04:41Z</time>
      </trkpt>
      <trkpt lat="45.66495" lon="4.61765">
        <ele>568</ele>
        <time>2012-08-04T08:04:42Z</time>
      </trkpt>
      <trkpt lat="45.66494" lon="4.61792">
        <ele>567</ele>
        <time>2012-08-04T08:04:46Z</time>
      </trkpt>
      <trkpt lat="45.66494" lon="4.61814">
        <ele>566</ele>
        <time>2012-08-04T08:04:51Z</time>
      </trkpt>
      <trkpt lat="45.66493" lon="4.6183">
        <ele>565</ele>
        <time>2012-08-04T08:04:57Z</time>
      </trkpt>
      <trkpt lat="45.66495" lon="4.61835">
        <ele>565</ele>
        <time>2012-08-04T08:05:03Z</time>
      </trkpt>
      <trkpt lat="45.66498" lon="4.61852">
        <ele>563</ele>
        <time>2012-08-04T08:05:09Z</time>
      </trkpt>
      <trkpt lat="45.665" lon="4.61885">
        <ele>561</ele>
        <time>2012-08-04T08:05:15Z</time>
      </trkpt>
      <trkpt lat="45.66507" lon="4.61908">
        <ele>560</ele>
        <time>2012-08-04T08:05:21Z</time>
      </trkpt>
      <trkpt lat="45.66508" lon="4.61912">
        <ele>560</ele>
        <time>2012-08-04T08:05:24Z</time>
      </trkpt>
      <trkpt lat="45.66508" lon="4.61914">
        <ele>560</ele>
        <time>2012-08-04T08:05:25Z</time>
      </trkpt>
      <trkpt lat="45.66509" lon="4.61916">
        <ele>560</ele>
        <time>2012-08-04T08:05:26Z</time>
      </trkpt>
      <trkpt lat="45.66513" lon="4.61932">
        <ele>559</ele>
        <time>2012-08-04T08:05:31Z</time>
      </trkpt>
      <trkpt lat="45.66518" lon="4.61952">
        <ele>558</ele>
        <time>2012-08-04T08:05:34Z</time>
      </trkpt>
      <trkpt lat="45.6652" lon="4.61959">
        <ele>558</ele>
        <time>2012-08-04T08:05:35Z</time>
      </trkpt>
      <trkpt lat="45.66523" lon="4.61967">
        <ele>557</ele>
        <time>2012-08-04T08:05:36Z</time>
      </trkpt>
      <trkpt lat="45.66527" lon="4.61975">
        <ele>557</ele>
        <time>2012-08-04T08:05:37Z</time>
      </trkpt>
      <trkpt lat="45.66529" lon="4.61983">
        <ele>556</ele>
        <time>2012-08-04T08:05:38Z</time>
      </trkpt>
      <trkpt lat="45.66532" lon="4.61992">
        <ele>556</ele>
        <time>2012-08-04T08:05:39Z</time>
      </trkpt>
      <trkpt lat="45.66551" lon="4.62061">
        <ele>554</ele>
        <time>2012-08-04T08:05:47Z</time>
      </trkpt>
      <trkpt lat="45.66553" lon="4.62069">
        <ele>554</ele>
        <time>2012-08-04T08:05:48Z</time>
      </trkpt>
      <trkpt lat="45.66565" lon="4.62125">
        <ele>553</ele>
        <time>2012-08-04T08:05:56Z</time>
      </trkpt>
      <trkpt lat="45.66586" lon="4.62198">
        <ele>552</ele>
        <time>2012-08-04T08:06:07Z</time>
      </trkpt>
      <trkpt lat="45.66603" lon="4.62244">
        <ele>550</ele>
        <time>2012-08-04T08:06:14Z</time>
      </trkpt>
      <trkpt lat="45.6661" lon="4.62261">
        <ele>550</ele>
        <time>2012-08-04T08:06:17Z</time>
      </trkpt>
      <trkpt lat="45.66613" lon="4.62266">
        <ele>550</ele>
        <time>2012-08-04T08:06:18Z</time>
      </trkpt>
      <trkpt lat="45.66615" lon="4.62271">
        <ele>550</ele>
        <time>2012-08-04T08:06:19Z</time>
      </trkpt>
      <trkpt lat="45.66618" lon="4.62275">
        <ele>550</ele>
        <time>2012-08-04T08:06:20Z</time>
      </trkpt>
      <trkpt lat="45.6662" lon="4.62279">
        <ele>550</ele>
        <time>2012-08-04T08:06:21Z</time>
      </trkpt>
      <trkpt lat="45.66631" lon="4.62301">
        <ele>549</ele>
        <time>2012-08-04T08:06:26Z</time>
      </trkpt>
      <trkpt lat="45.66632" lon="4.62307">
        <ele>549</ele>
        <time>2012-08-04T08:06:27Z</time>
      </trkpt>
      <trkpt lat="45.66634" lon="4.62313">
        <ele>549</ele>
        <time>2012-08-04T08:06:28Z</time>
      </trkpt>
      <trkpt lat="45.66636" lon="4.62318">
        <ele>548</ele>
        <time>2012-08-04T08:06:29Z</time>
      </trkpt>
      <trkpt lat="45.66638" lon="4.62323">
        <ele>548</ele>
        <time>2012-08-04T08:06:30Z</time>
      </trkpt>
      <trkpt lat="45.6664" lon="4.62327">
        <ele>548</ele>
        <time>2012-08-04T08:06:31Z</time>
      </trkpt>
      <trkpt lat="45.66644" lon="4.6233">
        <ele>548</ele>
        <time>2012-08-04T08:06:32Z</time>
      </trkpt>
      <trkpt lat="45.66647" lon="4.62333">
        <ele>548</ele>
        <time>2012-08-04T08:06:33Z</time>
      </trkpt>
      <trkpt lat="45.66651" lon="4.62336">
        <ele>547</ele>
        <time>2012-08-04T08:06:34Z</time>
      </trkpt>
      <trkpt lat="45.66671" lon="4.62347">
        <ele>545</ele>
        <time>2012-08-04T08:06:40Z</time>
      </trkpt>
      <trkpt lat="45.66679" lon="4.62354">
        <ele>543</ele>
        <time>2012-08-04T08:06:42Z</time>
      </trkpt>
      <trkpt lat="45.66683" lon="4.62358">
        <ele>543</ele>
        <time>2012-08-04T08:06:43Z</time>
      </trkpt>
      <trkpt lat="45.66696" lon="4.62373">
        <ele>541</ele>
        <time>2012-08-04T08:06:46Z</time>
      </trkpt>
      <trkpt lat="45.667" lon="4.62379">
        <ele>540</ele>
        <time>2012-08-04T08:06:47Z</time>
      </trkpt>
      <trkpt lat="45.66704" lon="4.62386">
        <ele>540</ele>
        <time>2012-08-04T08:06:48Z</time>
      </trkpt>
      <trkpt lat="45.66714" lon="4.62407">
        <ele>539</ele>
        <time>2012-08-04T08:06:51Z</time>
      </trkpt>
      <trkpt lat="45.66721" lon="4.62429">
        <ele>538</ele>
        <time>2012-08-04T08:06:54Z</time>
      </trkpt>
      <trkpt lat="45.66722" lon="4.62436">
        <ele>538</ele>
        <time>2012-08-04T08:06:55Z</time>
      </trkpt>
      <trkpt lat="45.66728" lon="4.62462">
        <ele>538</ele>
        <time>2012-08-04T08:06:59Z</time>
      </trkpt>
      <trkpt lat="45.66736" lon="4.62498">
        <ele>539</ele>
        <time>2012-08-04T08:07:06Z</time>
      </trkpt>
      <trkpt lat="45.66744" lon="4.62522">
        <ele>538</ele>
        <time>2012-08-04T08:07:12Z</time>
      </trkpt>
      <trkpt lat="45.66752" lon="4.6256">
        <ele>539</ele>
        <time>2012-08-04T08:07:20Z</time>
      </trkpt>
      <trkpt lat="45.66749" lon="4.62598">
        <ele>537</ele>
        <time>2012-08-04T08:07:27Z</time>
      </trkpt>
      <trkpt lat="45.6675" lon="4.62621">
        <ele>536</ele>
        <time>2012-08-04T08:07:31Z</time>
      </trkpt>
      <trkpt lat="45.66752" lon="4.62625">
        <ele>536</ele>
        <time>2012-08-04T08:07:32Z</time>
      </trkpt>
      <trkpt lat="45.66755" lon="4.62628">
        <ele>535</ele>
        <time>2012-08-04T08:07:33Z</time>
      </trkpt>
      <trkpt lat="45.66757" lon="4.62633">
        <ele>535</ele>
        <time>2012-08-04T08:07:34Z</time>
      </trkpt>
      <trkpt lat="45.6676" lon="4.62638">
        <ele>535</ele>
        <time>2012-08-04T08:07:35Z</time>
      </trkpt>
      <trkpt lat="45.66762" lon="4.62642">
        <ele>534</ele>
        <time>2012-08-04T08:07:36Z</time>
      </trkpt>
      <trkpt lat="45.66764" lon="4.62647">
        <ele>533</ele>
        <time>2012-08-04T08:07:37Z</time>
      </trkpt>
      <trkpt lat="45.66765" lon="4.62653">
        <ele>533</ele>
        <time>2012-08-04T08:07:38Z</time>
      </trkpt>
      <trkpt lat="45.66765" lon="4.6266">
        <ele>532</ele>
        <time>2012-08-04T08:07:39Z</time>
      </trkpt>
      <trkpt lat="45.66765" lon="4.62667">
        <ele>532</ele>
        <time>2012-08-04T08:07:40Z</time>
      </trkpt>
      <trkpt lat="45.66763" lon="4.62673">
        <ele>531</ele>
        <time>2012-08-04T08:07:41Z</time>
      </trkpt>
      <trkpt lat="45.66761" lon="4.62679">
        <ele>531</ele>
        <time>2012-08-04T08:07:42Z</time>
      </trkpt>
      <trkpt lat="45.66759" lon="4.62684">
        <ele>530</ele>
        <time>2012-08-04T08:07:43Z</time>
      </trkpt>
      <trkpt lat="45.66757" lon="4.6269">
        <ele>530</ele>
        <time>2012-08-04T08:07:44Z</time>
      </trkpt>
      <trkpt lat="45.66755" lon="4.62713">
        <ele>527</ele>
        <time>2012-08-04T08:07:48Z</time>
      </trkpt>
      <trkpt lat="45.66756" lon="4.6273">
        <ele>525</ele>
        <time>2012-08-04T08:07:51Z</time>
      </trkpt>
      <trkpt lat="45.66759" lon="4.6275">
        <ele>524</ele>
        <time>2012-08-04T08:07:54Z</time>
      </trkpt>
      <trkpt lat="45.66759" lon="4.62757">
        <ele>524</ele>
        <time>2012-08-04T08:07:55Z</time>
      </trkpt>
      <trkpt lat="45.66758" lon="4.62764">
        <ele>524</ele>
        <time>2012-08-04T08:07:56Z</time>
      </trkpt>
      <trkpt lat="45.66756" lon="4.6277">
        <ele>523</ele>
        <time>2012-08-04T08:07:57Z</time>
      </trkpt>
      <trkpt lat="45.66755" lon="4.62775">
        <ele>523</ele>
        <time>2012-08-04T08:07:58Z</time>
      </trkpt>
      <trkpt lat="45.66754" lon="4.6278">
        <ele>522</ele>
        <time>2012-08-04T08:07:59Z</time>
      </trkpt>
      <trkpt lat="45.6675" lon="4.62806">
        <ele>520</ele>
        <time>2012-08-04T08:08:04Z</time>
      </trkpt>
      <trkpt lat="45.66753" lon="4.6282">
        <ele>518</ele>
        <time>2012-08-04T08:08:07Z</time>
      </trkpt>
      <trkpt lat="45.66755" lon="4.62824">
        <ele>518</ele>
        <time>2012-08-04T08:08:08Z</time>
      </trkpt>
      <trkpt lat="45.66757" lon="4.62829">
        <ele>517</ele>
        <time>2012-08-04T08:08:09Z</time>
      </trkpt>
      <trkpt lat="45.66761" lon="4.62839">
        <ele>515</ele>
        <time>2012-08-04T08:08:11Z</time>
      </trkpt>
      <trkpt lat="45.66763" lon="4.62845">
        <ele>515</ele>
        <time>2012-08-04T08:08:12Z</time>
      </trkpt>
      <trkpt lat="45.66772" lon="4.62863">
        <ele>512</ele>
        <time>2012-08-04T08:08:16Z</time>
      </trkpt>
      <trkpt lat="45.66775" lon="4.62865">
        <ele>512</ele>
        <time>2012-08-04T08:08:17Z</time>
      </trkpt>
      <trkpt lat="45.66791" lon="4.62883">
        <ele>509</ele>
        <time>2012-08-04T08:08:23Z</time>
      </trkpt>
      <trkpt lat="45.66804" lon="4.629">
        <ele>507</ele>
        <time>2012-08-04T08:08:28Z</time>
      </trkpt>
      <trkpt lat="45.66816" lon="4.62912">
        <ele>504</ele>
        <time>2012-08-04T08:08:33Z</time>
      </trkpt>
      <trkpt lat="45.66828" lon="4.62924">
        <ele>501</ele>
        <time>2012-08-04T08:08:38Z</time>
      </trkpt>
      <trkpt lat="45.66835" lon="4.62929">
        <ele>499</ele>
        <time>2012-08-04T08:08:41Z</time>
      </trkpt>
      <trkpt lat="45.66847" lon="4.62936">
        <ele>496</ele>
        <time>2012-08-04T08:08:46Z</time>
      </trkpt>
      <trkpt lat="45.66862" lon="4.62948">
        <ele>493</ele>
        <time>2012-08-04T08:08:52Z</time>
      </trkpt>
      <trkpt lat="45.66863" lon="4.62951">
        <ele>493</ele>
        <time>2012-08-04T08:08:53Z</time>
      </trkpt>
      <trkpt lat="45.66864" lon="4.62954">
        <ele>492</ele>
        <time>2012-08-04T08:08:54Z</time>
      </trkpt>
      <trkpt lat="45.66864" lon="4.62958">
        <ele>492</ele>
        <time>2012-08-04T08:08:55Z</time>
      </trkpt>
      <trkpt lat="45.66864" lon="4.62963">
        <ele>491</ele>
        <time>2012-08-04T08:08:56Z</time>
      </trkpt>
      <trkpt lat="45.66866" lon="4.62967">
        <ele>490</ele>
        <time>2012-08-04T08:08:57Z</time>
      </trkpt>
      <trkpt lat="45.66868" lon="4.62971">
        <ele>490</ele>
        <time>2012-08-04T08:08:58Z</time>
      </trkpt>
      <trkpt lat="45.66869" lon="4.62975">
        <ele>489</ele>
        <time>2012-08-04T08:08:59Z</time>
      </trkpt>
      <trkpt lat="45.66869" lon="4.6298">
        <ele>488</ele>
        <time>2012-08-04T08:09:00Z</time>
      </trkpt>
      <trkpt lat="45.66869" lon="4.62984">
        <ele>488</ele>
        <time>2012-08-04T08:09:01Z</time>
      </trkpt>
      <trkpt lat="45.66869" lon="4.62988">
        <ele>488</ele>
        <time>2012-08-04T08:09:02Z</time>
      </trkpt>
      <trkpt lat="45.66871" lon="4.62993">
        <ele>487</ele>
        <time>2012-08-04T08:09:03Z</time>
      </trkpt>
      <trkpt lat="45.66872" lon="4.62996">
        <ele>486</ele>
        <time>2012-08-04T08:09:04Z</time>
      </trkpt>
      <trkpt lat="45.66874" lon="4.62997">
        <ele>486</ele>
        <time>2012-08-04T08:09:05Z</time>
      </trkpt>
      <trkpt lat="45.66877" lon="4.62996">
        <ele>486</ele>
        <time>2012-08-04T08:09:09Z</time>
      </trkpt>
      <trkpt lat="45.66877" lon="4.62994">
        <ele>486</ele>
        <time>2012-08-04T08:09:10Z</time>
      </trkpt>
      <trkpt lat="45.66877" lon="4.62992">
        <ele>486</ele>
        <time>2012-08-04T08:09:11Z</time>
      </trkpt>
      <trkpt lat="45.66878" lon="4.62989">
        <ele>486</ele>
        <time>2012-08-04T08:09:12Z</time>
      </trkpt>
      <trkpt lat="45.66879" lon="4.62986">
        <ele>485</ele>
        <time>2012-08-04T08:09:13Z</time>
      </trkpt>
      <trkpt lat="45.66879" lon="4.62983">
        <ele>485</ele>
        <time>2012-08-04T08:09:14Z</time>
      </trkpt>
      <trkpt lat="45.66885" lon="4.62957">
        <ele>484</ele>
        <time>2012-08-04T08:09:21Z</time>
      </trkpt>
      <trkpt lat="45.66887" lon="4.6293">
        <ele>484</ele>
        <time>2012-08-04T08:09:27Z</time>
      </trkpt>
      <trkpt lat="45.66882" lon="4.62884">
        <ele>482</ele>
        <time>2012-08-04T08:09:36Z</time>
      </trkpt>
      <trkpt lat="45.66879" lon="4.62868">
        <ele>482</ele>
        <time>2012-08-04T08:09:39Z</time>
      </trkpt>
      <trkpt lat="45.66878" lon="4.62855">
        <ele>482</ele>
        <time>2012-08-04T08:09:41Z</time>
      </trkpt>
      <trkpt lat="45.66879" lon="4.62849">
        <ele>481</ele>
        <time>2012-08-04T08:09:42Z</time>
      </trkpt>
      <trkpt lat="45.6688" lon="4.62844">
        <ele>482</ele>
        <time>2012-08-04T08:09:43Z</time>
      </trkpt>
      <trkpt lat="45.66885" lon="4.62828">
        <ele>480</ele>
        <time>2012-08-04T08:09:46Z</time>
      </trkpt>
      <trkpt lat="45.669" lon="4.62792">
        <ele>480</ele>
        <time>2012-08-04T08:09:53Z</time>
      </trkpt>
      <trkpt lat="45.66922" lon="4.62757">
        <ele>479</ele>
        <time>2012-08-04T08:10:00Z</time>
      </trkpt>
      <trkpt lat="45.66935" lon="4.62728">
        <ele>478</ele>
        <time>2012-08-04T08:10:06Z</time>
      </trkpt>
      <trkpt lat="45.66944" lon="4.62696">
        <ele>476</ele>
        <time>2012-08-04T08:10:11Z</time>
      </trkpt>
      <trkpt lat="45.66947" lon="4.62681">
        <ele>476</ele>
        <time>2012-08-04T08:10:13Z</time>
      </trkpt>
      <trkpt lat="45.66948" lon="4.62674">
        <ele>477</ele>
        <time>2012-08-04T08:10:14Z</time>
      </trkpt>
      <trkpt lat="45.6695" lon="4.62667">
        <ele>476</ele>
        <time>2012-08-04T08:10:15Z</time>
      </trkpt>
      <trkpt lat="45.66952" lon="4.62654">
        <ele>475</ele>
        <time>2012-08-04T08:10:17Z</time>
      </trkpt>
      <trkpt lat="45.6695" lon="4.62605">
        <ele>475</ele>
        <time>2012-08-04T08:10:24Z</time>
      </trkpt>
      <trkpt lat="45.66948" lon="4.62585">
        <ele>474</ele>
        <time>2012-08-04T08:10:27Z</time>
      </trkpt>
      <trkpt lat="45.66946" lon="4.62573">
        <ele>474</ele>
        <time>2012-08-04T08:10:29Z</time>
      </trkpt>
      <trkpt lat="45.66932" lon="4.6253">
        <ele>472</ele>
        <time>2012-08-04T08:10:36Z</time>
      </trkpt>
      <trkpt lat="45.66928" lon="4.62518">
        <ele>472</ele>
        <time>2012-08-04T08:10:41Z</time>
      </trkpt>
      <trkpt lat="45.66926" lon="4.6251">
        <ele>472</ele>
        <time>2012-08-04T08:10:45Z</time>
      </trkpt>
      <trkpt lat="45.66926" lon="4.62508">
        <ele>472</ele>
        <time>2012-08-04T08:10:46Z</time>
      </trkpt>
      <trkpt lat="45.66925" lon="4.62506">
        <ele>472</ele>
        <time>2012-08-04T08:10:47Z</time>
      </trkpt>
      <trkpt lat="45.66923" lon="4.62504">
        <ele>472</ele>
        <time>2012-08-04T08:10:48Z</time>
      </trkpt>
      <trkpt lat="45.66921" lon="4.62502">
        <ele>472</ele>
        <time>2012-08-04T08:10:49Z</time>
      </trkpt>
      <trkpt lat="45.6692" lon="4.62499">
        <ele>471</ele>
        <time>2012-08-04T08:10:50Z</time>
      </trkpt>
      <trkpt lat="45.66908" lon="4.62474">
        <ele>471</ele>
        <time>2012-08-04T08:10:57Z</time>
      </trkpt>
      <trkpt lat="45.669" lon="4.62448">
        <ele>471</ele>
        <time>2012-08-04T08:11:03Z</time>
      </trkpt>
      <trkpt lat="45.66898" lon="4.62423">
        <ele>471</ele>
        <time>2012-08-04T08:11:09Z</time>
      </trkpt>
      <trkpt lat="45.66902" lon="4.624">
        <ele>471</ele>
        <time>2012-08-04T08:11:14Z</time>
      </trkpt>
      <trkpt lat="45.66909" lon="4.62379">
        <ele>471</ele>
        <time>2012-08-04T08:11:20Z</time>
      </trkpt>
      <trkpt lat="45.66917" lon="4.62362">
        <ele>471</ele>
        <time>2012-08-04T08:11:25Z</time>
      </trkpt>
      <trkpt lat="45.66932" lon="4.62341">
        <ele>470</ele>
        <time>2012-08-04T08:11:31Z</time>
      </trkpt>
      <trkpt lat="45.66953" lon="4.6232">
        <ele>469</ele>
        <time>2012-08-04T08:11:38Z</time>
      </trkpt>
      <trkpt lat="45.6697" lon="4.62306">
        <ele>469</ele>
        <time>2012-08-04T08:11:43Z</time>
      </trkpt>
      <trkpt lat="45.66984" lon="4.62286">
        <ele>468</ele>
        <time>2012-08-04T08:11:48Z</time>
      </trkpt>
      <trkpt lat="45.66998" lon="4.6226">
        <ele>467</ele>
        <time>2012-08-04T08:11:54Z</time>
      </trkpt>
      <trkpt lat="45.67007" lon="4.6223">
        <ele>466</ele>
        <time>2012-08-04T08:12:00Z</time>
      </trkpt>
      <trkpt lat="45.67019" lon="4.62196">
        <ele>465</ele>
        <time>2012-08-04T08:12:07Z</time>
      </trkpt>
      <trkpt lat="45.67031" lon="4.62171">
        <ele>463</ele>
        <time>2012-08-04T08:12:14Z</time>
      </trkpt>
      <trkpt lat="45.67042" lon="4.62151">
        <ele>463</ele>
        <time>2012-08-04T08:12:20Z</time>
      </trkpt>
      <trkpt lat="45.67057" lon="4.62129">
        <ele>463</ele>
        <time>2012-08-04T08:12:27Z</time>
      </trkpt>
      <trkpt lat="45.67073" lon="4.62098">
        <ele>463</ele>
        <time>2012-08-04T08:12:34Z</time>
      </trkpt>
      <trkpt lat="45.67076" lon="4.62096">
        <ele>463</ele>
        <time>2012-08-04T08:12:35Z</time>
      </trkpt>
      <trkpt lat="45.6708" lon="4.621">
        <ele>462</ele>
        <time>2012-08-04T08:12:37Z</time>
      </trkpt>
      <trkpt lat="45.67079" lon="4.62105">
        <ele>462</ele>
        <time>2012-08-04T08:12:38Z</time>
      </trkpt>
      <trkpt lat="45.67078" lon="4.62109">
        <ele>461</ele>
        <time>2012-08-04T08:12:39Z</time>
      </trkpt>
      <trkpt lat="45.67077" lon="4.62112">
        <ele>460</ele>
        <time>2012-08-04T08:12:40Z</time>
      </trkpt>
      <trkpt lat="45.67076" lon="4.62115">
        <ele>461</ele>
        <time>2012-08-04T08:12:41Z</time>
      </trkpt>
      <trkpt lat="45.6707" lon="4.62122">
        <ele>459</ele>
        <time>2012-08-04T08:12:44Z</time>
      </trkpt>
      <trkpt lat="45.67067" lon="4.62124">
        <ele>458</ele>
        <time>2012-08-04T08:12:45Z</time>
      </trkpt>
      <trkpt lat="45.67065" lon="4.62125">
        <ele>458</ele>
        <time>2012-08-04T08:12:46Z</time>
      </trkpt>
      <trkpt lat="45.67061" lon="4.6213">
        <ele>457</ele>
        <time>2012-08-04T08:12:48Z</time>
      </trkpt>
      <trkpt lat="45.67059" lon="4.62133">
        <ele>456</ele>
        <time>2012-08-04T08:12:49Z</time>
      </trkpt>
      <trkpt lat="45.67057" lon="4.62138">
        <ele>456</ele>
        <time>2012-08-04T08:12:50Z</time>
      </trkpt>
      <trkpt lat="45.67053" lon="4.6215">
        <ele>455</ele>
        <time>2012-08-04T08:12:52Z</time>
      </trkpt>
      <trkpt lat="45.67039" lon="4.62197">
        <ele>452</ele>
        <time>2012-08-04T08:12:58Z</time>
      </trkpt>
      <trkpt lat="45.67035" lon="4.6221">
        <ele>452</ele>
        <time>2012-08-04T08:13:00Z</time>
      </trkpt>
      <trkpt lat="45.67036" lon="4.62218">
        <ele>451</ele>
        <time>2012-08-04T08:13:01Z</time>
      </trkpt>
      <trkpt lat="45.67037" lon="4.62225">
        <ele>451</ele>
        <time>2012-08-04T08:13:02Z</time>
      </trkpt>
      <trkpt lat="45.6704" lon="4.62233">
        <ele>451</ele>
        <time>2012-08-04T08:13:03Z</time>
      </trkpt>
      <trkpt lat="45.67044" lon="4.62239">
        <ele>451</ele>
        <time>2012-08-04T08:13:04Z</time>
      </trkpt>
      <trkpt lat="45.67046" lon="4.62245">
        <ele>452</ele>
        <time>2012-08-04T08:13:05Z</time>
      </trkpt>
      <trkpt lat="45.67049" lon="4.6225">
        <ele>451</ele>
        <time>2012-08-04T08:13:06Z</time>
      </trkpt>
      <trkpt lat="45.67051" lon="4.62254">
        <ele>452</ele>
        <time>2012-08-04T08:13:07Z</time>
      </trkpt>
      <trkpt lat="45.67051" lon="4.62257">
        <ele>452</ele>
        <time>2012-08-04T08:13:08Z</time>
      </trkpt>
      <trkpt lat="45.67055" lon="4.62279">
        <ele>453</ele>
        <time>2012-08-04T08:13:14Z</time>
      </trkpt>
      <trkpt lat="45.67057" lon="4.62315">
        <ele>453</ele>
        <time>2012-08-04T08:13:23Z</time>
      </trkpt>
      <trkpt lat="45.67056" lon="4.62338">
        <ele>452</ele>
        <time>2012-08-04T08:13:31Z</time>
      </trkpt>
      <trkpt lat="45.67053" lon="4.62357">
        <ele>452</ele>
        <time>2012-08-04T08:13:37Z</time>
      </trkpt>
      <trkpt lat="45.67049" lon="4.62366">
        <ele>451</ele>
        <time>2012-08-04T08:13:42Z</time>
      </trkpt>
      <trkpt lat="45.67047" lon="4.62369">
        <ele>450</ele>
        <time>2012-08-04T08:13:43Z</time>
      </trkpt>
      <trkpt lat="45.67045" lon="4.62371">
        <ele>450</ele>
        <time>2012-08-04T08:13:44Z</time>
      </trkpt>
      <trkpt lat="45.67044" lon="4.62373">
        <ele>450</ele>
        <time>2012-08-04T08:13:45Z</time>
      </trkpt>
      <trkpt lat="45.67042" lon="4.62375">
        <ele>450</ele>
        <time>2012-08-04T08:13:46Z</time>
      </trkpt>
      <trkpt lat="45.67039" lon="4.62377">
        <ele>449</ele>
        <time>2012-08-04T08:13:47Z</time>
      </trkpt>
      <trkpt lat="45.67036" lon="4.62379">
        <ele>449</ele>
        <time>2012-08-04T08:13:48Z</time>
      </trkpt>
      <trkpt lat="45.67032" lon="4.6238">
        <ele>450</ele>
        <time>2012-08-04T08:13:49Z</time>
      </trkpt>
      <trkpt lat="45.67028" lon="4.62381">
        <ele>449</ele>
        <time>2012-08-04T08:13:50Z</time>
      </trkpt>
      <trkpt lat="45.67025" lon="4.62381">
        <ele>449</ele>
        <time>2012-08-04T08:13:51Z</time>
      </trkpt>
      <trkpt lat="45.67021" lon="4.62381">
        <ele>449</ele>
        <time>2012-08-04T08:13:52Z</time>
      </trkpt>
      <trkpt lat="45.67018" lon="4.6238">
        <ele>449</ele>
        <time>2012-08-04T08:13:53Z</time>
      </trkpt>
      <trkpt lat="45.67014" lon="4.62379">
        <ele>449</ele>
        <time>2012-08-04T08:13:54Z</time>
      </trkpt>
      <trkpt lat="45.66997" lon="4.62378">
        <ele>448</ele>
        <time>2012-08-04T08:13:59Z</time>
      </trkpt>
      <trkpt lat="45.66972" lon="4.62389">
        <ele>447</ele>
        <time>2012-08-04T08:14:06Z</time>
      </trkpt>
      <trkpt lat="45.66958" lon="4.62395">
        <ele>448</ele>
        <time>2012-08-04T08:14:12Z</time>
      </trkpt>
      <trkpt lat="45.66948" lon="4.62396">
        <ele>449</ele>
        <time>2012-08-04T08:14:17Z</time>
      </trkpt>
      <trkpt lat="45.66938" lon="4.62398">
        <ele>450</ele>
        <time>2012-08-04T08:14:24Z</time>
      </trkpt>
      <trkpt lat="45.66929" lon="4.62401">
        <ele>452</ele>
        <time>2012-08-04T08:14:30Z</time>
      </trkpt>
      <trkpt lat="45.66927" lon="4.62402">
        <ele>452</ele>
        <time>2012-08-04T08:14:31Z</time>
      </trkpt>
      <trkpt lat="45.66925" lon="4.62404">
        <ele>453</ele>
        <time>2012-08-04T08:14:32Z</time>
      </trkpt>
      <trkpt lat="45.66923" lon="4.62414">
        <ele>453</ele>
        <time>2012-08-04T08:14:39Z</time>
      </trkpt>
      <trkpt lat="45.66924" lon="4.62415">
        <ele>453</ele>
        <time>2012-08-04T08:14:40Z</time>
      </trkpt>
      <trkpt lat="45.66926" lon="4.62417">
        <ele>453</ele>
        <time>2012-08-04T08:14:41Z</time>
      </trkpt>
      <trkpt lat="45.66928" lon="4.62419">
        <ele>452</ele>
        <time>2012-08-04T08:14:42Z</time>
      </trkpt>
      <trkpt lat="45.6693" lon="4.6242">
        <ele>452</ele>
        <time>2012-08-04T08:14:43Z</time>
      </trkpt>
      <trkpt lat="45.66931" lon="4.62422">
        <ele>452</ele>
        <time>2012-08-04T08:14:44Z</time>
      </trkpt>
      <trkpt lat="45.66933" lon="4.62425">
        <ele>452</ele>
        <time>2012-08-04T08:14:45Z</time>
      </trkpt>
      <trkpt lat="45.66935" lon="4.62428">
        <ele>451</ele>
        <time>2012-08-04T08:14:46Z</time>
      </trkpt>
      <trkpt lat="45.66947" lon="4.62445">
        <ele>450</ele>
        <time>2012-08-04T08:14:51Z</time>
      </trkpt>
      <trkpt lat="45.66948" lon="4.62449">
        <ele>451</ele>
        <time>2012-08-04T08:14:52Z</time>
      </trkpt>
      <trkpt lat="45.6695" lon="4.62452">
        <ele>451</ele>
        <time>2012-08-04T08:14:53Z</time>
      </trkpt>
      <trkpt lat="45.66957" lon="4.6247">
        <ele>451</ele>
        <time>2012-08-04T08:15:00Z</time>
      </trkpt>
      <trkpt lat="45.66966" lon="4.62491">
        <ele>453</ele>
        <time>2012-08-04T08:15:06Z</time>
      </trkpt>
      <trkpt lat="45.66975" lon="4.62517">
        <ele>455</ele>
        <time>2012-08-04T08:15:12Z</time>
      </trkpt>
      <trkpt lat="45.6698" lon="4.62536">
        <ele>456</ele>
        <time>2012-08-04T08:15:19Z</time>
      </trkpt>
      <trkpt lat="45.66982" lon="4.62541">
        <ele>456</ele>
        <time>2012-08-04T08:15:21Z</time>
      </trkpt>
      <trkpt lat="45.66984" lon="4.62543">
        <ele>456</ele>
        <time>2012-08-04T08:15:22Z</time>
      </trkpt>
      <trkpt lat="45.66985" lon="4.62544">
        <ele>456</ele>
        <time>2012-08-04T08:15:23Z</time>
      </trkpt>
      <trkpt lat="45.66987" lon="4.62546">
        <ele>455</ele>
        <time>2012-08-04T08:15:24Z</time>
      </trkpt>
      <trkpt lat="45.66989" lon="4.62549">
        <ele>455</ele>
        <time>2012-08-04T08:15:25Z</time>
      </trkpt>
      <trkpt lat="45.66991" lon="4.62552">
        <ele>455</ele>
        <time>2012-08-04T08:15:26Z</time>
      </trkpt>
      <trkpt lat="45.66992" lon="4.62556">
        <ele>454</ele>
        <time>2012-08-04T08:15:27Z</time>
      </trkpt>
      <trkpt lat="45.66993" lon="4.62561">
        <ele>453</ele>
        <time>2012-08-04T08:15:28Z</time>
      </trkpt>
      <trkpt lat="45.66995" lon="4.62566">
        <ele>453</ele>
        <time>2012-08-04T08:15:29Z</time>
      </trkpt>
      <trkpt lat="45.66998" lon="4.62573">
        <ele>453</ele>
        <time>2012-08-04T08:15:30Z</time>
      </trkpt>
      <trkpt lat="45.67" lon="4.6258">
        <ele>452</ele>
        <time>2012-08-04T08:15:31Z</time>
      </trkpt>
      <trkpt lat="45.67002" lon="4.62587">
        <ele>452</ele>
        <time>2012-08-04T08:15:32Z</time>
      </trkpt>
      <trkpt lat="45.67004" lon="4.62595">
        <ele>452</ele>
        <time>2012-08-04T08:15:33Z</time>
      </trkpt>
      <trkpt lat="45.67006" lon="4.62604">
        <ele>452</ele>
        <time>2012-08-04T08:15:34Z</time>
      </trkpt>
      <trkpt lat="45.67008" lon="4.62613">
        <ele>451</ele>
        <time>2012-08-04T08:15:35Z</time>
      </trkpt>
      <trkpt lat="45.6701" lon="4.62621">
        <ele>451</ele>
        <time>2012-08-04T08:15:36Z</time>
      </trkpt>
      <trkpt lat="45.67011" lon="4.6263">
        <ele>451</ele>
        <time>2012-08-04T08:15:37Z</time>
      </trkpt>
      <trkpt lat="45.67012" lon="4.62638">
        <ele>451</ele>
        <time>2012-08-04T08:15:38Z</time>
      </trkpt>
      <trkpt lat="45.67014" lon="4.62664">
        <ele>451</ele>
        <time>2012-08-04T08:15:43Z</time>
      </trkpt>
      <trkpt lat="45.67015" lon="4.62676">
        <ele>450</ele>
        <time>2012-08-04T08:15:46Z</time>
      </trkpt>
      <trkpt lat="45.67015" lon="4.6268">
        <ele>450</ele>
        <time>2012-08-04T08:15:47Z</time>
      </trkpt>
      <trkpt lat="45.67015" lon="4.62684">
        <ele>450</ele>
        <time>2012-08-04T08:15:48Z</time>
      </trkpt>
      <trkpt lat="45.67015" lon="4.62688">
        <ele>450</ele>
        <time>2012-08-04T08:15:49Z</time>
      </trkpt>
      <trkpt lat="45.67015" lon="4.62693">
        <ele>450</ele>
        <time>2012-08-04T08:15:50Z</time>
      </trkpt>
      <trkpt lat="45.67015" lon="4.62698">
        <ele>450</ele>
        <time>2012-08-04T08:15:51Z</time>
      </trkpt>
      <trkpt lat="45.67014" lon="4.62703">
        <ele>449</ele>
        <time>2012-08-04T08:15:52Z</time>
      </trkpt>
      <trkpt lat="45.67014" lon="4.62708">
        <ele>450</ele>
        <time>2012-08-04T08:15:53Z</time>
      </trkpt>
      <trkpt lat="45.67014" lon="4.62712">
        <ele>450</ele>
        <time>2012-08-04T08:15:54Z</time>
      </trkpt>
      <trkpt lat="45.67013" lon="4.62717">
        <ele>450</ele>
        <time>2012-08-04T08:15:55Z</time>
      </trkpt>
      <trkpt lat="45.67012" lon="4.62721">
        <ele>450</ele>
        <time>2012-08-04T08:15:56Z</time>
      </trkpt>
      <trkpt lat="45.67008" lon="4.62758">
        <ele>450</ele>
        <time>2012-08-04T08:16:03Z</time>
      </trkpt>
      <trkpt lat="45.67" lon="4.62788">
        <ele>449</ele>
        <time>2012-08-04T08:16:09Z</time>
      </trkpt>
      <trkpt lat="45.66982" lon="4.62817">
        <ele>448</ele>
        <time>2012-08-04T08:16:16Z</time>
      </trkpt>
      <trkpt lat="45.66972" lon="4.62832">
        <ele>448</ele>
        <time>2012-08-04T08:16:20Z</time>
      </trkpt>
      <trkpt lat="45.66972" lon="4.62837">
        <ele>447</ele>
        <time>2012-08-04T08:16:21Z</time>
      </trkpt>
      <trkpt lat="45.66973" lon="4.62842">
        <ele>447</ele>
        <time>2012-08-04T08:16:22Z</time>
      </trkpt>
      <trkpt lat="45.66975" lon="4.62847">
        <ele>447</ele>
        <time>2012-08-04T08:16:23Z</time>
      </trkpt>
      <trkpt lat="45.66977" lon="4.62851">
        <ele>447</ele>
        <time>2012-08-04T08:16:24Z</time>
      </trkpt>
      <trkpt lat="45.66978" lon="4.62855">
        <ele>447</ele>
        <time>2012-08-04T08:16:25Z</time>
      </trkpt>
      <trkpt lat="45.66981" lon="4.62866">
        <ele>448</ele>
        <time>2012-08-04T08:16:31Z</time>
      </trkpt>
      <trkpt lat="45.66982" lon="4.62867">
        <ele>447</ele>
        <time>2012-08-04T08:16:32Z</time>
      </trkpt>
      <trkpt lat="45.66983" lon="4.62867">
        <ele>447</ele>
        <time>2012-08-04T08:16:33Z</time>
      </trkpt>
      <trkpt lat="45.66984" lon="4.62869">
        <ele>448</ele>
        <time>2012-08-04T08:16:34Z</time>
      </trkpt>
      <trkpt lat="45.66985" lon="4.62871">
        <ele>448</ele>
        <time>2012-08-04T08:16:35Z</time>
      </trkpt>
      <trkpt lat="45.66987" lon="4.62873">
        <ele>448</ele>
        <time>2012-08-04T08:16:36Z</time>
      </trkpt>
      <trkpt lat="45.66988" lon="4.62874">
        <ele>448</ele>
        <time>2012-08-04T08:16:37Z</time>
      </trkpt>
      <trkpt lat="45.66989" lon="4.62874">
        <ele>448</ele>
        <time>2012-08-04T08:16:38Z</time>
      </trkpt>
      <trkpt lat="45.66998" lon="4.6288">
        <ele>448</ele>
        <time>2012-08-04T08:16:45Z</time>
      </trkpt>
      <trkpt lat="45.6701" lon="4.6289">
        <ele>450</ele>
        <time>2012-08-04T08:16:52Z</time>
      </trkpt>
      <trkpt lat="45.67023" lon="4.62904">
        <ele>450</ele>
        <time>2012-08-04T08:17:00Z</time>
      </trkpt>
      <trkpt lat="45.67036" lon="4.62911">
        <ele>450</ele>
        <time>2012-08-04T08:17:06Z</time>
      </trkpt>
      <trkpt lat="45.67056" lon="4.62915">
        <ele>450</ele>
        <time>2012-08-04T08:17:13Z</time>
      </trkpt>
      <trkpt lat="45.67064" lon="4.62917">
        <ele>451</ele>
        <time>2012-08-04T08:17:16Z</time>
      </trkpt>
      <trkpt lat="45.67078" lon="4.62916">
        <ele>452</ele>
        <time>2012-08-04T08:17:22Z</time>
      </trkpt>
      <trkpt lat="45.67093" lon="4.62925">
        <ele>455</ele>
        <time>2012-08-04T08:17:29Z</time>
      </trkpt>
      <trkpt lat="45.67093" lon="4.62927">
        <ele>454</ele>
        <time>2012-08-04T08:17:30Z</time>
      </trkpt>
      <trkpt lat="45.67093" lon="4.6293">
        <ele>455</ele>
        <time>2012-08-04T08:17:31Z</time>
      </trkpt>
      <trkpt lat="45.67092" lon="4.62932">
        <ele>455</ele>
        <time>2012-08-04T08:17:32Z</time>
      </trkpt>
      <trkpt lat="45.6709" lon="4.62933">
        <ele>455</ele>
        <time>2012-08-04T08:17:33Z</time>
      </trkpt>
      <trkpt lat="45.67089" lon="4.62935">
        <ele>455</ele>
        <time>2012-08-04T08:17:34Z</time>
      </trkpt>
      <trkpt lat="45.67087" lon="4.62936">
        <ele>456</ele>
        <time>2012-08-04T08:17:35Z</time>
      </trkpt>
      <trkpt lat="45.67084" lon="4.62938">
        <ele>455</ele>
        <time>2012-08-04T08:17:36Z</time>
      </trkpt>
      <trkpt lat="45.67082" lon="4.62939">
        <ele>456</ele>
        <time>2012-08-04T08:17:37Z</time>
      </trkpt>
      <trkpt lat="45.67069" lon="4.62951">
        <ele>457</ele>
        <time>2012-08-04T08:17:44Z</time>
      </trkpt>
      <trkpt lat="45.67062" lon="4.62962">
        <ele>457</ele>
        <time>2012-08-04T08:17:50Z</time>
      </trkpt>
      <trkpt lat="45.67063" lon="4.62977">
        <ele>457</ele>
        <time>2012-08-04T08:17:55Z</time>
      </trkpt>
      <trkpt lat="45.67066" lon="4.63001">
        <ele>458</ele>
        <time>2012-08-04T08:18:01Z</time>
      </trkpt>
      <trkpt lat="45.67068" lon="4.63042">
        <ele>457</ele>
        <time>2012-08-04T08:18:10Z</time>
      </trkpt>
      <trkpt lat="45.67069" lon="4.63064">
        <ele>456</ele>
        <time>2012-08-04T08:18:14Z</time>
      </trkpt>
      <trkpt lat="45.67068" lon="4.63091">
        <ele>454</ele>
        <time>2012-08-04T08:18:18Z</time>
      </trkpt>
      <trkpt lat="45.67069" lon="4.63098">
        <ele>454</ele>
        <time>2012-08-04T08:18:19Z</time>
      </trkpt>
      <trkpt lat="45.67071" lon="4.63106">
        <ele>454</ele>
        <time>2012-08-04T08:18:20Z</time>
      </trkpt>
      <trkpt lat="45.67075" lon="4.63111">
        <ele>453</ele>
        <time>2012-08-04T08:18:21Z</time>
      </trkpt>
      <trkpt lat="45.67079" lon="4.63116">
        <ele>452</ele>
        <time>2012-08-04T08:18:22Z</time>
      </trkpt>
      <trkpt lat="45.67085" lon="4.63119">
        <ele>452</ele>
        <time>2012-08-04T08:18:23Z</time>
      </trkpt>
      <trkpt lat="45.6709" lon="4.63122">
        <ele>452</ele>
        <time>2012-08-04T08:18:24Z</time>
      </trkpt>
      <trkpt lat="45.67096" lon="4.63126">
        <ele>451</ele>
        <time>2012-08-04T08:18:25Z</time>
      </trkpt>
      <trkpt lat="45.67101" lon="4.63131">
        <ele>451</ele>
        <time>2012-08-04T08:18:26Z</time>
      </trkpt>
      <trkpt lat="45.67133" lon="4.6316">
        <ele>449</ele>
        <time>2012-08-04T08:18:33Z</time>
      </trkpt>
      <trkpt lat="45.6715" lon="4.63175">
        <ele>449</ele>
        <time>2012-08-04T08:18:39Z</time>
      </trkpt>
      <trkpt lat="45.67179" lon="4.63199">
        <ele>448</ele>
        <time>2012-08-04T08:18:48Z</time>
      </trkpt>
      <trkpt lat="45.67208" lon="4.63222">
        <ele>449</ele>
        <time>2012-08-04T08:18:58Z</time>
      </trkpt>
      <trkpt lat="45.67237" lon="4.63243">
        <ele>449</ele>
        <time>2012-08-04T08:19:07Z</time>
      </trkpt>
      <trkpt lat="45.67259" lon="4.63263">
        <ele>450</ele>
        <time>2012-08-04T08:19:15Z</time>
      </trkpt>
      <trkpt lat="45.67276" lon="4.63293">
        <ele>451</ele>
        <time>2012-08-04T08:19:23Z</time>
      </trkpt>
      <trkpt lat="45.67282" lon="4.63321">
        <ele>450</ele>
        <time>2012-08-04T08:19:30Z</time>
      </trkpt>
      <trkpt lat="45.67286" lon="4.63342">
        <ele>448</ele>
        <time>2012-08-04T08:19:34Z</time>
      </trkpt>
      <trkpt lat="45.6729" lon="4.6338">
        <ele>446</ele>
        <time>2012-08-04T08:19:39Z</time>
      </trkpt>
      <trkpt lat="45.67292" lon="4.63421">
        <ele>445</ele>
        <time>2012-08-04T08:19:44Z</time>
      </trkpt>
      <trkpt lat="45.67296" lon="4.63443">
        <ele>444</ele>
        <time>2012-08-04T08:19:48Z</time>
      </trkpt>
      <trkpt lat="45.67304" lon="4.63472">
        <ele>441</ele>
        <time>2012-08-04T08:19:52Z</time>
      </trkpt>
      <trkpt lat="45.67306" lon="4.63481">
        <ele>441</ele>
        <time>2012-08-04T08:19:53Z</time>
      </trkpt>
      <trkpt lat="45.67308" lon="4.63491">
        <ele>439</ele>
        <time>2012-08-04T08:19:54Z</time>
      </trkpt>
      <trkpt lat="45.67318" lon="4.63547">
        <ele>435</ele>
        <time>2012-08-04T08:19:59Z</time>
      </trkpt>
      <trkpt lat="45.67321" lon="4.63573">
        <ele>432</ele>
        <time>2012-08-04T08:20:02Z</time>
      </trkpt>
      <trkpt lat="45.6732" lon="4.63586">
        <ele>431</ele>
        <time>2012-08-04T08:20:05Z</time>
      </trkpt>
      <trkpt lat="45.67314" lon="4.6361">
        <ele>429</ele>
        <time>2012-08-04T08:20:10Z</time>
      </trkpt>
      <trkpt lat="45.67292" lon="4.63647">
        <ele>429</ele>
        <time>2012-08-04T08:20:18Z</time>
      </trkpt>
      <trkpt lat="45.67273" lon="4.63678">
        <ele>427</ele>
        <time>2012-08-04T08:20:25Z</time>
      </trkpt>
      <trkpt lat="45.67274" lon="4.63688">
        <ele>426</ele>
        <time>2012-08-04T08:20:28Z</time>
      </trkpt>
      <trkpt lat="45.67276" lon="4.63691">
        <ele>426</ele>
        <time>2012-08-04T08:20:29Z</time>
      </trkpt>
      <trkpt lat="45.67279" lon="4.63694">
        <ele>426</ele>
        <time>2012-08-04T08:20:30Z</time>
      </trkpt>
      <trkpt lat="45.6729" lon="4.63706">
        <ele>423</ele>
        <time>2012-08-04T08:20:34Z</time>
      </trkpt>
      <trkpt lat="45.67293" lon="4.63708">
        <ele>423</ele>
        <time>2012-08-04T08:20:35Z</time>
      </trkpt>
      <trkpt lat="45.67295" lon="4.63711">
        <ele>422</ele>
        <time>2012-08-04T08:20:36Z</time>
      </trkpt>
      <trkpt lat="45.67299" lon="4.63716">
        <ele>421</ele>
        <time>2012-08-04T08:20:37Z</time>
      </trkpt>
      <trkpt lat="45.67321" lon="4.63739">
        <ele>418</ele>
        <time>2012-08-04T08:20:42Z</time>
      </trkpt>
      <trkpt lat="45.67334" lon="4.63756">
        <ele>414</ele>
        <time>2012-08-04T08:20:45Z</time>
      </trkpt>
      <trkpt lat="45.67357" lon="4.63784">
        <ele>410</ele>
        <time>2012-08-04T08:20:49Z</time>
      </trkpt>
      <trkpt lat="45.67376" lon="4.63801">
        <ele>407</ele>
        <time>2012-08-04T08:20:52Z</time>
      </trkpt>
      <trkpt lat="45.67401" lon="4.63823">
        <ele>403</ele>
        <time>2012-08-04T08:20:56Z</time>
      </trkpt>
      <trkpt lat="45.67408" lon="4.63827">
        <ele>403</ele>
        <time>2012-08-04T08:20:57Z</time>
      </trkpt>
      <trkpt lat="45.67415" lon="4.63831">
        <ele>403</ele>
        <time>2012-08-04T08:20:58Z</time>
      </trkpt>
      <trkpt lat="45.67421" lon="4.63836">
        <ele>402</ele>
        <time>2012-08-04T08:20:59Z</time>
      </trkpt>
      <trkpt lat="45.67428" lon="4.63842">
        <ele>401</ele>
        <time>2012-08-04T08:21:00Z</time>
      </trkpt>
      <trkpt lat="45.67434" lon="4.63847">
        <ele>400</ele>
        <time>2012-08-04T08:21:01Z</time>
      </trkpt>
      <trkpt lat="45.67441" lon="4.63853">
        <ele>400</ele>
        <time>2012-08-04T08:21:02Z</time>
      </trkpt>
      <trkpt lat="45.67479" lon="4.6389">
        <ele>398</ele>
        <time>2012-08-04T08:21:08Z</time>
      </trkpt>
      <trkpt lat="45.67509" lon="4.63929">
        <ele>394</ele>
        <time>2012-08-04T08:21:13Z</time>
      </trkpt>
      <trkpt lat="45.6753" lon="4.63954">
        <ele>393</ele>
        <time>2012-08-04T08:21:16Z</time>
      </trkpt>
      <trkpt lat="45.67536" lon="4.6396">
        <ele>393</ele>
        <time>2012-08-04T08:21:17Z</time>
      </trkpt>
      <trkpt lat="45.67548" lon="4.63972">
        <ele>391</ele>
        <time>2012-08-04T08:21:19Z</time>
      </trkpt>
      <trkpt lat="45.67552" lon="4.6398">
        <ele>390</ele>
        <time>2012-08-04T08:21:20Z</time>
      </trkpt>
      <trkpt lat="45.67556" lon="4.63989">
        <ele>390</ele>
        <time>2012-08-04T08:21:21Z</time>
      </trkpt>
      <trkpt lat="45.67558" lon="4.63999">
        <ele>388</ele>
        <time>2012-08-04T08:21:22Z</time>
      </trkpt>
      <trkpt lat="45.67561" lon="4.6401">
        <ele>388</ele>
        <time>2012-08-04T08:21:23Z</time>
      </trkpt>
      <trkpt lat="45.67564" lon="4.64021">
        <ele>388</ele>
        <time>2012-08-04T08:21:24Z</time>
      </trkpt>
      <trkpt lat="45.67568" lon="4.64032">
        <ele>387</ele>
        <time>2012-08-04T08:21:25Z</time>
      </trkpt>
      <trkpt lat="45.67582" lon="4.64082">
        <ele>382</ele>
        <time>2012-08-04T08:21:29Z</time>
      </trkpt>
      <trkpt lat="45.67591" lon="4.64112">
        <ele>379</ele>
        <time>2012-08-04T08:21:31Z</time>
      </trkpt>
      <trkpt lat="45.67602" lon="4.64149">
        <ele>376</ele>
        <time>2012-08-04T08:21:34Z</time>
      </trkpt>
      <trkpt lat="45.67603" lon="4.64161">
        <ele>376</ele>
        <time>2012-08-04T08:21:35Z</time>
      </trkpt>
      <trkpt lat="45.67602" lon="4.64172">
        <ele>375</ele>
        <time>2012-08-04T08:21:36Z</time>
      </trkpt>
      <trkpt lat="45.67599" lon="4.64183">
        <ele>375</ele>
        <time>2012-08-04T08:21:37Z</time>
      </trkpt>
      <trkpt lat="45.67596" lon="4.64193">
        <ele>374</ele>
        <time>2012-08-04T08:21:38Z</time>
      </trkpt>
      <trkpt lat="45.67589" lon="4.64219">
        <ele>375</ele>
        <time>2012-08-04T08:21:41Z</time>
      </trkpt>
      <trkpt lat="45.67587" lon="4.64263">
        <ele>376</ele>
        <time>2012-08-04T08:21:48Z</time>
      </trkpt>
      <trkpt lat="45.67589" lon="4.64268">
        <ele>376</ele>
        <time>2012-08-04T08:21:49Z</time>
      </trkpt>
      <trkpt lat="45.67592" lon="4.64271">
        <ele>375</ele>
        <time>2012-08-04T08:21:50Z</time>
      </trkpt>
      <trkpt lat="45.67595" lon="4.64272">
        <ele>375</ele>
        <time>2012-08-04T08:21:51Z</time>
      </trkpt>
      <trkpt lat="45.67599" lon="4.64272">
        <ele>375</ele>
        <time>2012-08-04T08:21:52Z</time>
      </trkpt>
      <trkpt lat="45.67603" lon="4.64271">
        <ele>376</ele>
        <time>2012-08-04T08:21:53Z</time>
      </trkpt>
      <trkpt lat="45.67606" lon="4.6427">
        <ele>376</ele>
        <time>2012-08-04T08:21:54Z</time>
      </trkpt>
      <trkpt lat="45.6761" lon="4.64268">
        <ele>376</ele>
        <time>2012-08-04T08:21:55Z</time>
      </trkpt>
      <trkpt lat="45.67626" lon="4.64258">
        <ele>375</ele>
        <time>2012-08-04T08:21:59Z</time>
      </trkpt>
      <trkpt lat="45.67655" lon="4.64241">
        <ele>372</ele>
        <time>2012-08-04T08:22:05Z</time>
      </trkpt>
      <trkpt lat="45.67667" lon="4.64237">
        <ele>370</ele>
        <time>2012-08-04T08:22:08Z</time>
      </trkpt>
      <trkpt lat="45.67683" lon="4.64234">
        <ele>368</ele>
        <time>2012-08-04T08:22:12Z</time>
      </trkpt>
      <trkpt lat="45.67699" lon="4.64228">
        <ele>366</ele>
        <time>2012-08-04T08:22:15Z</time>
      </trkpt>
      <trkpt lat="45.67713" lon="4.64224">
        <ele>364</ele>
        <time>2012-08-04T08:22:18Z</time>
      </trkpt>
      <trkpt lat="45.67729" lon="4.64218">
        <ele>360</ele>
        <time>2012-08-04T08:22:22Z</time>
      </trkpt>
      <trkpt lat="45.67739" lon="4.64213">
        <ele>358</ele>
        <time>2012-08-04T08:22:24Z</time>
      </trkpt>
      <trkpt lat="45.67744" lon="4.64212">
        <ele>357</ele>
        <time>2012-08-04T08:22:25Z</time>
      </trkpt>
      <trkpt lat="45.67749" lon="4.64211">
        <ele>355</ele>
        <time>2012-08-04T08:22:26Z</time>
      </trkpt>
      <trkpt lat="45.67753" lon="4.64212">
        <ele>354</ele>
        <time>2012-08-04T08:22:27Z</time>
      </trkpt>
      <trkpt lat="45.67757" lon="4.64212">
        <ele>353</ele>
        <time>2012-08-04T08:22:28Z</time>
      </trkpt>
      <trkpt lat="45.67769" lon="4.64214">
        <ele>351</ele>
        <time>2012-08-04T08:22:32Z</time>
      </trkpt>
      <trkpt lat="45.67773" lon="4.64213">
        <ele>350</ele>
        <time>2012-08-04T08:22:38Z</time>
      </trkpt>
      <trkpt lat="45.67773" lon="4.64214">
        <ele>350</ele>
        <time>2012-08-04T08:22:44Z</time>
      </trkpt>
      <trkpt lat="45.67779" lon="4.64236">
        <ele>350</ele>
        <time>2012-08-04T08:22:49Z</time>
      </trkpt>
      <trkpt lat="45.67785" lon="4.64273">
        <ele>349</ele>
        <time>2012-08-04T08:22:56Z</time>
      </trkpt>
      <trkpt lat="45.67794" lon="4.64299">
        <ele>349</ele>
        <time>2012-08-04T08:23:02Z</time>
      </trkpt>
      <trkpt lat="45.67806" lon="4.64324">
        <ele>348</ele>
        <time>2012-08-04T08:23:08Z</time>
      </trkpt>
      <trkpt lat="45.67824" lon="4.64347">
        <ele>347</ele>
        <time>2012-08-04T08:23:15Z</time>
      </trkpt>
      <trkpt lat="45.67845" lon="4.64368">
        <ele>347</ele>
        <time>2012-08-04T08:23:22Z</time>
      </trkpt>
      <trkpt lat="45.67861" lon="4.64392">
        <ele>346</ele>
        <time>2012-08-04T08:23:28Z</time>
      </trkpt>
      <trkpt lat="45.67876" lon="4.64428">
        <ele>346</ele>
        <time>2012-08-04T08:23:35Z</time>
      </trkpt>
      <trkpt lat="45.67883" lon="4.64482">
        <ele>344</ele>
        <time>2012-08-04T08:23:44Z</time>
      </trkpt>
      <trkpt lat="45.67886" lon="4.64513">
        <ele>345</ele>
        <time>2012-08-04T08:23:50Z</time>
      </trkpt>
      <trkpt lat="45.67888" lon="4.64526">
        <ele>344</ele>
        <time>2012-08-04T08:23:52Z</time>
      </trkpt>
      <trkpt lat="45.67886" lon="4.64566">
        <ele>343</ele>
        <time>2012-08-04T08:23:58Z</time>
      </trkpt>
      <trkpt lat="45.67886" lon="4.64571">
        <ele>343</ele>
        <time>2012-08-04T08:23:59Z</time>
      </trkpt>
      <trkpt lat="45.67886" lon="4.64577">
        <ele>343</ele>
        <time>2012-08-04T08:24:00Z</time>
      </trkpt>
      <trkpt lat="45.67886" lon="4.64582">
        <ele>342</ele>
        <time>2012-08-04T08:24:01Z</time>
      </trkpt>
      <trkpt lat="45.67886" lon="4.64586">
        <ele>342</ele>
        <time>2012-08-04T08:24:02Z</time>
      </trkpt>
      <trkpt lat="45.67886" lon="4.64591">
        <ele>342</ele>
        <time>2012-08-04T08:24:03Z</time>
      </trkpt>
      <trkpt lat="45.67883" lon="4.64634">
        <ele>342</ele>
        <time>2012-08-04T08:24:10Z</time>
      </trkpt>
      <trkpt lat="45.6788" lon="4.64669">
        <ele>342</ele>
        <time>2012-08-04T08:24:15Z</time>
      </trkpt>
      <trkpt lat="45.67878" lon="4.64684">
        <ele>341</ele>
        <time>2012-08-04T08:24:17Z</time>
      </trkpt>
      <trkpt lat="45.67878" lon="4.64692">
        <ele>341</ele>
        <time>2012-08-04T08:24:18Z</time>
      </trkpt>
      <trkpt lat="45.67878" lon="4.64699">
        <ele>341</ele>
        <time>2012-08-04T08:24:19Z</time>
      </trkpt>
      <trkpt lat="45.67879" lon="4.64707">
        <ele>341</ele>
        <time>2012-08-04T08:24:20Z</time>
      </trkpt>
      <trkpt lat="45.6788" lon="4.64714">
        <ele>341</ele>
        <time>2012-08-04T08:24:21Z</time>
      </trkpt>
      <trkpt lat="45.6788" lon="4.64721">
        <ele>341</ele>
        <time>2012-08-04T08:24:22Z</time>
      </trkpt>
      <trkpt lat="45.67879" lon="4.64729">
        <ele>341</ele>
        <time>2012-08-04T08:24:23Z</time>
      </trkpt>
      <trkpt lat="45.67873" lon="4.64787">
        <ele>340</ele>
        <time>2012-08-04T08:24:31Z</time>
      </trkpt>
      <trkpt lat="45.67873" lon="4.64795">
        <ele>340</ele>
        <time>2012-08-04T08:24:32Z</time>
      </trkpt>
      <trkpt lat="45.67873" lon="4.64815">
        <ele>339</ele>
        <time>2012-08-04T08:24:35Z</time>
      </trkpt>
      <trkpt lat="45.67874" lon="4.64859">
        <ele>339</ele>
        <time>2012-08-04T08:24:42Z</time>
      </trkpt>
      <trkpt lat="45.67871" lon="4.64897">
        <ele>339</ele>
        <time>2012-08-04T08:24:49Z</time>
      </trkpt>
      <trkpt lat="45.67872" lon="4.64903">
        <ele>338</ele>
        <time>2012-08-04T08:24:54Z</time>
      </trkpt>
      <trkpt lat="45.67871" lon="4.64907">
        <ele>338</ele>
        <time>2012-08-04T08:24:55Z</time>
      </trkpt>
      <trkpt lat="45.67869" lon="4.64911">
        <ele>339</ele>
        <time>2012-08-04T08:24:56Z</time>
      </trkpt>
      <trkpt lat="45.67868" lon="4.64916">
        <ele>339</ele>
        <time>2012-08-04T08:24:57Z</time>
      </trkpt>
      <trkpt lat="45.67867" lon="4.64921">
        <ele>339</ele>
        <time>2012-08-04T08:24:58Z</time>
      </trkpt>
      <trkpt lat="45.67867" lon="4.64926">
        <ele>338</ele>
        <time>2012-08-04T08:24:59Z</time>
      </trkpt>
      <trkpt lat="45.67867" lon="4.64931">
        <ele>338</ele>
        <time>2012-08-04T08:25:00Z</time>
      </trkpt>
      <trkpt lat="45.67867" lon="4.64935">
        <ele>339</ele>
        <time>2012-08-04T08:25:01Z</time>
      </trkpt>
      <trkpt lat="45.67873" lon="4.64984">
        <ele>338</ele>
        <time>2012-08-04T08:25:11Z</time>
      </trkpt>
      <trkpt lat="45.67872" lon="4.65011">
        <ele>338</ele>
        <time>2012-08-04T08:25:17Z</time>
      </trkpt>
      <trkpt lat="45.67867" lon="4.65028">
        <ele>337</ele>
        <time>2012-08-04T08:25:24Z</time>
      </trkpt>
      <trkpt lat="45.67869" lon="4.65045">
        <ele>336</ele>
        <time>2012-08-04T08:25:30Z</time>
      </trkpt>
      <trkpt lat="45.67867" lon="4.6505">
        <ele>335</ele>
        <time>2012-08-04T08:25:33Z</time>
      </trkpt>
      <trkpt lat="45.67867" lon="4.65051">
        <ele>334</ele>
        <time>2012-08-04T08:25:34Z</time>
      </trkpt>
      <trkpt lat="45.67871" lon="4.65069">
        <ele>334</ele>
        <time>2012-08-04T08:25:40Z</time>
      </trkpt>
      <trkpt lat="45.67873" lon="4.65091">
        <ele>334</ele>
        <time>2012-08-04T08:25:48Z</time>
      </trkpt>
      <trkpt lat="45.67878" lon="4.65117">
        <ele>334</ele>
        <time>2012-08-04T08:25:55Z</time>
      </trkpt>
      <trkpt lat="45.67878" lon="4.65123">
        <ele>334</ele>
        <time>2012-08-04T08:25:57Z</time>
      </trkpt>
      <trkpt lat="45.67884" lon="4.65148">
        <ele>333</ele>
        <time>2012-08-04T08:26:04Z</time>
      </trkpt>
      <trkpt lat="45.67885" lon="4.65151">
        <ele>333</ele>
        <time>2012-08-04T08:26:06Z</time>
      </trkpt>
      <trkpt lat="45.67892" lon="4.65155">
        <ele>333</ele>
        <time>2012-08-04T08:26:09Z</time>
      </trkpt>
      <trkpt lat="45.6791" lon="4.65162">
        <ele>335</ele>
        <time>2012-08-04T08:26:17Z</time>
      </trkpt>
      <trkpt lat="45.67933" lon="4.65172">
        <ele>336</ele>
        <time>2012-08-04T08:26:26Z</time>
      </trkpt>
      <trkpt lat="45.6795" lon="4.65167">
        <ele>336</ele>
        <time>2012-08-04T08:26:34Z</time>
      </trkpt>
      <trkpt lat="45.67965" lon="4.65161">
        <ele>337</ele>
        <time>2012-08-04T08:26:41Z</time>
      </trkpt>
      <trkpt lat="45.67966" lon="4.65163">
        <ele>338</ele>
        <time>2012-08-04T08:26:42Z</time>
      </trkpt>
      <trkpt lat="45.67967" lon="4.65166">
        <ele>338</ele>
        <time>2012-08-04T08:26:43Z</time>
      </trkpt>
      <trkpt lat="45.67966" lon="4.65169">
        <ele>338</ele>
        <time>2012-08-04T08:26:44Z</time>
      </trkpt>
      <trkpt lat="45.67966" lon="4.65173">
        <ele>338</ele>
        <time>2012-08-04T08:26:45Z</time>
      </trkpt>
      <trkpt lat="45.67965" lon="4.65177">
        <ele>338</ele>
        <time>2012-08-04T08:26:46Z</time>
      </trkpt>
      <trkpt lat="45.6796" lon="4.65202">
        <ele>338</ele>
        <time>2012-08-04T08:26:52Z</time>
      </trkpt>
      <trkpt lat="45.67954" lon="4.6525">
        <ele>339</ele>
        <time>2012-08-04T08:27:01Z</time>
      </trkpt>
      <trkpt lat="45.6795" lon="4.65312">
        <ele>339</ele>
        <time>2012-08-04T08:27:11Z</time>
      </trkpt>
      <trkpt lat="45.6795" lon="4.65339">
        <ele>339</ele>
        <time>2012-08-04T08:27:15Z</time>
      </trkpt>
      <trkpt lat="45.67951" lon="4.65345">
        <ele>339</ele>
        <time>2012-08-04T08:27:16Z</time>
      </trkpt>
      <trkpt lat="45.67952" lon="4.65406">
        <ele>338</ele>
        <time>2012-08-04T08:27:25Z</time>
      </trkpt>
      <trkpt lat="45.67952" lon="4.65426">
        <ele>338</ele>
        <time>2012-08-04T08:27:28Z</time>
      </trkpt>
      <trkpt lat="45.67951" lon="4.65433">
        <ele>337</ele>
        <time>2012-08-04T08:27:29Z</time>
      </trkpt>
      <trkpt lat="45.67951" lon="4.6544">
        <ele>337</ele>
        <time>2012-08-04T08:27:30Z</time>
      </trkpt>
      <trkpt lat="45.67951" lon="4.65447">
        <ele>338</ele>
        <time>2012-08-04T08:27:31Z</time>
      </trkpt>
      <trkpt lat="45.67951" lon="4.65453">
        <ele>338</ele>
        <time>2012-08-04T08:27:32Z</time>
      </trkpt>
      <trkpt lat="45.67949" lon="4.65515">
        <ele>337</ele>
        <time>2012-08-04T08:27:41Z</time>
      </trkpt>
      <trkpt lat="45.67948" lon="4.65521">
        <ele>336</ele>
        <time>2012-08-04T08:27:42Z</time>
      </trkpt>
      <trkpt lat="45.67948" lon="4.65527">
        <ele>336</ele>
        <time>2012-08-04T08:27:43Z</time>
      </trkpt>
      <trkpt lat="45.6794" lon="4.65587">
        <ele>335</ele>
        <time>2012-08-04T08:27:52Z</time>
      </trkpt>
      <trkpt lat="45.67924" lon="4.6565">
        <ele>334</ele>
        <time>2012-08-04T08:28:01Z</time>
      </trkpt>
      <trkpt lat="45.67906" lon="4.65731">
        <ele>332</ele>
        <time>2012-08-04T08:28:11Z</time>
      </trkpt>
      <trkpt lat="45.67905" lon="4.65778">
        <ele>331</ele>
        <time>2012-08-04T08:28:16Z</time>
      </trkpt>
      <trkpt lat="45.67913" lon="4.65847">
        <ele>330</ele>
        <time>2012-08-04T08:28:25Z</time>
      </trkpt>
      <trkpt lat="45.67915" lon="4.65855">
        <ele>330</ele>
        <time>2012-08-04T08:28:27Z</time>
      </trkpt>
      <trkpt lat="45.6792" lon="4.65861">
        <ele>330</ele>
        <time>2012-08-04T08:28:29Z</time>
      </trkpt>
      <trkpt lat="45.67921" lon="4.65864">
        <ele>330</ele>
        <time>2012-08-04T08:28:30Z</time>
      </trkpt>
      <trkpt lat="45.67923" lon="4.65871">
        <ele>329</ele>
        <time>2012-08-04T08:28:32Z</time>
      </trkpt>
      <trkpt lat="45.67926" lon="4.65872">
        <ele>330</ele>
        <time>2012-08-04T08:28:33Z</time>
      </trkpt>
      <trkpt lat="45.67929" lon="4.6587">
        <ele>330</ele>
        <time>2012-08-04T08:28:34Z</time>
      </trkpt>
      <trkpt lat="45.67932" lon="4.65867">
        <ele>330</ele>
        <time>2012-08-04T08:28:35Z</time>
      </trkpt>
      <trkpt lat="45.67935" lon="4.65865">
        <ele>329</ele>
        <time>2012-08-04T08:28:36Z</time>
      </trkpt>
      <trkpt lat="45.67939" lon="4.65864">
        <ele>329</ele>
        <time>2012-08-04T08:28:37Z</time>
      </trkpt>
      <trkpt lat="45.67942" lon="4.65866">
        <ele>329</ele>
        <time>2012-08-04T08:28:38Z</time>
      </trkpt>
      <trkpt lat="45.67944" lon="4.65869">
        <ele>329</ele>
        <time>2012-08-04T08:28:39Z</time>
      </trkpt>
      <trkpt lat="45.67944" lon="4.65871">
        <ele>330</ele>
        <time>2012-08-04T08:28:40Z</time>
      </trkpt>
      <trkpt lat="45.67944" lon="4.65874">
        <ele>330</ele>
        <time>2012-08-04T08:28:41Z</time>
      </trkpt>
      <trkpt lat="45.67946" lon="4.65889">
        <ele>333</ele>
        <time>2012-08-04T08:28:47Z</time>
      </trkpt>
      <trkpt lat="45.67945" lon="4.65913">
        <ele>335</ele>
        <time>2012-08-04T08:28:56Z</time>
      </trkpt>
      <trkpt lat="45.6794" lon="4.6594">
        <ele>335</ele>
        <time>2012-08-04T08:29:05Z</time>
      </trkpt>
      <trkpt lat="45.6794" lon="4.65944">
        <ele>335</ele>
        <time>2012-08-04T08:29:06Z</time>
      </trkpt>
      <trkpt lat="45.67942" lon="4.65948">
        <ele>335</ele>
        <time>2012-08-04T08:29:07Z</time>
      </trkpt>
      <trkpt lat="45.67944" lon="4.6595">
        <ele>335</ele>
        <time>2012-08-04T08:29:08Z</time>
      </trkpt>
      <trkpt lat="45.67946" lon="4.65952">
        <ele>335</ele>
        <time>2012-08-04T08:29:09Z</time>
      </trkpt>
      <trkpt lat="45.67947" lon="4.65954">
        <ele>336</ele>
        <time>2012-08-04T08:29:10Z</time>
      </trkpt>
      <trkpt lat="45.67948" lon="4.65957">
        <ele>336</ele>
        <time>2012-08-04T08:29:11Z</time>
      </trkpt>
      <trkpt lat="45.67949" lon="4.65959">
        <ele>336</ele>
        <time>2012-08-04T08:29:12Z</time>
      </trkpt>
      <trkpt lat="45.67949" lon="4.65961">
        <ele>336</ele>
        <time>2012-08-04T08:29:13Z</time>
      </trkpt>
      <trkpt lat="45.67954" lon="4.65977">
        <ele>337</ele>
        <time>2012-08-04T08:29:21Z</time>
      </trkpt>
      <trkpt lat="45.67959" lon="4.65984">
        <ele>339</ele>
        <time>2012-08-04T08:29:26Z</time>
      </trkpt>
      <trkpt lat="45.6796" lon="4.65984">
        <ele>339</ele>
        <time>2012-08-04T08:29:27Z</time>
      </trkpt>
      <trkpt lat="45.67961" lon="4.65984">
        <ele>340</ele>
        <time>2012-08-04T08:29:28Z</time>
      </trkpt>
      <trkpt lat="45.67963" lon="4.65984">
        <ele>340</ele>
        <time>2012-08-04T08:29:29Z</time>
      </trkpt>
      <trkpt lat="45.67964" lon="4.65983">
        <ele>340</ele>
        <time>2012-08-04T08:29:30Z</time>
      </trkpt>
      <trkpt lat="45.67965" lon="4.65981">
        <ele>340</ele>
        <time>2012-08-04T08:29:31Z</time>
      </trkpt>
      <trkpt lat="45.67966" lon="4.6598">
        <ele>340</ele>
        <time>2012-08-04T08:29:32Z</time>
      </trkpt>
      <trkpt lat="45.67975" lon="4.65969">
        <ele>341</ele>
        <time>2012-08-04T08:29:40Z</time>
      </trkpt>
      <trkpt lat="45.67984" lon="4.6596">
        <ele>343</ele>
        <time>2012-08-04T08:29:48Z</time>
      </trkpt>
      <trkpt lat="45.67996" lon="4.65953">
        <ele>345</ele>
        <time>2012-08-04T08:29:57Z</time>
      </trkpt>
      <trkpt lat="45.68006" lon="4.65954">
        <ele>347</ele>
        <time>2012-08-04T08:30:06Z</time>
      </trkpt>
      <trkpt lat="45.68009" lon="4.65957">
        <ele>348</ele>
        <time>2012-08-04T08:30:09Z</time>
      </trkpt>
      <trkpt lat="45.6801" lon="4.6596">
        <ele>348</ele>
        <time>2012-08-04T08:30:11Z</time>
      </trkpt>
      <trkpt lat="45.68011" lon="4.65961">
        <ele>348</ele>
        <time>2012-08-04T08:30:12Z</time>
      </trkpt>
      <trkpt lat="45.68011" lon="4.65963">
        <ele>349</ele>
        <time>2012-08-04T08:30:13Z</time>
      </trkpt>
      <trkpt lat="45.68018" lon="4.65975">
        <ele>350</ele>
        <time>2012-08-04T08:30:22Z</time>
      </trkpt>
      <trkpt lat="45.68025" lon="4.65989">
        <ele>352</ele>
        <time>2012-08-04T08:30:32Z</time>
      </trkpt>
      <trkpt lat="45.68035" lon="4.66001">
        <ele>354</ele>
        <time>2012-08-04T08:30:41Z</time>
      </trkpt>
      <trkpt lat="45.68045" lon="4.66014">
        <ele>354</ele>
        <time>2012-08-04T08:30:50Z</time>
      </trkpt>
      <trkpt lat="45.68058" lon="4.66028">
        <ele>356</ele>
        <time>2012-08-04T08:31:00Z</time>
      </trkpt>
      <trkpt lat="45.6807" lon="4.66042">
        <ele>357</ele>
        <time>2012-08-04T08:31:10Z</time>
      </trkpt>
      <trkpt lat="45.68084" lon="4.66054">
        <ele>358</ele>
        <time>2012-08-04T08:31:20Z</time>
      </trkpt>
      <trkpt lat="45.68097" lon="4.66066">
        <ele>359</ele>
        <time>2012-08-04T08:31:30Z</time>
      </trkpt>
      <trkpt lat="45.68112" lon="4.66077">
        <ele>360</ele>
        <time>2012-08-04T08:31:40Z</time>
      </trkpt>
      <trkpt lat="45.68129" lon="4.66087">
        <ele>362</ele>
        <time>2012-08-04T08:31:51Z</time>
      </trkpt>
      <trkpt lat="45.68142" lon="4.66098">
        <ele>364</ele>
        <time>2012-08-04T08:32:01Z</time>
      </trkpt>
      <trkpt lat="45.68146" lon="4.66102">
        <ele>364</ele>
        <time>2012-08-04T08:32:05Z</time>
      </trkpt>
      <trkpt lat="45.68148" lon="4.66103">
        <ele>364</ele>
        <time>2012-08-04T08:32:06Z</time>
      </trkpt>
      <trkpt lat="45.68149" lon="4.66103">
        <ele>364</ele>
        <time>2012-08-04T08:32:07Z</time>
      </trkpt>
      <trkpt lat="45.6815" lon="4.66104">
        <ele>364</ele>
        <time>2012-08-04T08:32:08Z</time>
      </trkpt>
      <trkpt lat="45.68152" lon="4.66105">
        <ele>364</ele>
        <time>2012-08-04T08:32:09Z</time>
      </trkpt>
      <trkpt lat="45.68163" lon="4.66113">
        <ele>366</ele>
        <time>2012-08-04T08:32:18Z</time>
      </trkpt>
      <trkpt lat="45.68167" lon="4.66117">
        <ele>366</ele>
        <time>2012-08-04T08:32:22Z</time>
      </trkpt>
      <trkpt lat="45.68169" lon="4.66118">
        <ele>366</ele>
        <time>2012-08-04T08:32:23Z</time>
      </trkpt>
      <trkpt lat="45.68175" lon="4.66123">
        <ele>368</ele>
        <time>2012-08-04T08:32:28Z</time>
      </trkpt>
      <trkpt lat="45.68187" lon="4.66137">
        <ele>369</ele>
        <time>2012-08-04T08:32:37Z</time>
      </trkpt>
      <trkpt lat="45.68204" lon="4.66154">
        <ele>370</ele>
        <time>2012-08-04T08:32:49Z</time>
      </trkpt>
      <trkpt lat="45.68222" lon="4.66173">
        <ele>370</ele>
        <time>2012-08-04T08:32:59Z</time>
      </trkpt>
      <trkpt lat="45.68239" lon="4.6619">
        <ele>372</ele>
        <time>2012-08-04T08:33:09Z</time>
      </trkpt>
      <trkpt lat="45.68243" lon="4.66193">
        <ele>371</ele>
        <time>2012-08-04T08:33:16Z</time>
      </trkpt>
      <trkpt lat="45.68243" lon="4.66193">
        <ele>371</ele>
        <time>2012-08-04T08:33:27Z</time>
      </trkpt>
      <trkpt lat="45.68244" lon="4.66193">
        <ele>371</ele>
        <time>2012-08-04T08:33:39Z</time>
      </trkpt>
      <trkpt lat="45.68244" lon="4.66195">
        <ele>371</ele>
        <time>2012-08-04T08:33:48Z</time>
      </trkpt>
      <trkpt lat="45.68249" lon="4.66199">
        <ele>371</ele>
        <time>2012-08-04T08:33:51Z</time>
      </trkpt>
      <trkpt lat="45.6825" lon="4.66202">
        <ele>371</ele>
        <time>2012-08-04T08:33:52Z</time>
      </trkpt>
      <trkpt lat="45.68253" lon="4.66204">
        <ele>371</ele>
        <time>2012-08-04T08:33:53Z</time>
      </trkpt>
      <trkpt lat="45.68286" lon="4.66227">
        <ele>370</ele>
        <time>2012-08-04T08:34:02Z</time>
      </trkpt>
      <trkpt lat="45.68289" lon="4.6623">
        <ele>370</ele>
        <time>2012-08-04T08:34:03Z</time>
      </trkpt>
      <trkpt lat="45.68293" lon="4.66232">
        <ele>369</ele>
        <time>2012-08-04T08:34:04Z</time>
      </trkpt>
      <trkpt lat="45.68296" lon="4.66233">
        <ele>369</ele>
        <time>2012-08-04T08:34:05Z</time>
      </trkpt>
      <trkpt lat="45.683" lon="4.66234">
        <ele>369</ele>
        <time>2012-08-04T08:34:06Z</time>
      </trkpt>
      <trkpt lat="45.68327" lon="4.6625">
        <ele>369</ele>
        <time>2012-08-04T08:34:15Z</time>
      </trkpt>
      <trkpt lat="45.68348" lon="4.66256">
        <ele>370</ele>
        <time>2012-08-04T08:34:22Z</time>
      </trkpt>
      <trkpt lat="45.68371" lon="4.66265">
        <ele>369</ele>
        <time>2012-08-04T08:34:29Z</time>
      </trkpt>
      <trkpt lat="45.68404" lon="4.66279">
        <ele>369</ele>
        <time>2012-08-04T08:34:38Z</time>
      </trkpt>
      <trkpt lat="45.68429" lon="4.66291">
        <ele>369</ele>
        <time>2012-08-04T08:34:45Z</time>
      </trkpt>
      <trkpt lat="45.68452" lon="4.66304">
        <ele>369</ele>
        <time>2012-08-04T08:34:52Z</time>
      </trkpt>
      <trkpt lat="45.68471" lon="4.66319">
        <ele>368</ele>
        <time>2012-08-04T08:34:58Z</time>
      </trkpt>
      <trkpt lat="45.68507" lon="4.6634">
        <ele>367</ele>
        <time>2012-08-04T08:35:07Z</time>
      </trkpt>
      <trkpt lat="45.68558" lon="4.66366">
        <ele>365</ele>
        <time>2012-08-04T08:35:18Z</time>
      </trkpt>
      <trkpt lat="45.68563" lon="4.66368">
        <ele>365</ele>
        <time>2012-08-04T08:35:19Z</time>
      </trkpt>
      <trkpt lat="45.68568" lon="4.66369">
        <ele>365</ele>
        <time>2012-08-04T08:35:20Z</time>
      </trkpt>
      <trkpt lat="45.68572" lon="4.66371">
        <ele>365</ele>
        <time>2012-08-04T08:35:21Z</time>
      </trkpt>
      <trkpt lat="45.68577" lon="4.66373">
        <ele>365</ele>
        <time>2012-08-04T08:35:22Z</time>
      </trkpt>
      <trkpt lat="45.68614" lon="4.66392">
        <ele>364</ele>
        <time>2012-08-04T08:35:30Z</time>
      </trkpt>
      <trkpt lat="45.68619" lon="4.66394">
        <ele>364</ele>
        <time>2012-08-04T08:35:31Z</time>
      </trkpt>
      <trkpt lat="45.68661" lon="4.66418">
        <ele>362</ele>
        <time>2012-08-04T08:35:41Z</time>
      </trkpt>
      <trkpt lat="45.68681" lon="4.6643">
        <ele>362</ele>
        <time>2012-08-04T08:35:46Z</time>
      </trkpt>
      <trkpt lat="45.68713" lon="4.66439">
        <ele>361</ele>
        <time>2012-08-04T08:35:53Z</time>
      </trkpt>
      <trkpt lat="45.68726" lon="4.66443">
        <ele>361</ele>
        <time>2012-08-04T08:35:56Z</time>
      </trkpt>
      <trkpt lat="45.6873" lon="4.66444">
        <ele>360</ele>
        <time>2012-08-04T08:35:57Z</time>
      </trkpt>
      <trkpt lat="45.68734" lon="4.66447">
        <ele>361</ele>
        <time>2012-08-04T08:35:58Z</time>
      </trkpt>
      <trkpt lat="45.68739" lon="4.6645">
        <ele>361</ele>
        <time>2012-08-04T08:35:59Z</time>
      </trkpt>
      <trkpt lat="45.68742" lon="4.66453">
        <ele>361</ele>
        <time>2012-08-04T08:36:00Z</time>
      </trkpt>
      <trkpt lat="45.68745" lon="4.66457">
        <ele>361</ele>
        <time>2012-08-04T08:36:01Z</time>
      </trkpt>
      <trkpt lat="45.68748" lon="4.66462">
        <ele>361</ele>
        <time>2012-08-04T08:36:02Z</time>
      </trkpt>
      <trkpt lat="45.68751" lon="4.66467">
        <ele>361</ele>
        <time>2012-08-04T08:36:03Z</time>
      </trkpt>
      <trkpt lat="45.68755" lon="4.66472">
        <ele>361</ele>
        <time>2012-08-04T08:36:04Z</time>
      </trkpt>
      <trkpt lat="45.68778" lon="4.66492">
        <ele>362</ele>
        <time>2012-08-04T08:36:11Z</time>
      </trkpt>
      <trkpt lat="45.688" lon="4.66514">
        <ele>364</ele>
        <time>2012-08-04T08:36:20Z</time>
      </trkpt>
      <trkpt lat="45.68822" lon="4.66533">
        <ele>365</ele>
        <time>2012-08-04T08:36:29Z</time>
      </trkpt>
      <trkpt lat="45.68847" lon="4.66558">
        <ele>366</ele>
        <time>2012-08-04T08:36:39Z</time>
      </trkpt>
      <trkpt lat="45.68873" lon="4.66588">
        <ele>369</ele>
        <time>2012-08-04T08:36:50Z</time>
      </trkpt>
      <trkpt lat="45.68898" lon="4.66613">
        <ele>370</ele>
        <time>2012-08-04T08:37:00Z</time>
      </trkpt>
      <trkpt lat="45.6892" lon="4.66623">
        <ele>371</ele>
        <time>2012-08-04T08:37:08Z</time>
      </trkpt>
      <trkpt lat="45.68946" lon="4.66635">
        <ele>372</ele>
        <time>2012-08-04T08:37:17Z</time>
      </trkpt>
      <trkpt lat="45.6897" lon="4.66642">
        <ele>372</ele>
        <time>2012-08-04T08:37:25Z</time>
      </trkpt>
      <trkpt lat="45.68997" lon="4.66654">
        <ele>372</ele>
        <time>2012-08-04T08:37:33Z</time>
      </trkpt>
      <trkpt lat="45.69037" lon="4.66681">
        <ele>372</ele>
        <time>2012-08-04T08:37:43Z</time>
      </trkpt>
      <trkpt lat="45.69075" lon="4.66706">
        <ele>371</ele>
        <time>2012-08-04T08:37:52Z</time>
      </trkpt>
      <trkpt lat="45.69121" lon="4.66736">
        <ele>371</ele>
        <time>2012-08-04T08:38:03Z</time>
      </trkpt>
      <trkpt lat="45.69155" lon="4.6675">
        <ele>372</ele>
        <time>2012-08-04T08:38:11Z</time>
      </trkpt>
      <trkpt lat="45.69159" lon="4.66751">
        <ele>372</ele>
        <time>2012-08-04T08:38:12Z</time>
      </trkpt>
      <trkpt lat="45.69162" lon="4.66752">
        <ele>372</ele>
        <time>2012-08-04T08:38:13Z</time>
      </trkpt>
      <trkpt lat="45.69172" lon="4.66754">
        <ele>372</ele>
        <time>2012-08-04T08:38:15Z</time>
      </trkpt>
      <trkpt lat="45.69176" lon="4.66756">
        <ele>371</ele>
        <time>2012-08-04T08:38:16Z</time>
      </trkpt>
      <trkpt lat="45.69185" lon="4.66762">
        <ele>372</ele>
        <time>2012-08-04T08:38:18Z</time>
      </trkpt>
      <trkpt lat="45.69223" lon="4.66795">
        <ele>371</ele>
        <time>2012-08-04T08:38:27Z</time>
      </trkpt>
      <trkpt lat="45.69267" lon="4.66831">
        <ele>370</ele>
        <time>2012-08-04T08:38:37Z</time>
      </trkpt>
      <trkpt lat="45.69304" lon="4.66867">
        <ele>368</ele>
        <time>2012-08-04T08:38:45Z</time>
      </trkpt>
      <trkpt lat="45.69342" lon="4.66929">
        <ele>365</ele>
        <time>2012-08-04T08:38:55Z</time>
      </trkpt>
      <trkpt lat="45.6936" lon="4.66956">
        <ele>365</ele>
        <time>2012-08-04T08:39:00Z</time>
      </trkpt>
      <trkpt lat="45.6939" lon="4.67006">
        <ele>367</ele>
        <time>2012-08-04T08:39:10Z</time>
      </trkpt>
      <trkpt lat="45.69421" lon="4.6705">
        <ele>369</ele>
        <time>2012-08-04T08:39:21Z</time>
      </trkpt>
      <trkpt lat="45.69443" lon="4.6708">
        <ele>369</ele>
        <time>2012-08-04T08:39:29Z</time>
      </trkpt>
      <trkpt lat="45.69465" lon="4.67111">
        <ele>372</ele>
        <time>2012-08-04T08:39:37Z</time>
      </trkpt>
      <trkpt lat="45.69489" lon="4.6713">
        <ele>372</ele>
        <time>2012-08-04T08:39:44Z</time>
      </trkpt>
      <trkpt lat="45.69518" lon="4.67142">
        <ele>373</ele>
        <time>2012-08-04T08:39:52Z</time>
      </trkpt>
      <trkpt lat="45.69566" lon="4.67159">
        <ele>375</ele>
        <time>2012-08-04T08:40:05Z</time>
      </trkpt>
      <trkpt lat="45.69599" lon="4.67174">
        <ele>376</ele>
        <time>2012-08-04T08:40:14Z</time>
      </trkpt>
      <trkpt lat="45.69631" lon="4.67201">
        <ele>376</ele>
        <time>2012-08-04T08:40:23Z</time>
      </trkpt>
      <trkpt lat="45.69658" lon="4.67235">
        <ele>377</ele>
        <time>2012-08-04T08:40:32Z</time>
      </trkpt>
      <trkpt lat="45.69665" lon="4.67243">
        <ele>376</ele>
        <time>2012-08-04T08:40:34Z</time>
      </trkpt>
      <trkpt lat="45.6969" lon="4.67291">
        <ele>376</ele>
        <time>2012-08-04T08:40:43Z</time>
      </trkpt>
      <trkpt lat="45.69692" lon="4.67297">
        <ele>376</ele>
        <time>2012-08-04T08:40:44Z</time>
      </trkpt>
      <trkpt lat="45.69709" lon="4.67347">
        <ele>375</ele>
        <time>2012-08-04T08:40:53Z</time>
      </trkpt>
      <trkpt lat="45.69715" lon="4.67384">
        <ele>374</ele>
        <time>2012-08-04T08:40:59Z</time>
      </trkpt>
      <trkpt lat="45.69712" lon="4.67388">
        <ele>374</ele>
        <time>2012-08-04T08:41:00Z</time>
      </trkpt>
      <trkpt lat="45.69708" lon="4.67393">
        <ele>374</ele>
        <time>2012-08-04T08:41:01Z</time>
      </trkpt>
      <trkpt lat="45.69704" lon="4.67397">
        <ele>373</ele>
        <time>2012-08-04T08:41:02Z</time>
      </trkpt>
      <trkpt lat="45.69699" lon="4.67401">
        <ele>373</ele>
        <time>2012-08-04T08:41:03Z</time>
      </trkpt>
      <trkpt lat="45.69694" lon="4.67405">
        <ele>373</ele>
        <time>2012-08-04T08:41:04Z</time>
      </trkpt>
      <trkpt lat="45.69689" lon="4.67408">
        <ele>373</ele>
        <time>2012-08-04T08:41:05Z</time>
      </trkpt>
      <trkpt lat="45.69669" lon="4.67415">
        <ele>372</ele>
        <time>2012-08-04T08:41:10Z</time>
      </trkpt>
      <trkpt lat="45.69666" lon="4.67412">
        <ele>371</ele>
        <time>2012-08-04T08:41:11Z</time>
      </trkpt>
      <trkpt lat="45.69665" lon="4.6741">
        <ele>372</ele>
        <time>2012-08-04T08:41:12Z</time>
      </trkpt>
      <trkpt lat="45.69664" lon="4.67406">
        <ele>372</ele>
        <time>2012-08-04T08:41:17Z</time>
      </trkpt>
      <trkpt lat="45.69663" lon="4.67405">
        <ele>371</ele>
        <time>2012-08-04T08:41:34Z</time>
      </trkpt>
      <trkpt lat="45.69663" lon="4.67405">
        <ele>369</ele>
        <time>2012-08-04T08:41:36Z</time>
      </trkpt>
    </trkseg>
  </trk>
</gpx>